[[{"header":{"parameterUnit":"m.s-1","parameterCategory":1,"la1":30.6,"la2":29.2853,"lo1":-89.7004,"lo2":-87.6739,"dx":0.0162,"dy":0.0183,"nx":112,"ny":82,"refTime":"2023-01-03T06:00:00:Z","depth":0,"parameterNumber":2,"parameterNumberName":"U-component_of_WINDS"},"data":[0.0,0.0,0.0,0.0,0.0,0.0,0.0,0.0,0.0,0.0,0.0,0.0,0.0,0.0,0.0,0.0,0.0,0.0,0.0,0.0,0.0,0.0,0.0,0.0,0.0,0.0,0.0,0.0,0.0,0.0,0.0,0.0,0.0,0.0,0.0,0.0,0.0,0.0,0.0,0.0,0.0,0.0,0.0,0.0,0.0,0.0,0.0,0.0,0.0,0.0,0.0,0.0,0.0,0.0,0.0,0.0,0.0,0.0,0.0,0.0,0.0,0.0,0.0,0.0,0.0,0.0,0.0,0.0,0.0,0.0,0.0,0.0,0.0,0.0,0.0,0.0,0.0,0.0,0.0,0.0,0.0,0.0,0.0,0.0,0.0,0.0,0.0,0.0,0.0,0.0,3.1203,3.2608,3.406,3.5008,3.5109,3.4413,3.309,3.0948,0.0,0.0,0.0,0.0,0.0,0.0,0.0,0.0,0.0,0.0,0.0,0.0,0.0,0.0,0.0,0.0,0.0,0.0,0.0,0.0,0.0,0.0,0.0,0.0,0.0,0.0,0.0,0.0,0.0,0.0,0.0,0.0,0.0,0.0,0.0,0.0,0.0,0.0,0.0,0.0,0.0,0.0,0.0,0.0,0.0,0.0,0.0,0.0,0.0,0.0,0.0,0.0,0.0,0.0,0.0,0.0,0.0,0.0,0.0,0.0,0.0,0.0,0.0,0.0,0.0,0.0,0.0,0.0,0.0,0.0,0.0,0.0,0.0,0.0,0.0,0.0,0.0,0.0,0.0,0.0,0.0,0.0,0.0,0.0,0.0,0.0,0.0,0.0,0.0,0.0,0.0,0.0,0.0,0.0,0.0,0.0,0.0,0.0,0.0,0.0,0.0,0.0,0.0,0.0,3.2663,3.4118,3.4784,3.5169,3.5201,3.5008,3.3992,3.1842,0.0,0.0,0.0,0.0,0.0,0.0,0.0,0.0,0.0,0.0,0.0,0.0,0.0,0.0,0.0,0.0,0.0,0.0,0.0,0.0,0.0,0.0,0.0,0.0,0.0,0.0,0.0,0.0,0.0,0.0,0.0,0.0,0.0,0.0,0.0,0.0,0.0,0.0,0.0,0.0,0.0,0.0,0.0,0.0,0.0,0.0,0.0,0.0,0.0,0.0,0.0,0.0,0.0,0.0,0.0,0.0,0.0,0.0,0.0,0.0,0.0,0.0,0.0,0.0,0.0,0.0,0.0,0.0,0.0,0.0,0.0,0.0,0.0,0.0,0.0,0.0,0.0,0.0,0.0,0.0,0.0,0.0,0.0,0.0,0.0,0.0,0.0,0.0,0.0,0.0,0.0,0.0,0.0,0.0,0.0,0.0,0.0,0.0,0.0,0.0,0.0,0.0,0.0,3.2522,3.3885,3.5019,3.5314,3.5709,3.6232,3.5866,3.4703,3.2643,3.0867,0.0,0.0,0.0,0.0,0.0,0.0,0.0,0.0,0.0,0.0,0.0,0.0,0.0,0.0,0.0,0.0,0.0,0.0,0.0,0.0,0.0,0.0,0.0,0.0,0.0,0.0,0.0,0.0,0.0,0.0,0.0,0.0,0.0,0.0,0.0,0.0,0.0,0.0,0.0,0.0,0.0,0.0,0.0,0.0,0.0,0.0,0.0,0.0,0.0,0.0,0.0,0.0,0.0,0.0,0.0,0.0,0.0,0.0,0.0,0.0,0.0,0.0,0.0,0.0,0.0,0.0,0.0,0.0,0.0,0.0,0.0,0.0,0.0,0.0,0.0,0.0,0.0,0.0,0.0,0.0,0.0,0.0,0.0,0.0,0.0,0.0,0.0,0.0,0.0,0.0,0.0,0.0,0.0,0.0,0.0,0.0,0.0,0.0,0.0,0.0,0.0,0.0,3.4226,3.5053,3.5722,3.6022,3.6418,3.7012,3.6554,3.5356,3.3288,3.16,0.0,0.0,0.0,0.0,0.0,0.0,0.0,0.0,0.0,0.0,0.0,0.0,0.0,0.0,0.0,0.0,0.0,0.0,0.0,0.0,0.0,0.0,0.0,0.0,0.0,0.0,0.0,0.0,0.0,0.0,0.0,0.0,0.0,0.0,0.0,0.0,0.0,0.0,0.0,0.0,0.0,0.0,0.0,0.0,0.0,0.0,0.0,0.0,0.0,0.0,0.0,0.0,0.0,0.0,0.0,0.0,0.0,0.0,0.0,0.0,0.0,0.0,0.0,0.0,0.0,0.0,0.0,0.0,0.0,0.0,0.0,0.0,0.0,0.0,0.0,0.0,0.0,0.0,0.0,0.0,0.0,0.0,0.0,0.0,0.0,0.0,0.0,0.0,0.0,0.0,0.0,0.0,0.0,0.0,0.0,0.0,0.0,0.0,0.0,0.0,0.0,0.0,3.5155,3.635,3.6443,3.7091,3.7345,3.6773,3.6847,3.5982,3.3774,3.1372,0.0,0.0,0.0,0.0,0.0,0.0,0.0,0.0,0.0,0.0,0.0,0.0,0.0,0.0,0.0,0.0,0.0,0.0,0.0,0.0,0.0,0.0,0.0,0.0,0.0,0.0,0.0,0.0,0.0,0.0,0.0,0.0,0.0,0.0,0.0,0.0,0.0,0.0,0.0,0.0,0.0,0.0,0.0,0.0,0.0,0.0,0.0,0.0,0.0,0.0,0.0,0.0,0.0,0.0,0.0,0.0,0.0,0.0,0.0,0.0,0.0,0.0,0.0,0.0,0.0,0.0,0.0,0.0,0.0,0.0,0.0,0.0,0.0,0.0,0.0,0.0,0.0,0.0,0.0,0.0,0.0,0.0,0.0,0.0,0.0,0.0,0.0,0.0,0.0,0.0,0.0,0.0,0.0,0.0,0.0,0.0,0.0,0.0,0.0,0.0,0.0,0.0,3.5693,3.6776,3.7584,3.7593,3.7631,3.7914,3.7358,3.6386,3.5036,0.0,0.0,0.0,0.0,0.0,0.0,0.0,0.0,0.0,0.0,0.0,0.0,0.0,0.0,0.0,0.0,0.0,0.0,0.0,0.0,0.0,0.0,0.0,0.0,0.0,0.0,0.0,0.0,0.0,0.0,0.0,0.0,0.0,0.0,0.0,0.0,0.0,0.0,0.0,0.0,0.0,0.0,0.0,0.0,0.0,0.0,0.0,0.0,0.0,0.0,0.0,0.0,0.0,0.0,0.0,0.0,0.0,0.0,0.0,0.0,0.0,0.0,0.0,0.0,0.0,0.0,0.0,0.0,0.0,0.0,0.0,0.0,0.0,0.0,0.0,0.0,0.0,0.0,0.0,0.0,0.0,0.0,0.0,0.0,0.0,0.0,0.0,0.0,0.0,0.0,0.0,0.0,0.0,0.0,0.0,0.0,0.0,0.0,0.0,0.0,0.0,0.0,3.4922,3.6317,3.7434,3.8302,3.8182,3.8187,3.8567,3.7888,3.7017,3.6014,0.0,0.0,0.0,0.0,0.0,0.0,0.0,0.0,0.0,0.0,0.0,0.0,0.0,0.0,0.0,0.0,0.0,0.0,0.0,0.0,0.0,0.0,0.0,0.0,0.0,0.0,0.0,0.0,0.0,0.0,0.0,0.0,0.0,0.0,0.0,0.0,0.0,0.0,0.0,0.0,0.0,0.0,0.0,0.0,0.0,0.0,0.0,0.0,0.0,0.0,0.0,0.0,0.0,0.0,0.0,0.0,0.0,0.0,0.0,0.0,0.0,0.0,0.0,0.0,0.0,0.0,0.0,0.0,0.0,0.0,0.0,0.0,0.0,0.0,0.0,0.0,0.0,0.0,0.0,0.0,0.0,0.0,0.0,0.0,0.0,0.0,0.0,0.0,0.0,0.0,0.0,0.0,0.0,0.0,0.0,0.0,0.0,0.0,0.0,0.0,0.0,0.0,3.4942,3.7093,3.8392,3.8422,3.902,3.914,3.8482,3.8392,3.7853,0.0,0.0,0.0,0.0,0.0,0.0,0.0,0.0,0.0,0.0,0.0,0.0,0.0,0.0,0.0,0.0,0.0,0.0,0.0,0.0,0.0,0.0,0.0,0.0,0.0,0.0,0.0,0.0,0.0,0.0,0.0,0.0,0.0,0.0,0.0,0.0,0.0,0.0,0.0,0.0,0.0,0.0,0.0,0.0,0.0,0.0,0.0,0.0,0.0,0.0,0.0,0.0,0.0,0.0,0.0,0.0,0.0,0.0,0.0,0.0,0.0,0.0,0.0,0.0,0.0,0.0,0.0,0.0,0.0,0.0,0.0,0.0,0.0,0.0,0.0,0.0,0.0,0.0,0.0,0.0,0.0,0.0,0.0,0.0,0.0,0.0,0.0,0.0,0.0,0.0,0.0,0.0,0.0,0.0,0.0,0.0,0.0,0.0,0.0,0.0,0.0,0.0,0.0,3.6178,3.756,3.8751,3.9709,3.9978,4.0038,3.9828,3.9517,3.8892,3.7883,0.0,0.0,0.0,0.0,0.0,0.0,0.0,0.0,0.0,0.0,0.0,0.0,0.0,0.0,0.0,0.0,0.0,0.0,0.0,0.0,0.0,0.0,0.0,0.0,0.0,0.0,0.0,0.0,0.0,0.0,0.0,0.0,0.0,0.0,0.0,0.0,0.0,0.0,0.0,0.0,0.0,0.0,0.0,0.0,0.0,0.0,0.0,0.0,0.0,0.0,0.0,0.0,0.0,0.0,0.0,0.0,0.0,0.0,0.0,0.0,0.0,0.0,0.0,0.0,0.0,0.0,0.0,0.0,0.0,0.0,0.0,0.0,0.0,0.0,0.0,0.0,0.0,0.0,0.0,0.0,0.0,0.0,0.0,0.0,0.0,0.0,0.0,0.0,0.0,0.0,0.0,0.0,0.0,0.0,0.0,0.0,0.0,0.0,0.0,0.0,0.0,0.0,3.7328,3.846,3.939,4.0196,4.0599,4.0786,4.0786,4.0537,3.9881,3.8729,0.0,0.0,0.0,0.0,0.0,0.0,0.0,0.0,0.0,0.0,0.0,0.0,0.0,0.0,0.0,0.0,0.0,0.0,0.0,0.0,0.0,0.0,0.0,0.0,0.0,0.0,0.0,0.0,0.0,0.0,0.0,0.0,0.0,0.0,0.0,0.0,0.0,0.0,0.0,0.0,0.0,0.0,0.0,0.0,0.0,0.0,0.0,0.0,0.0,0.0,0.0,0.0,0.0,0.0,0.0,0.0,0.0,0.0,0.0,0.0,0.0,0.0,0.0,0.0,0.0,0.0,0.0,0.0,0.0,0.0,0.0,0.0,0.0,0.0,0.0,0.0,0.0,0.0,0.0,0.0,0.0,0.0,0.0,0.0,0.0,0.0,0.0,0.0,0.0,0.0,0.0,0.0,0.0,0.0,0.0,0.0,0.0,0.0,0.0,0.0,0.0,0.0,3.8281,3.955,4.0315,4.0375,4.1189,4.1624,4.1564,4.1564,4.0931,3.9324,0.0,0.0,0.0,0.0,0.0,0.0,0.0,0.0,0.0,0.0,0.0,0.0,0.0,0.0,0.0,0.0,0.0,0.0,0.0,0.0,0.0,0.0,0.0,0.0,0.0,0.0,0.0,0.0,0.0,0.0,0.0,0.0,0.0,0.0,0.0,0.0,0.0,0.0,0.0,0.0,0.0,0.0,0.0,0.0,0.0,0.0,0.0,0.0,0.0,0.0,0.0,0.0,0.0,0.0,0.0,0.0,0.0,0.0,0.0,0.0,2.8611,2.7118,0.0,0.0,0.0,0.0,0.0,0.0,0.0,0.0,0.0,0.0,0.0,0.0,0.0,0.0,0.0,0.0,0.0,0.0,0.0,0.0,0.0,0.0,0.0,0.0,0.0,0.0,0.0,0.0,0.0,0.0,0.0,0.0,0.0,0.0,0.0,0.0,0.0,0.0,0.0,0.0,3.8657,4.0394,4.1831,4.2524,4.326,4.3479,4.297,4.2871,4.2324,4.094,3.9238,0.0,0.0,0.0,0.0,0.0,0.0,0.0,0.0,0.0,0.0,0.0,0.0,0.0,0.0,0.0,0.0,0.0,0.0,0.0,0.0,0.0,0.0,0.0,0.0,0.0,0.0,0.0,0.0,0.0,0.0,0.0,0.0,0.0,0.0,0.0,0.0,0.0,0.0,0.0,0.0,0.0,0.0,0.0,0.0,0.0,0.0,0.0,0.0,0.0,0.0,0.0,0.0,0.0,0.0,0.0,0.0,0.0,0.0,0.0,3.1273,2.9954,0.0,0.0,0.0,0.0,0.0,0.0,0.0,0.0,0.0,0.0,0.0,0.0,0.0,0.0,0.0,0.0,0.0,0.0,0.0,0.0,0.0,0.0,0.0,0.0,0.0,0.0,0.0,0.0,0.0,0.0,0.0,0.0,0.0,0.0,0.0,0.0,0.0,0.0,0.0,0.0,4.047,4.1607,4.2663,4.3558,4.4295,4.4646,4.4317,4.4287,4.3677,4.2267,4.086,0.0,0.0,0.0,0.0,0.0,0.0,0.0,0.0,0.0,0.0,0.0,0.0,0.0,0.0,0.0,0.0,0.0,0.0,0.0,0.0,0.0,0.0,0.0,0.0,0.0,0.0,0.0,0.0,0.0,0.0,0.0,0.0,0.0,0.0,0.0,0.0,0.0,0.0,0.0,0.0,0.0,0.0,0.0,0.0,0.0,0.0,0.0,0.0,0.0,0.0,0.0,0.0,0.0,3.3069,3.3577,3.4264,3.4521,3.4632,3.458,3.4076,3.3097,3.1817,3.0813,0.0,0.0,0.0,0.0,0.0,0.0,0.0,0.0,0.0,0.0,0.0,0.0,0.0,0.0,0.0,0.0,0.0,0.0,0.0,0.0,0.0,0.0,3.1381,3.1298,3.1695,3.2056,3.1656,0.0,0.0,0.0,0.0,0.0,0.0,0.0,0.0,0.0,0.0,0.0,4.2439,4.3037,4.3655,4.4406,4.5388,4.5903,4.5663,4.5633,4.5013,4.3504,4.2688,4.1169,0.0,0.0,0.0,0.0,0.0,0.0,0.0,0.0,0.0,0.0,0.0,0.0,0.0,0.0,0.0,0.0,0.0,0.0,0.0,0.0,0.0,0.0,0.0,0.0,0.0,0.0,0.0,0.0,0.0,0.0,0.0,0.0,2.7492,2.8765,0.0,0.0,0.0,0.0,0.0,0.0,0.0,0.0,0.0,0.0,0.0,0.0,0.0,3.2389,3.2031,3.3113,3.4016,3.4839,3.5098,3.5509,3.6045,3.6278,3.6278,3.6138,3.6376,0.0,3.3762,3.2988,0.0,0.0,0.0,0.0,0.0,0.0,0.0,0.0,0.0,0.0,0.0,0.0,0.0,0.0,0.0,0.0,0.0,0.0,0.0,0.0,0.0,0.0,3.237,3.1981,3.2465,3.3333,3.4474,3.3818,3.3257,3.4015,3.5676,3.7168,0.0,0.0,0.0,0.0,0.0,0.0,4.3128,4.4875,4.6195,4.6472,4.7865,4.8267,4.713,4.704,4.6459,4.5078,4.2923,4.11,3.9774,3.74,0.0,0.0,0.0,0.0,0.0,0.0,0.0,0.0,0.0,0.0,0.0,0.0,0.0,0.0,0.0,0.0,0.0,0.0,0.0,0.0,0.0,0.0,0.0,0.0,0.0,0.0,0.0,0.0,0.0,2.9204,3.0506,3.2411,3.0937,3.0262,0.0,0.0,0.0,0.0,0.0,0.0,0.0,0.0,0.0,3.258,3.3851,3.4573,3.459,3.5057,3.5572,3.6064,3.6504,3.6873,3.7122,3.7767,3.7967,3.7767,3.8116,3.7633,3.6442,3.5022,3.43,3.4048,0.0,0.0,0.0,0.0,3.143,3.1331,3.1406,3.1323,3.1249,3.1571,0.0,0.0,0.0,0.0,0.0,0.0,0.0,3.2797,3.2763,3.3203,3.3518,3.2998,3.3384,3.4308,3.5897,3.58,3.5878,3.7489,3.9287,4.0752,4.136,4.2187,0.0,0.0,0.0,4.4269,4.4865,4.5786,4.683,4.7926,4.8655,4.891,4.8446,4.8057,4.7459,4.6471,4.468,4.2767,4.0701,3.8379,3.5574,0.0,0.0,0.0,0.0,0.0,0.0,0.0,0.0,0.0,0.0,0.0,0.0,0.0,0.0,0.0,0.0,0.0,0.0,0.0,0.0,0.0,0.0,0.0,0.0,0.0,0.0,0.0,0.0,3.2066,3.3351,3.5642,3.3955,3.3008,0.0,0.0,0.0,0.0,0.0,0.0,3.2172,3.3336,3.4061,3.4149,3.5618,3.653,3.6726,3.692,3.7136,3.7448,3.7983,3.8226,3.8355,3.9139,3.9417,3.9206,3.9417,3.9352,3.8858,3.7019,3.5887,3.5303,3.4901,3.4399,3.3872,3.3445,3.3208,3.3084,3.3419,3.341,3.3305,3.3608,3.3829,3.3928,3.3689,0.0,0.0,0.0,0.0,3.413,3.4264,3.4435,3.4483,3.4023,3.4291,3.511,3.6597,3.7379,3.8449,4.0516,4.1796,4.2926,4.4052,4.4356,0.0,4.5082,4.5285,4.5533,4.6032,4.618,4.6798,4.8308,4.8666,4.8921,4.9073,4.8775,4.8373,4.776,4.5986,4.4051,4.1959,3.9479,3.6837,3.3897,0.0,0.0,0.0,0.0,0.0,0.0,0.0,0.0,0.0,0.0,0.0,0.0,0.0,0.0,0.0,0.0,0.0,0.0,0.0,0.0,0.0,0.0,0.0,0.0,0.0,0.0,0.0,0.0,0.0,3.7055,3.5683,0.0,0.0,0.0,0.0,3.4139,3.4615,3.5043,3.5253,3.5376,3.5892,3.6947,3.7333,3.7521,3.7521,3.8302,3.8809,3.9102,3.9637,3.9989,4.0286,4.0311,4.0311,4.0311,4.0311,4.0528,4.0649,3.8985,3.7792,3.7061,3.7036,3.6709,3.6232,3.6229,3.6204,3.6157,3.5924,3.5854,3.5759,3.5448,3.5769,3.6064,3.5308,3.5258,0.0,0.0,3.4501,3.4548,3.4125,3.4606,3.509,3.48,3.516,3.5743,3.6455,3.8341,4.0251,4.1654,4.1625,4.2119,4.444,0.0,4.5808,4.5837,4.6359,4.6534,4.5998,4.612,4.6562,4.7206,4.8096,4.8571,4.8525,4.9103,4.9254,4.8862,4.582,4.3969,4.3661,4.0459,3.7271,3.434,3.4073,0.0,0.0,0.0,0.0,0.0,0.0,0.0,0.0,0.0,0.0,0.0,0.0,0.0,0.0,0.0,0.0,0.0,0.0,0.0,0.0,0.0,0.0,0.0,0.0,0.0,0.0,0.0,0.0,3.6018,3.5573,0.0,3.685,3.6233,3.5926,3.6377,3.6776,3.7022,3.7169,3.7782,3.8295,3.853,3.9173,3.9336,3.915,3.9431,3.9625,3.9734,4.0072,4.0314,4.0449,4.0933,4.1103,4.0959,4.1103,4.1188,4.112,4.0474,3.9904,3.9295,3.8944,3.8693,3.8517,3.8517,3.8392,3.8191,3.7888,3.771,3.7557,3.7227,3.7245,3.7294,3.6659,3.6565,3.6567,3.6273,3.6275,3.6251,3.6124,3.6269,3.644,3.6338,3.6747,3.7488,3.8632,3.9738,4.1154,4.3067,4.3815,4.4447,4.5506,4.6102,4.6505,4.6505,4.633,4.6272,4.6475,4.655,4.6774,4.7161,4.7913,4.8387,4.8571,4.8732,4.8984,4.9284,4.7315,4.5336,4.3556,4.2177,3.9631,3.5711,3.5991,3.5332,0.0,0.0,0.0,0.0,0.0,0.0,0.0,0.0,0.0,0.0,0.0,0.0,0.0,0.0,0.0,0.0,0.0,0.0,0.0,0.0,0.0,0.0,0.0,0.0,0.0,3.4436,3.5657,3.6246,3.646,3.6908,3.7826,3.7802,3.7967,3.8413,3.8753,3.8918,3.8761,3.9369,3.9726,3.9813,4.0404,4.0769,4.0828,4.0886,4.0926,4.0926,4.1118,4.1196,4.1196,4.1765,4.1934,4.176,4.1934,4.1849,4.1646,4.1783,4.1577,4.1118,4.0473,4.0249,4.0249,4.0249,4.0145,3.9885,3.929,3.8977,3.8688,3.8152,3.7974,3.7878,3.7348,3.7204,3.7156,3.6988,3.706,3.7204,3.7204,3.7469,3.7733,3.7733,3.8286,3.905,3.9986,4.0518,4.1176,4.2733,4.4047,4.5099,4.5713,4.6215,4.6691,4.7124,4.6599,4.6505,4.73,4.6708,4.6289,4.6703,4.6953,4.7407,4.8236,4.8705,4.8975,4.9116,4.8072,4.6266,4.3678,4.2997,4.1138,3.7789,3.7418,3.6533,3.5067,0.0,0.0,0.0,0.0,0.0,0.0,0.0,0.0,0.0,0.0,0.0,0.0,0.0,0.0,0.0,0.0,0.0,0.0,0.0,0.0,0.0,0.0,0.0,3.3524,3.4982,3.6595,3.7923,3.8371,3.9086,4.0158,3.9931,3.9869,4.0156,4.0624,4.0676,4.0074,4.0099,4.0342,4.0877,4.1127,4.1658,4.2399,4.2697,4.2819,4.2819,4.2843,4.2843,4.2843,4.2867,4.2867,4.2867,4.2843,4.2673,4.2482,4.283,4.2799,4.2488,4.1668,4.1326,4.1326,4.1326,4.1326,4.1222,4.0162,3.9589,3.9223,3.8369,3.807,3.795,3.7421,3.7252,3.7132,3.6603,3.6843,3.7252,3.7252,3.8046,3.8839,3.8864,3.9657,4.0403,4.0459,4.0459,4.0548,4.0779,4.2161,4.3638,4.4961,4.5676,4.6481,4.7681,4.7232,0.0,4.8431,4.6446,4.5198,4.5866,4.5372,4.575,4.7637,4.9001,4.9326,4.8418,4.7989,4.6624,4.4086,4.2786,4.1544,4.0259,3.8227,3.6016,3.3548,0.0,0.0,0.0,0.0,0.0,0.0,0.0,0.0,0.0,0.0,0.0,0.0,0.0,0.0,0.0,0.0,0.0,0.0,0.0,0.0,0.0,3.4209,3.4969,3.4047,3.5647,3.7053,3.7394,3.8581,3.9525,3.9829,4.03,4.0674,4.0972,4.1212,4.1509,4.1728,4.2141,4.2375,4.2579,4.2608,4.2635,4.2662,4.2747,4.2819,4.2819,4.312,4.3313,4.3313,4.3721,4.3914,4.389,4.3481,4.3639,4.4135,4.3806,4.3801,4.3826,4.2662,4.2202,4.2202,4.2202,4.2202,4.2121,4.1607,4.1254,4.0869,4.0467,4.0042,3.9633,3.9104,3.8671,3.8262,3.7709,3.795,3.8359,3.8359,3.8888,3.9489,3.9874,4.0186,4.0548,4.1194,4.1336,4.1458,4.1742,4.1825,4.2133,4.3041,4.447,4.5505,4.5421,4.5484,4.5694,4.6038,4.5813,4.604,4.7143,4.7085,4.7404,4.8391,4.9204,4.9075,4.7525,4.7225,4.5912,4.3404,4.2679,4.1174,3.8821,3.8115,3.685,0.0,0.0,0.0,0.0,0.0,0.0,0.0,0.0,0.0,0.0,0.0,0.0,0.0,0.0,0.0,0.0,0.0,0.0,0.0,0.0,0.0,0.0,3.5147,3.5928,3.5618,3.6603,3.7566,3.8016,3.9244,4.03,4.1003,4.1584,4.2084,4.251,4.2463,4.2549,4.2725,4.3006,4.3214,4.3312,4.3312,4.3373,4.3433,4.3433,4.3433,4.3433,4.3938,4.4202,4.4202,4.4756,4.4957,4.4933,4.4659,4.4649,4.4908,4.4717,4.4634,4.456,0.0,0.0,0.0,0.0,4.2772,4.2584,4.197,4.1573,4.1185,4.0797,4.0419,4.0018,3.9705,3.9537,3.9417,3.908,3.9393,3.9746,3.9467,3.9736,4.0083,3.9949,4.0253,4.0693,4.0999,4.0869,4.0849,4.138,4.0871,0.0,4.1312,4.2602,4.3861,4.4642,4.4514,4.4715,4.5865,4.5577,4.5562,4.6307,4.6321,4.6447,4.688,4.7987,0.0,0.0,0.0,4.5554,4.2928,4.2338,0.0,0.0,0.0,3.788,3.6088,3.648,0.0,0.0,3.2601,3.2206,0.0,0.0,0.0,0.0,0.0,0.0,0.0,0.0,0.0,0.0,0.0,0.0,0.0,0.0,0.0,0.0,3.6158,3.727,3.7667,3.789,3.8362,3.931,4.0217,4.1379,4.278,4.3198,4.3623,4.4135,4.3924,4.3594,4.337,4.3311,0.0,0.0,0.0,4.3842,4.4285,4.4285,4.4285,4.4285,4.4885,4.5149,4.5173,4.5838,4.6102,4.6102,4.6054,4.579,4.5405,4.5649,4.5483,4.5035,4.496,4.4655,4.4184,4.3639,4.3301,4.2872,4.1857,0.0,0.0,4.0456,4.012,3.9874,3.9874,4.0162,4.0475,4.0475,4.086,4.1153,4.0433,4.0587,4.0644,3.9528,4.0032,4.061,4.013,3.9603,3.9504,4.0081,3.9678,3.9379,3.9861,4.0696,4.2095,4.4555,4.3873,4.3946,4.6342,4.5188,4.4246,4.4536,4.4468,0.0,4.4616,4.6175,4.6109,4.3756,4.5166,4.4995,4.2569,4.1811,4.0854,3.9648,3.9574,3.8631,3.6862,3.6277,3.5861,3.5589,3.5113,3.4501,0.0,0.0,0.0,0.0,0.0,0.0,0.0,0.0,0.0,0.0,0.0,0.0,0.0,0.0,0.0,3.6329,3.7962,3.8939,3.831,3.9623,4.0537,4.0267,4.163,4.2524,4.26,4.3432,4.4017,4.4024,4.4012,4.3941,4.4071,4.4096,4.4082,4.4117,4.4117,4.4189,4.4285,4.4285,4.4285,4.4285,4.5245,0.0,4.5814,4.6752,4.7185,4.7161,4.6752,4.6752,4.7016,4.6648,4.6601,4.664,4.5353,4.4744,4.4658,4.4061,4.3752,4.3477,4.2964,4.254,4.2083,4.2214,4.1928,4.1509,4.1509,4.1293,0.0,4.1028,4.1413,4.1705,4.0976,4.0869,4.0797,4.0025,3.9712,3.9485,3.8919,3.8735,3.8724,3.8906,3.9426,3.9752,3.9691,4.0717,4.1802,4.2345,4.2498,4.2733,4.3253,4.2787,4.3259,4.5426,4.5581,4.5476,4.5385,4.6476,4.5801,4.2654,4.2582,4.2313,4.1583,4.0324,3.958,3.9277,3.8679,3.7939,3.7139,3.6526,3.6006,3.5604,3.5517,3.5355,0.0,0.0,0.0,0.0,0.0,0.0,0.0,0.0,0.0,0.0,0.0,3.4345,3.5671,0.0,3.6675,3.7968,3.868,3.9165,3.9539,4.0758,4.1471,4.1095,4.24,4.3399,4.3498,4.4112,4.4462,4.4427,4.4244,4.4181,4.4261,4.4285,4.4285,4.4285,4.4285,4.4285,4.4285,4.4285,4.4429,4.4693,4.5549,4.6054,4.6343,4.7136,4.7497,4.7497,4.7233,4.7257,4.7473,4.7209,4.7178,4.7254,4.619,4.5527,4.5119,4.4585,4.4026,4.3576,4.3273,4.2947,4.2635,4.2901,4.271,4.2316,4.1936,4.1876,4.1757,4.1458,4.1586,4.1677,4.0923,4.0617,4.022,3.9241,3.9138,3.9061,3.8503,3.839,3.8498,3.8885,3.8813,3.8911,3.9409,4.0198,4.1026,4.1776,4.2515,4.2918,4.2841,4.2714,4.2876,4.351,4.3755,4.3537,4.269,4.3459,4.3441,4.1998,4.2028,4.1768,4.1052,4.0348,3.9825,3.9419,3.8725,3.8246,3.7898,3.7369,3.6982,3.6657,3.6647,3.6127,0.0,0.0,0.0,0.0,0.0,0.0,0.0,3.2802,3.3399,3.4328,3.4988,3.5868,3.7472,3.7202,3.7421,3.9268,3.9213,3.9423,4.0779,4.168,4.2201,4.1986,4.3081,4.3993,4.435,4.4646,4.4779,4.4717,4.447,4.4285,4.4285,4.4285,4.4285,4.4285,4.4285,4.4285,4.4285,4.4285,4.4501,4.4933,4.5718,4.6247,4.6583,4.7329,4.7593,4.7497,4.7497,4.7497,4.7497,4.7497,4.7497,4.7473,4.704,4.64,4.5736,4.5105,4.4339,4.3625,4.3457,4.318,4.2988,4.3348,4.3252,4.2952,4.2202,4.2301,4.2482,4.1768,4.1558,4.1433,4.063,4.0101,3.9444,3.8389,3.8459,3.8647,3.8185,3.8118,3.8335,3.9012,3.8471,3.8235,3.9186,3.989,4.0635,4.1679,4.25,4.2919,4.284,4.2684,4.2214,4.1204,4.1621,4.1389,4.0004,4.0536,4.1136,4.1502,4.2188,4.2184,4.1233,4.1056,4.07,4.0066,3.9426,3.9022,3.892,3.8274,3.7937,3.7816,3.7702,3.6802,3.1311,3.2122,3.3083,3.2906,3.3211,3.3738,0.0,3.4726,3.5284,3.6587,3.7284,3.777,3.8222,3.9004,3.9569,3.9614,4.0354,4.1083,4.146,4.2433,4.3117,4.3253,4.3988,4.4326,4.4098,4.4524,4.4656,4.4347,4.4347,4.4285,4.4285,4.4285,4.4285,4.4285,4.4285,4.4285,4.4285,4.4285,4.4309,4.4381,4.5934,4.6415,4.6054,4.7521,4.7954,4.7497,4.7497,4.7497,4.7497,4.7497,4.7497,4.7497,4.7425,4.704,4.648,4.5405,4.4708,4.4189,4.4202,4.3842,4.3505,4.401,4.4178,4.3969,4.3349,4.3185,4.3013,4.1884,4.1558,4.1342,4.0265,3.9584,3.902,3.824,3.7828,3.7561,3.7517,3.7495,3.7676,3.8276,3.8957,3.9441,3.9334,4.0645,4.1502,4.1051,4.101,4.1118,4.1064,4.0439,4.0196,4.0774,4.1314,4.1484,4.1053,4.111,4.109,4.0916,4.2272,4.2982,4.2614,4.2097,4.1832,4.1701,4.0595,4.0046,4.0,3.8821,3.8253,3.8238,3.7701,3.7398,3.1603,3.2175,3.3017,3.3725,3.4306,3.4797,3.5356,3.606,3.6691,3.7112,3.8118,3.899,3.9099,3.9702,4.041,4.091,4.1428,4.1856,4.2272,4.2914,4.3409,4.3481,4.4001,4.4317,4.4194,4.4412,4.447,4.4285,4.4285,4.4285,4.4285,4.4285,4.4285,4.4285,4.4285,4.4285,4.4285,4.4597,4.5053,4.5678,4.6391,4.692,4.7305,4.7666,4.7714,4.7497,4.7497,4.7497,4.7497,4.7497,4.7497,4.7473,4.7161,4.692,4.6631,4.5862,4.5197,4.4693,4.4405,4.4141,4.3911,4.3755,4.3701,4.3467,4.216,4.1754,4.1451,4.0262,3.9802,3.9472,3.9002,3.8481,3.8045,3.7741,3.7527,3.7374,3.7374,3.7374,3.7495,3.7736,3.8074,3.8432,3.8693,3.9298,3.9837,3.9898,4.0765,4.141,4.1268,4.0957,4.0692,4.0568,4.0501,4.0424,4.0525,4.0512,4.0721,4.1242,4.1922,4.2462,4.2795,4.2602,4.2482,4.2482,4.1247,4.0597,4.0542,3.9281,3.8697,3.8596,3.835,3.8253,3.2322,3.2866,3.3601,3.463,3.5284,3.5865,3.6398,3.7245,3.7944,3.8075,3.8888,3.9705,3.9994,4.0234,4.0739,4.1798,4.1966,4.2206,4.288,4.3289,4.3577,4.3721,4.4045,4.4285,4.4285,4.4285,4.4285,4.4285,4.4285,4.4285,4.4285,4.4285,4.4285,4.4285,4.4429,4.4501,4.4501,4.5029,4.5742,4.6487,4.68,4.7257,4.7858,4.7617,4.7497,4.7497,4.7497,4.7497,4.7497,4.7497,4.7497,4.7473,4.7088,4.6944,4.6872,4.6343,4.5814,4.5221,4.4693,4.4343,4.3927,4.3286,4.2872,4.2397,4.0841,4.0415,4.02,3.896,3.8379,3.8073,3.7942,3.7636,3.7374,3.7374,3.7374,3.7374,3.7374,3.7374,3.7374,3.7374,3.7374,3.7555,3.7998,3.8036,3.8216,3.8693,3.9861,4.0765,4.0928,4.11,4.098,4.0416,4.0146,4.0081,4.0079,4.0401,4.0837,4.1435,4.1871,4.2393,4.2988,4.312,4.3132,4.2951,4.1821,4.1152,4.0927,3.9881,3.932,3.9231,3.9231,3.9231,3.3859,3.4989,3.5891,3.5915,3.6565,3.7252,3.7834,3.8359,3.9056,4.009,3.9922,3.9922,4.0956,4.0739,4.0739,4.1798,4.1966,4.2327,4.3337,4.3505,4.3721,4.4189,4.4285,4.4285,4.4285,4.4285,4.4285,4.4285,4.4285,4.4285,4.4285,4.4285,4.4285,4.4285,4.4789,4.5053,4.5053,4.5645,4.591,4.5958,4.6992,4.7233,4.6776,4.7281,4.7497,4.7497,4.7497,4.7497,4.7497,4.7497,4.7497,4.7497,4.7473,4.7473,4.7425,4.6896,4.6367,4.5814,4.5221,4.438,4.3357,4.2776,4.1853,4.0846,4.0146,3.9899,3.9663,3.8455,3.8117,3.8008,3.7527,3.7396,3.7374,3.7374,3.7374,3.7374,3.7374,3.7374,3.7374,3.7374,3.7374,3.7374,3.7435,3.7435,3.7435,3.7435,3.7495,3.7976,3.9226,3.9873,4.0223,4.0199,4.0779,4.0932,4.0403,4.1374,4.176,4.122,4.2615,4.3457,4.3481,4.3949,4.3989,4.3279,4.2627,4.1929,4.1271,4.0603,4.0279,4.0236,4.0236,4.0236,3.3594,3.4786,3.6232,3.7108,3.7786,3.8407,3.8936,3.9489,3.9753,3.9417,4.0042,4.0547,4.0186,4.1124,4.2086,4.2506,4.3096,4.3673,4.3949,4.3997,4.4069,4.4261,4.4285,4.4285,4.4285,4.4285,4.4285,4.4285,4.4285,4.4285,4.4285,4.4621,4.4813,4.4813,4.5381,4.539,4.4941,4.5916,4.6347,4.6243,4.749,4.7738,4.7233,4.7425,4.7497,4.7497,4.6965,4.7032,4.7431,4.6965,4.7098,4.7497,4.7497,4.7232,4.6741,4.6551,4.6119,4.5439,4.5031,4.4222,4.3216,4.2109,4.1052,4.0056,3.9002,3.8706,3.8557,3.7828,3.7614,3.7593,3.7418,3.7374,3.7374,3.7374,3.7374,3.7374,3.7374,3.7374,3.7374,3.7374,3.7374,3.7374,3.7374,3.7374,3.7374,3.7374,3.7736,3.8156,3.8574,3.9167,3.9579,3.9579,4.0165,4.0442,4.0277,4.0679,4.1148,4.1677,4.1435,4.1603,4.235,4.2136,4.1923,4.1677,4.1057,4.062,4.037,3.9636,3.9318,3.9318,3.9318,3.9318,3.4598,3.5879,3.7263,3.8323,3.8839,3.9248,3.9753,4.0138,4.0258,3.9753,4.0475,4.11,4.0787,4.1677,4.2651,4.2976,4.3601,4.3997,4.3997,4.4165,4.4285,4.4285,4.4285,4.4285,4.4285,4.4285,4.4285,4.4285,4.4285,4.4357,4.4549,4.4885,4.5149,4.5342,4.5677,4.5551,4.5071,4.6072,4.6566,4.6405,4.6961,4.7072,4.6674,4.6674,4.6674,4.6674,4.5775,4.5685,4.609,4.5617,4.5685,4.618,4.654,4.6405,4.6001,4.6001,4.5731,4.5254,4.4639,4.3798,4.2668,4.1253,4.0092,3.9086,3.8108,3.7855,3.7789,3.7461,3.7374,3.7374,3.7374,3.7374,3.7374,3.7374,3.7374,3.7374,3.7374,3.7374,3.7374,3.7374,3.7374,3.7374,3.7374,3.7374,3.7374,3.7374,3.7736,3.7976,3.7976,3.8537,3.8953,3.8953,3.9521,3.9873,3.9873,3.9941,4.0324,4.0987,4.0481,4.0455,4.1168,4.1014,4.08,4.0555,4.0124,3.9752,3.9503,3.9026,3.8775,3.8775,3.8775,3.8775,3.681,3.8162,3.896,3.9513,3.9657,3.9777,4.0306,4.0427,4.0571,4.1052,4.1172,4.1485,4.2554,4.2362,4.2351,4.3337,4.3529,4.3553,4.3553,4.3949,4.4285,4.4285,4.4285,4.4285,4.4285,4.4285,4.4285,4.4285,4.4309,4.4549,4.5053,4.5125,4.539,4.5894,4.5746,4.5611,4.5544,4.6037,4.6271,4.6338,4.5663,4.5301,4.5278,4.5301,4.5233,4.5142,4.4001,4.3517,4.3517,4.3448,4.3517,4.3656,4.4686,4.5096,4.5051,4.5051,4.5028,4.4868,4.3954,4.2963,4.1873,4.0392,3.9069,3.8008,3.7527,3.7374,3.7374,3.7374,3.7374,3.7374,3.7374,3.7374,3.7374,3.7374,3.7374,3.7374,3.7374,3.7374,3.7374,3.7374,3.7374,3.7374,3.7374,3.7374,3.7374,3.7374,3.7374,3.7374,3.7374,3.7916,3.8216,3.8216,3.8834,3.9249,3.9249,3.9308,3.9308,3.9308,3.9744,4.002,4.002,4.0479,4.0425,3.9809,3.9809,3.9437,3.8709,3.8709,3.8709,3.8709,3.8709,3.8709,3.7321,3.8201,3.9032,3.997,4.0186,4.0331,4.086,4.098,4.0908,4.0643,4.0908,4.1268,4.1533,4.211,4.276,4.3409,4.3866,4.4069,4.4069,4.4189,4.4285,4.4285,4.4285,4.4285,4.4285,4.4285,4.4285,4.4285,4.4645,4.4933,4.5053,4.5886,4.6108,4.5704,4.6002,4.568,4.4596,4.4709,4.5051,4.5595,4.5392,4.5117,4.4773,4.514,4.4619,4.3441,4.297,4.2613,4.2312,4.1771,4.1841,4.2382,4.2683,4.2403,4.1933,4.1933,4.1439,4.071,4.0921,4.1505,4.1853,4.0224,3.8982,3.8008,3.7527,3.7374,3.7374,3.7374,3.7374,3.7374,3.7374,3.7374,3.7374,3.7374,3.7374,3.7374,3.7374,3.7374,3.7374,3.7374,3.7374,3.7374,3.7374,3.7374,3.7374,3.7374,3.7374,3.7374,3.7374,3.7555,3.7616,3.7616,3.8156,3.8514,3.8514,3.9012,3.9308,3.9308,3.8948,3.8777,3.8777,3.8468,3.8232,3.805,3.805,3.7928,3.7745,3.7745,3.7745,3.7745,3.7745,3.7745,3.8096,3.8817,3.9417,4.0475,4.0739,4.0812,4.1124,4.1172,4.1028,4.0499,4.1004,4.1533,4.1533,4.2265,4.2916,4.3144,4.3625,4.3767,4.3245,4.3812,4.4161,4.3888,4.4099,4.4285,4.4285,4.4285,4.4381,4.4621,4.4909,4.5173,4.5477,4.6271,4.6627,4.6447,4.613,4.5392,4.4228,4.3905,4.4112,4.4778,4.4278,4.3894,4.3624,4.3194,4.2626,4.1874,4.0758,4.0258,4.0136,3.9746,3.9798,4.0208,4.0728,4.0657,4.032,4.032,4.0105,3.9795,3.9917,4.07,4.1352,4.0057,3.9034,3.8335,3.7855,3.7549,3.7374,3.7374,3.7374,3.7374,3.7374,3.7374,3.7374,3.7374,3.7374,3.7374,3.7374,3.7374,3.7374,3.7374,3.7374,3.7374,3.7374,3.7374,3.7374,3.7374,3.7374,3.7374,3.7374,3.7374,3.7374,3.7374,3.7676,3.7916,3.7916,3.8216,3.8455,3.8455,3.8096,3.7916,3.7916,3.7555,3.7374,3.7374,3.7374,3.7374,3.7374,3.7374,3.7374,3.7374,3.7374,3.7374,3.8807,3.9561,3.985,4.0836,4.1076,4.1076,4.1076,4.1028,4.0836,4.0379,4.1028,4.1677,4.1749,4.2193,4.2554,4.2699,4.3012,4.2901,4.1939,4.3085,4.3826,4.3263,4.3764,4.4161,4.4161,4.4013,4.4165,4.469,4.4595,4.5007,4.5942,4.6405,4.6753,4.7074,4.5731,4.4709,4.4112,4.3511,4.3489,4.3932,4.2754,4.217,4.2037,4.0621,4.0063,4.0137,3.8255,3.7571,3.7751,3.7751,3.7751,3.7897,3.8846,3.9169,3.9181,3.9181,3.9577,4.0049,3.9606,4.0007,4.0562,3.9842,3.9274,3.8838,3.827,3.7811,3.7461,3.7396,3.7374,3.7374,3.7374,3.7374,3.7374,3.7374,3.7374,3.7374,3.7374,3.7374,3.7374,3.7374,3.7374,3.7374,3.7374,3.7374,3.7374,3.7374,3.7374,3.7374,3.7374,3.7374,3.7374,3.7374,3.7374,3.7374,3.7374,3.7374,3.7374,3.7374,3.7374,3.7374,3.7374,3.7374,3.7374,3.7374,3.7374,3.7374,3.7374,3.7374,3.7374,3.7374,3.7374,3.7374,3.8689,3.9272,3.9753,4.0379,4.0523,4.0523,4.0523,4.0186,3.985,3.9753,3.9898,4.0138,4.0595,4.0739,4.11,4.1966,4.2066,4.2094,4.2301,4.2552,4.261,4.2483,4.3051,4.3451,4.3451,4.265,4.2326,4.2742,4.2169,4.3171,4.6405,4.6471,4.5908,4.4778,4.3974,4.3511,4.3372,4.3254,4.3035,4.2667,4.1615,4.0827,4.0378,3.963,3.8737,3.7819,3.7846,3.74,3.6497,3.6497,3.6497,3.6497,3.6719,3.6588,3.629,3.629,3.6523,3.6836,3.6758,3.7746,3.9165,3.9476,3.9557,3.9253,3.8379,3.8051,3.7898,3.7483,3.7374,3.7374,3.7374,3.7374,3.7374,3.7374,3.7374,3.7374,3.7374,3.7374,3.7374,3.7374,3.7374,3.7374,3.7374,3.7374,3.7374,3.7374,3.7374,3.7374,3.7374,3.7374,3.7374,3.7374,3.7374,3.7374,3.7374,3.7374,3.7374,3.7374,3.7374,3.7374,3.7374,3.7374,3.7374,3.7374,3.7374,3.7374,3.7374,3.7374,3.7374,3.7374,3.7374,3.7374,3.8671,3.9008,3.932,3.985,3.9994,3.9994,3.9994,3.9777,3.9441,3.8888,3.8984,3.9272,3.9537,3.9585,4.0018,4.1341,4.1223,4.1054,4.1483,4.1768,4.1891,4.1761,4.2356,4.2799,4.2799,4.1802,4.1452,4.2125,4.1325,4.1651,4.3647,4.3938,4.4114,4.4159,4.3328,4.2801,4.2791,4.2214,4.1679,4.1208,4.0104,3.9425,3.9171,3.8237,3.7604,3.7172,3.6894,3.6533,3.6201,3.6201,3.6201,3.6182,3.5981,3.5779,3.5595,3.5394,3.556,3.5997,3.5997,3.6807,3.7868,3.8124,3.8483,3.8723,3.8864,3.8114,3.7372,3.7689,3.7571,3.7374,3.7374,3.7374,3.7374,3.7374,3.7374,3.7374,3.7374,3.7374,3.7374,3.7374,3.7374,3.7374,3.7374,3.7374,3.7374,3.7374,3.7374,3.7374,3.7374,3.7593,3.7658,3.7396,3.7374,3.7374,3.7374,3.7374,3.7374,3.7374,3.7614,3.7745,3.7745,3.8008,3.8139,3.8139,3.8139,3.8139,3.8139,3.8139,3.8139,3.8139,3.7876,3.7745,3.8479,3.8719,3.8912,3.932,3.9441,3.9417,3.9296,3.9176,3.8815,3.7853,3.7998,3.8262,3.8166,3.831,3.8888,4.0138,4.0178,4.0094,4.0341,4.0914,4.1279,4.0963,4.161,4.2102,4.2102,4.0904,4.0498,4.1412,4.0335,4.0035,4.0989,4.1418,4.2144,4.3167,4.2269,4.1775,4.171,4.0772,4.0125,3.9681,3.8595,3.8097,3.8107,3.6907,3.6637,3.6944,3.609,3.5925,3.6201,3.6109,3.6072,3.6036,3.565,3.543,3.532,3.5009,3.5332,3.5862,3.5585,3.6181,3.6951,3.6702,3.713,3.7877,3.8658,3.7912,3.6918,3.7711,3.7801,3.7619,3.7436,3.7375,3.7375,3.7375,3.7497,3.768,3.768,3.768,3.768,3.768,3.768,3.768,3.768,3.768,3.768,3.768,3.768,3.768,3.768,3.8029,3.8117,3.7724,3.768,3.768,3.768,3.768,3.768,3.768,3.8051,3.827,3.827,3.8619,3.8775,3.8775,3.8775,3.8775,3.8775,3.8775,3.8775,3.8775,3.8444,3.8208,3.7926,3.8431,3.8815,3.8888,3.8888,3.8767,3.8238,3.7757,3.7252,3.6675,3.6603,3.6483,3.6002,3.6699,3.7397,3.7541,3.8627,3.9418,3.9331,4.005,4.0386,3.9794,4.0704,4.138,4.138,3.954,3.8641,3.9509,3.7734,3.7836,4.0666,4.085,4.0678,4.0126,3.9648,3.9424,3.9384,3.8908,3.8636,3.8526,3.7477,3.7106,3.7259,3.6195,3.5926,3.6294,3.622,3.6182,3.6182,3.5815,3.5669,3.5632,3.5247,3.4844,3.4513,3.4477,3.4883,3.5352,3.4338,3.5333,3.6836,3.5889,3.6276,3.7052,3.6714,3.7167,3.7672,3.7381,3.7952,3.8434,3.7445,3.7192,3.7192,3.7192,3.7972,3.8644,3.8644,3.8644,3.8644,3.8644,3.8644,3.8644,3.8644,3.8644,3.8644,3.8644,3.8644,3.8644,3.8644,3.8688,3.875,3.8707,3.8644,3.8644,3.8644,3.8644,3.8644,3.8644,3.8688,3.8772,3.8772,3.8816,3.8775,3.8775,3.8775,3.8775,3.8775,3.8775,3.8775,3.8775,3.8794,3.8584,3.7192,3.7661,3.7902,3.8238,3.7829,3.73,3.7084,3.6386,3.5617,3.5088,3.4992,3.4967,3.5112,3.5232,3.5809,3.7397,3.7898,3.8503,4.0023,4.0487,4.0666,4.0615,4.0988,4.0906,3.9866,3.8308,3.7265,3.6765,3.64,3.6608,3.7639,3.787,3.8398,3.9312,3.8489,3.8153,3.8315,3.7768,3.7269,3.6964,3.6337,3.6101,3.627,3.6073,3.6054,3.6201,3.6201,3.6072,3.5852,3.5687,3.5485,3.5229,3.4807,3.455,3.4367,3.4128,3.4223,3.4352,3.3955,3.4352,3.5021,3.454,3.4765,3.5275,3.6368,3.6396,3.6202,3.7328,3.7292,3.7083,3.7911,3.7721,3.719,3.719,3.7509,3.8038,3.8649,3.8775,3.8775,3.8775,3.8775,3.8775,3.8775,3.8775,3.8775,3.8775,3.8775,3.8775,3.8775,3.9078,3.9274,3.9274,3.9012,3.8775,3.8775,3.8249,3.7848,3.7848,3.7463,3.7307,3.7307,3.7577,3.7722,3.7722,3.7722,3.8049,3.8721,3.8721,3.9045,3.9689,3.9406,3.9062,3.5939,3.6613,3.706,3.7421,3.6843,3.6098,3.5785,3.5016,3.4174,3.3477,3.3477,3.3599,3.3815,3.4055,3.4822,3.6733,3.7263,3.8036,3.9953,4.0545,4.0854,4.0841,4.1248,4.0736,3.888,3.7638,3.6325,3.5062,3.565,3.5907,3.5632,3.5779,3.6436,3.7857,3.6956,3.6668,3.6955,3.6412,3.5996,3.5887,3.5701,3.5541,3.5429,3.5924,3.5903,3.553,3.585,3.5723,3.523,3.5212,3.51,3.4807,3.4385,3.422,3.4202,3.3908,3.3817,3.3817,3.3817,3.3817,3.3817,3.3817,3.3817,3.4075,3.5568,3.5491,3.5258,3.6754,3.64,3.5896,3.7415,3.72,3.6681,3.6681,3.6876,3.7415,3.853,3.8743,3.8871,3.9189,3.9253,3.9253,3.9253,3.9253,3.9253,3.9253,3.9253,3.9253,3.9253,3.9302,3.9304,3.9304,3.868,3.8402,3.8743,3.7738,3.7156,3.7156,3.6724,3.6509,3.6509,3.681,3.6991,3.6991,3.6991,3.7528,3.8681,3.835,3.8946,4.0257,3.9671,3.9239,3.3973,3.527,3.6411,3.6411,3.6026,3.5352,3.4246,3.3669,3.2996,3.1958,3.213,3.2378,3.1828,3.3434,3.4796,3.4846,3.6601,3.8144,3.8554,3.9919,4.0611,3.9916,4.1114,4.1154,3.8922,3.743,3.6204,3.5099,3.5394,3.5632,3.5614,3.5247,3.5045,3.5027,3.4623,3.4605,3.5027,3.4605,3.4807,3.5614,3.5614,3.5374,3.4989,3.5829,3.5306,3.3861,3.5116,3.5175,3.4442,3.4395,3.4403,3.4367,3.3982,3.3817,3.3817,3.3817,3.3817,3.3817,3.3817,3.3817,3.3817,3.3817,3.3817,3.3817,3.3817,3.454,3.5412,3.5412,3.5412,3.5393,3.5393,3.5393,3.5393,3.5393,3.6228,3.7307,3.8461,3.8726,3.8991,4.0062,4.0257,4.0257,4.0257,4.0257,4.0257,4.0257,4.0257,4.0257,4.0257,3.9341,3.8747,3.8747,3.7729,3.7441,3.8594,3.7642,3.6971,3.6971,3.6971,3.6971,3.6971,3.6991,3.6991,3.6991,3.6991,3.7528,3.8681,3.7595,3.8129,4.0279,3.921,3.888,3.1634,3.2891,3.3866,3.4267,3.3908,3.3404,3.3068,3.201,3.0913,3.0252,3.0545,3.1003,3.1182,3.146,3.2228,3.3985,3.5165,3.6378,3.7864,3.885,3.9251,3.8872,3.7775,3.6904,3.6479,3.5851,3.5256,3.4623,3.5229,3.5504,3.5229,3.51,3.5027,3.5027,3.4899,3.4612,3.4162,3.4359,3.4264,3.3996,3.4259,3.4284,3.4163,3.4741,3.4394,3.3541,3.472,3.4324,3.2957,3.3999,3.3957,3.3264,3.3645,3.3817,3.3817,3.3817,3.3817,3.3817,3.3817,3.3817,3.3817,3.3817,3.3817,3.3817,3.3817,3.4006,3.4283,3.4283,3.5363,3.618,3.4677,3.4883,3.5412,3.5412,3.5685,3.6228,3.7327,3.8129,3.8814,3.9144,3.9801,4.0279,4.0279,4.0279,4.0279,4.0279,3.967,3.921,3.921,3.8196,3.7528,3.7528,3.6567,3.6364,3.7461,3.6499,3.5889,3.5889,3.5226,3.4834,3.4834,3.4834,3.4834,3.4834,3.4834,3.5517,3.6818,3.6475,3.7594,4.01,4.0302,4.0323,2.9122,3.071,3.1919,3.263,3.2346,3.1964,3.2136,3.1264,3.0247,2.9777,3.0071,3.0503,3.0627,3.1039,3.1842,3.3452,3.4618,3.5839,3.7054,3.7875,3.8519,3.889,3.6491,3.523,3.6201,3.5393,3.4752,3.4642,3.51,3.5357,3.5247,3.4812,3.4595,3.474,3.4595,3.4233,3.3573,3.38,3.3769,3.346,3.3683,3.3566,3.3204,3.3712,3.33,3.2258,3.3439,3.3051,0.0,3.3162,3.3318,3.2736,3.3521,3.3817,3.3817,3.3817,3.3817,3.3817,3.3817,3.3817,3.3817,3.3817,3.3817,3.3817,3.3817,3.3817,3.3817,3.3817,3.4765,3.55,3.4144,3.4283,3.4815,3.4815,3.4815,3.5089,3.6161,3.726,3.8196,3.8615,3.921,3.9691,3.9691,3.9341,3.9057,3.9057,3.8461,3.8063,3.8063,3.7126,3.6364,3.6364,3.5431,3.5089,3.5772,3.5158,3.4815,3.4815,3.4144,3.3817,3.3817,3.3817,3.389,3.4037,3.4037,3.478,3.6227,3.6646,3.748,3.8714,3.986,3.9929,0.0,2.8561,3.0189,3.1215,3.1133,3.0974,3.1478,3.1172,0.0,3.0161,3.0472,3.0648,3.016,3.166,3.3037,3.3167,3.4842,3.6135,3.6139,3.6875,3.7924,3.9196,3.6515,3.5365,3.7345,3.5661,3.455,3.4845,3.4883,3.5084,3.5376,3.4394,3.3939,3.4236,3.3918,3.3534,3.314,3.314,3.331,3.3651,3.3617,3.3053,3.2043,3.2797,3.2076,3.0341,3.1577,3.1642,3.0887,3.2174,3.2666,3.2666,3.3451,3.3817,3.3817,3.3817,3.3817,3.3817,3.3817,3.3817,3.3817,3.3817,3.3817,3.3817,3.3817,3.3817,3.3817,3.3817,3.3817,3.3817,3.3817,3.3817,3.3817,3.3817,3.3817,3.4075,3.5139,3.6161,3.7193,3.835,3.8615,3.8615,3.8615,3.7729,3.6991,3.6991,3.6944,3.6897,3.6924,3.5996,3.5314,3.5275,3.4421,3.3817,3.3817,3.3817,3.3817,3.3817,3.3817,3.3817,3.3817,3.3835,3.4018,3.4403,3.4458,3.5157,3.6527,3.7676,3.7766,3.6707,3.8167,3.8057,2.4505,0.0,2.7066,2.7657,2.8588,2.9521,0.0,3.0426,3.0162,2.9741,2.9683,2.9737,2.9645,3.0348,3.1412,3.2897,3.4187,3.5035,3.4923,3.4431,3.4266,3.4913,3.3631,3.3256,3.4813,3.4596,3.403,3.3267,3.4018,3.4333,3.3757,3.3465,3.3214,3.3062,3.2919,3.2844,3.2776,3.2776,3.2505,3.1993,3.1717,3.1464,3.1216,3.1392,3.0876,2.9991,3.1208,3.0985,2.9841,3.1859,3.2386,3.1982,3.3312,3.3817,3.3817,3.3817,3.3817,3.3817,3.3817,3.3817,3.3817,3.3817,3.3817,3.3817,3.3817,3.3817,3.3817,3.3817,3.3817,3.3817,3.3817,3.3817,3.3817,3.3817,3.3817,3.4075,3.5139,3.5617,3.6093,3.7193,3.7394,3.7394,3.7394,3.7193,3.6991,3.6991,3.6524,3.6141,3.5792,3.5079,3.4548,3.4181,3.3955,3.3817,3.3817,3.3817,3.3817,3.3817,3.3817,3.3817,3.3817,3.411,3.4312,3.4403,3.5009,3.552,3.583,3.7364,3.7953,3.7663,3.8034,3.7681,2.3496,2.4331,2.5488,2.6644,2.7875,2.9125,3.0246,3.0866,3.1001,3.0281,3.0285,3.0352,2.9899,3.0135,3.0934,3.2507,3.2955,3.3285,3.3862,3.3951,3.3892,3.4018,3.3162,3.2877,3.3636,3.336,3.2985,3.2646,3.3395,3.3769,3.3494,3.3136,3.2844,3.2588,3.2222,3.2069,3.2069,3.2069,3.1759,3.1141,3.095,3.0696,3.0378,3.0421,3.009,2.964,3.0238,3.0069,2.9441,3.0977,3.1613,3.17,3.2824,3.3521,3.3817,3.3817,3.3817,3.3817,3.3817,3.3817,3.3817,3.3817,3.3817,3.3817,3.3817,3.3817,3.3817,3.3817,3.3817,3.3817,3.3817,3.3817,3.3817,3.3817,3.3817,3.3937,3.454,3.5089,3.5549,3.6161,3.6296,3.6296,3.6296,3.584,3.5557,3.575,3.5496,3.5223,3.4979,3.4608,3.4257,3.3853,3.3817,3.3817,3.3817,3.3817,3.3817,3.3817,3.3817,3.3817,3.3817,3.4018,3.422,3.4403,3.521,3.5522,3.5357,3.6214,3.6503,3.6368,3.6409,3.5619,2.3101,2.3725,2.4762,2.651,2.7762,2.8945,3.037,3.1547,3.2081,3.1135,3.1359,3.134,3.0237,3.0632,3.14,3.233,3.1868,3.176,3.2801,3.373,3.4269,3.41,3.3293,3.2845,3.3077,3.2263,3.1936,3.2475,3.2861,3.3177,3.3407,3.2816,3.2452,3.2452,3.1763,3.1395,3.1395,3.1331,3.1157,3.093,3.0759,3.0394,2.9822,2.9774,2.9584,2.9298,2.9298,2.9298,2.9369,3.0124,3.0835,3.17,3.2386,3.3173,3.3817,3.3817,3.3817,3.3817,3.3817,3.3817,3.3817,3.3817,3.3817,3.3817,3.3817,3.3817,3.3817,3.3817,3.3817,3.3817,3.3817,3.3817,3.3817,3.3817,3.3817,3.3817,3.4006,3.4609,3.5207,3.5344,3.5275,3.5139,3.5139,3.4458,3.4,3.4275,3.4422,3.4458,3.433,3.4367,3.4257,3.3853,3.3817,3.3817,3.3817,3.3817,3.3817,3.3817,3.3817,3.3835,3.3908,3.3908,3.4092,3.4495,3.5174,3.5357,3.5027,3.4972,3.4752,3.4403,3.4116,3.2824,2.3101,2.3545,2.429,2.518,2.6536,2.7988,2.9376,3.0835,3.1646,3.1097,3.1353,3.1257,2.9725,3.1212,3.2748,3.282,3.2874,3.2574,3.1368,3.0823,3.0893,3.172,3.1198,3.118,3.2424,3.221,3.1938,3.1612,3.2276,3.2386,3.1763,3.1609,3.1609,3.1609,3.1472,3.1395,3.1395,3.1093,3.0918,3.0855,3.0267,2.9933,2.9822,2.952,2.9345,2.9298,2.9298,2.9298,2.9369,3.0124,3.0835,3.17,3.2386,3.3173,3.3817,3.3817,3.3817,3.3817,3.3817,3.3817,3.3817,3.3817,3.3817,3.3817,3.3817,3.3817,3.3817,3.3817,3.3817,3.3817,3.3817,3.3817,3.3817,3.3817,3.3817,3.4075,3.4952,3.454,3.4283,3.5207,3.4677,3.4075,3.4075,3.4162,3.422,3.3945,3.4495,3.4678,3.4,3.4202,3.4257,3.3853,3.3817,3.3817,3.3817,3.3817,3.3817,3.3817,3.3817,3.3963,3.4293,3.4312,3.4513,3.4917,3.5064,3.5082,3.5027,3.4678,3.4458,3.4385,3.2438,3.0701,2.3159,2.3859,2.4683,2.4832,2.6273,2.782,2.8653,2.9833,3.0741,3.0712,3.103,3.1068,3.0138,3.0646,3.0874,2.9744,3.1152,3.1948,3.0669,3.1259,3.1697,3.1308,3.1112,3.0995,3.1031,3.0916,3.0925,3.1092,3.1625,3.1763,3.1395,3.1395,3.1395,3.1395,3.1395,3.13,3.1109,3.0743,3.0569,3.0569,3.006,2.9727,2.9536,2.9377,2.9298,2.9298,2.9298,2.9298,2.9298,2.964,3.0496,3.163,3.1982,3.2824,3.3817,3.3817,3.3817,3.3817,3.3817,3.3817,3.3817,3.3817,3.3817,3.3817,3.3817,3.3817,3.3817,3.3817,3.3817,3.3817,3.3817,3.3817,3.3817,3.3817,3.3817,3.3955,3.4421,3.4144,3.3955,3.4421,3.4144,3.389,3.4092,3.411,3.4165,3.444,3.4747,3.4763,3.4183,3.4504,3.4467,3.3853,3.3817,3.3817,3.3817,3.3817,3.3817,3.3817,3.3817,3.389,3.4073,3.4293,3.4032,3.3127,3.3322,3.3233,3.2738,3.1841,3.1461,3.1597,2.9385,2.781,2.3315,2.4312,2.5386,2.5245,2.6608,2.8054,2.8,2.8992,2.9935,2.9854,3.0589,3.1082,3.0449,3.0219,2.9683,2.8362,2.9832,3.092,3.0136,3.1251,3.1796,3.0805,3.0787,3.0654,3.0,2.9949,3.0235,3.0934,3.1236,3.1395,3.1395,3.1395,3.1395,3.1395,3.1315,3.1141,3.0871,3.0426,3.0203,3.0203,2.9854,2.9568,2.9298,2.9298,2.9298,2.9298,2.9298,2.9369,2.9568,2.9568,3.0496,3.1841,3.1841,3.2614,3.3817,3.3817,3.3817,3.3817,3.3817,3.3817,3.3817,3.3817,3.3817,3.3817,3.3817,3.3817,3.3817,3.3817,3.3817,3.3817,3.3817,3.3817,3.3817,3.3817,3.3817,3.3817,3.3817,3.389,3.3945,3.3945,3.4037,3.4202,3.4495,3.4293,3.4275,3.4807,3.4889,3.4719,3.4345,3.4556,3.4496,3.3853,3.3817,3.3817,3.3817,3.3451,3.3242,3.3242,3.3242,3.3242,3.3242,3.3232,3.2455,3.1014,3.1182,3.1014,3.0388,2.9093,2.8583,2.8775,2.6738,2.5432,2.3633,2.484,2.6121,2.6563,2.7702,2.8416,2.7336,2.8616,2.9672,2.843,3.0028,3.1297,3.0064,3.0838,3.1826,3.2452,3.1006,2.967,2.9233,2.8593,2.8353,2.8889,2.8969,2.9297,3.0187,3.0283,3.0585,3.13,3.1379,3.1395,3.1395,3.1395,3.1395,3.1395,3.1077,3.0886,3.093,3.0187,2.9854,2.9854,2.9504,2.9329,2.9298,2.9298,2.9298,2.9298,2.9298,2.9712,3.0337,3.0337,3.126,3.2596,3.2596,3.3103,3.3817,3.3817,3.3817,3.3817,3.3817,3.3817,3.3817,3.3817,3.3817,3.3817,3.3817,3.3817,3.3817,3.3817,3.3817,3.3817,3.3817,3.3817,3.3817,3.3817,3.3817,3.3817,3.3817,3.4092,3.4367,3.4367,3.4678,3.4954,3.4972,3.4954,3.4825,3.4495,3.4422,3.4275,3.3908,3.3853,3.3835,3.3817,3.3817,3.3817,3.3817,3.2508,3.1649,3.1649,3.1649,3.1649,3.1649,3.0305,2.952,2.9345,2.9129,2.9023,2.8975,2.7836,2.7353,2.7306,2.5764,2.4452,2.357,2.4579,2.5824,2.6458,2.7791,2.8789,2.805,2.8198,2.8848,3.0171,3.0695,3.1094,3.1776,3.0823,3.0357,3.1709,3.0591,2.953,2.9524,2.9682,2.955,2.8866,2.8964,2.9409,3.0235,3.0315,3.0616,3.1331,3.1395,3.1395,3.1395,3.1395,3.1284,3.1077,3.0934,3.0648,3.0219,2.9949,2.9711,2.9488,2.9361,2.9298,2.9298,2.9298,2.9298,2.9298,2.9298,2.9712,3.0425,3.0656,3.1687,3.3145,3.3821,3.4284,3.4568,3.4568,3.4568,3.4532,3.4275,3.4183,3.4147,3.389,3.3817,3.3817,3.3817,3.3817,3.3817,3.3817,3.3817,3.3817,3.3817,3.3817,3.3817,3.3817,3.4,3.4183,3.4183,3.4495,3.4788,3.4788,3.4917,3.5027,3.5027,3.4807,3.4587,3.4422,3.4412,3.426,3.3835,3.4024,3.4094,3.3817,3.2945,3.2368,3.2368,3.0926,3.0075,3.0075,3.0075,3.0075,3.0075,2.9488,2.8679,2.7549,2.7413,2.7155,2.6662,2.5178,2.4687,2.5101,2.342,2.179,2.3664,2.466,2.5873,2.6434,2.7763,2.8818,2.8153,2.7958,2.8502,3.0316,3.1015,3.1739,3.2988,3.1628,3.0683,3.1783,3.0567,2.9771,3.0484,3.031,2.9834,2.9042,2.9043,2.9441,3.0235,3.0315,3.0616,3.1331,3.1395,3.1395,3.1395,3.1284,3.1109,3.0946,3.0648,3.0315,2.9822,2.9711,2.9536,2.9298,2.9298,2.9298,2.9298,2.9298,2.9298,2.9298,2.9697,3.0232,3.1036,3.1637,3.2656,3.3768,3.3513,3.3764,3.4144,3.3619,3.3764,3.418,3.3893,3.416,3.455,3.4293,3.4202,3.4202,3.4202,3.4202,3.4202,3.4202,3.4202,3.4202,3.4202,3.4092,3.4037,3.4165,3.4403,3.4605,3.4605,3.4917,3.5174,3.4992,3.5137,3.5174,3.5045,3.4678,3.4403,3.4403,3.4283,3.4094,3.3817,3.359,3.3224,3.2438,3.1437,3.0785,3.0785,2.9361,2.8454,2.833,2.7916,2.7844,2.833,2.7916,2.6976,2.567,2.5413,2.5087,2.4594,2.2553,2.1855,2.2327,2.0479,1.8809,2.4136,2.5304,2.6397,2.6645,2.768,2.8398,2.7413,2.8061,2.8737,2.8271,3.0929,3.3331,3.3331,3.3627,3.3786,3.3411,3.1396,3.0435,3.2162,2.9986,2.8487,2.9202,2.898,2.9171,3.0203,3.0315,3.0616,3.1331,3.1395,3.1395,3.1379,3.1045,3.093,3.0855,3.0187,2.9822,2.9822,2.9472,2.9298,2.9298,2.9298,2.9298,2.9298,2.9298,2.9298,2.9385,3.0533,3.1476,3.2285,3.346,3.436,3.4649,3.1392,3.1097,3.2363,3.0727,3.117,3.2582,3.2582,3.3619,3.4955,3.4955,3.4955,3.4955,3.4955,3.4955,3.5027,3.5027,3.5027,3.5027,3.5027,3.4715,3.4513,3.4935,3.5027,3.5027,3.5027,3.5339,3.5504,3.51,3.5339,3.5485,3.51,3.4678,3.4403,3.4403,3.4055,3.3747,3.3747,3.2438,3.0855,2.9345,2.9202,2.9202,2.9202,2.7795,2.6793,2.6457,2.5036,2.4891,2.6427,2.5036,2.4062,2.3768,2.3108,2.2741,2.2741,2.0204,1.896,1.896,1.6977,1.5919,2.342,2.3783,2.4436,2.6102,2.667,2.6811,2.6938,2.829,2.9981,3.143,3.3316,3.4696,3.4759,3.3917,3.3647,3.5022,3.3912,3.2796,3.2478,3.2906,3.2162,2.9309,3.002,3.0475,2.9991,3.0187,3.0505,3.0982,3.1252,3.1284,3.1029,3.0918,3.0632,3.0156,2.9933,2.9711,2.9457,2.9345,2.9425,2.9663,2.9663,2.9536,2.9314,2.9552,2.9954,3.0549,3.1128,3.2154,3.346,3.4324,3.4144,3.3311,3.2273,3.1612,3.1007,3.0489,3.0637,3.108,3.1023,3.1318,3.1686,3.1612,3.2363,3.3328,3.3328,3.4071,3.4972,3.4678,3.4587,3.4587,3.4587,3.4495,3.4513,3.4935,3.5247,3.5375,3.5082,3.5339,3.5504,3.51,3.5119,3.5082,3.466,3.4477,3.4312,3.4018,3.2947,3.1789,3.0714,3.0146,2.9702,2.9274,2.8213,2.7578,2.7578,2.6025,2.5001,2.4905,2.4296,2.4103,2.4589,2.4174,2.3242,2.194,2.1417,2.0567,1.9248,1.7981,1.7388,1.7398,1.6484,1.5355,2.3262,2.3441,2.3787,2.513,2.5655,2.6202,2.7812,2.9126,3.0604,3.2642,3.4228,3.5044,3.4268,3.4143,3.4383,3.4997,3.4843,3.4432,3.369,3.4202,3.3495,3.0273,3.0825,3.1023,2.9936,2.9997,3.0203,3.0426,3.0775,3.0823,3.0473,3.0458,3.0251,2.9838,2.9695,2.9504,2.9298,2.9441,2.9615,2.9822,2.9965,2.9838,2.952,3.0002,3.0535,3.097,3.1274,3.2171,3.3401,3.2565,3.2053,3.1669,3.0341,2.9672,2.9374,2.8702,2.8852,2.9449,2.9374,2.9837,3.0341,3.0283,3.0875,3.1759,3.1759,3.2419,3.3113,3.287,3.28,3.28,3.28,3.28,3.3158,3.4666,3.521,3.532,3.5082,3.521,3.5048,3.4037,3.3822,3.3697,3.3286,3.2702,3.2491,3.2841,3.1578,3.0004,2.8501,2.8285,2.8068,2.7433,2.646,2.5822,2.5822,2.4168,2.3091,2.2975,2.2224,2.1802,2.1691,2.237,2.187,2.0087,1.9512,1.866,1.7599,1.6263,1.5566,1.5557,1.3918,1.251,2.3341,2.38,2.401,2.3883,2.468,2.6329,2.9365,3.0227,3.0883,3.2516,3.4185,3.4698,3.2831,3.447,3.5599,3.41,3.4811,3.5485,3.5371,3.463,3.3462,3.1913,3.1685,3.1186,3.0042,2.9799,2.9743,2.9774,3.0092,3.014,2.9838,2.9822,2.9806,2.9774,2.9457,2.9298,2.9298,2.9647,2.9838,2.987,3.0245,3.0245,2.9991,3.0672,3.093,3.093,3.1131,3.1661,3.2222,2.9328,2.894,2.9801,2.6763,2.6474,2.7517,2.5957,2.6398,2.7667,2.7696,2.8657,2.9923,2.9954,3.0028,3.0193,3.0193,3.0251,3.0399,3.0367,3.0367,3.0351,3.0319,3.0303,3.0982,3.3802,3.4523,3.4577,3.4541,3.4523,3.3965,3.2162,3.1861,3.1759,3.1347,3.0146,2.9647,3.0855,2.9861,2.8429,2.6867,2.6721,2.6137,2.4743,2.4369,2.4123,2.3938,2.2413,2.1281,2.0898,1.9566,1.8605,1.818,1.9935,2.0028,1.825,1.7469,1.7047,1.6906,1.4725,1.3595,1.3381,1.0221,0.8416,2.2681,2.2946,2.3083,2.3393,2.4681,2.6579,2.913,3.0505,3.1779,3.3795,3.4279,3.4447,3.4657,3.5479,3.6244,3.6606,3.6824,3.6734,3.5916,3.6296,3.5835,3.3532,3.2968,3.2274,3.0903,2.9688,2.9107,2.9393,2.9727,2.9901,2.9822,2.9822,2.9695,2.9425,2.9329,2.9298,2.9298,2.9647,2.9949,3.0203,3.0891,3.1334,3.153,3.1384,3.1383,3.1439,3.2081,3.1599,3.0365,2.9723,2.8762,2.7583,2.6851,2.6055,2.5255,2.4898,2.5046,2.537,2.5602,2.5985,2.6238,2.6474,2.7453,2.8492,2.8492,2.9374,3.0351,3.0007,2.9927,2.9863,2.9504,2.9425,2.9657,3.0304,3.0963,3.1293,3.1029,3.0891,3.0703,2.9968,2.9815,2.9799,2.9718,2.9417,2.8932,2.8012,2.7578,2.6867,2.5286,2.5065,2.491,2.4315,2.4235,2.3582,2.2184,2.1554,2.0651,1.9375,1.8774,1.7952,1.6644,1.8153,1.8223,1.6644,1.5858,1.4937,1.3737,1.261,1.1462,1.0227,0.9232,0.786,2.2379,2.2833,2.3124,2.3942,2.5547,2.7333,2.8874,3.0739,3.2365,3.3505,3.3879,3.4339,3.4983,3.5645,3.6349,3.7053,3.7529,3.7554,3.6757,3.7172,3.6475,3.3755,3.3083,3.2033,2.986,2.8975,2.8519,2.8551,2.9028,2.925,2.9075,2.9393,2.9488,2.9298,2.9298,2.9218,2.9043,2.9727,2.9981,2.9838,3.0792,3.1102,3.094,3.1097,3.1337,3.1459,3.0357,2.9278,2.8171,2.739,2.6503,2.5648,2.5648,2.5162,2.4636,2.4636,2.4636,2.4589,2.481,2.4863,2.489,2.5037,2.5677,2.6336,2.6336,2.6992,2.7615,2.7379,2.7335,2.7291,2.7041,2.6997,2.6997,2.6997,2.8473,2.9784,2.9536,2.9488,2.9224,2.8243,2.8068,2.8068,2.8068,2.8068,2.7578,2.6005,2.5786,2.5506,2.471,2.4516,2.4077,2.325,2.2921,2.2035,2.0376,1.9282,1.8361,1.7582,1.6693,1.5797,1.4813,1.5504,1.5575,1.4813,1.3444,1.2373,1.1377,1.0083,0.8879,0.7911,0.6713,0.559,2.2452,2.3145,2.3661,2.4695,2.6413,2.8065,2.8645,3.082,3.2669,3.2669,3.3389,3.4194,3.4755,3.5542,3.6308,3.6949,3.7674,3.8026,3.755,3.7488,3.6506,3.379,3.2814,3.1488,2.9067,2.8539,2.8426,2.8402,2.8797,2.8916,2.8659,2.9074,2.9298,2.9298,2.9298,2.9186,2.8948,2.9806,2.9981,2.9488,3.0595,3.085,3.0493,3.0539,3.0557,3.0472,2.7848,2.6445,2.5941,2.4692,2.4128,2.4142,2.4182,2.4356,2.4569,2.4549,2.4636,2.4636,2.4636,2.4636,2.4636,2.4636,2.4636,2.4636,2.4636,2.4636,2.4636,2.4636,2.4636,2.4636,2.4636,2.4636,2.4636,2.4636,2.6561,2.8429,2.8429,2.8429,2.7996,2.6721,2.6284,2.605,2.605,2.5831,2.5318,2.4327,2.3957,2.3857,2.4114,2.3684,2.2895,2.1619,2.0995,2.0073,1.8468,1.6954,1.6009,1.5735,1.4537,1.3611,1.296,1.2888,1.2745,1.2309,1.1012,1.0006,0.9502,0.7837,0.6651,0.5994,0.4307,0.3142,2.3297,2.3976,2.4323,2.4246,2.6076,2.7991,2.8394,3.0662,3.2669,3.2669,3.312,3.3844,3.5107,3.5769,3.6535,3.7798,3.8109,3.8026,3.755,3.7488,3.6734,3.4719,3.3049,3.1935,3.1541,3.0052,2.9719,3.1187,3.0561,3.0189,3.0442,2.9699,2.9298,2.9298,2.9298,2.9425,2.9679,2.9822,2.9981,3.0172,3.133,3.2414,3.3175,3.0323,2.8381,2.7128,2.6372,2.5283,2.4178,2.3964,2.3834,2.3848,2.4102,2.4222,2.4289,2.4543,2.4636,2.4636,2.4636,2.4636,2.4636,2.4636,2.4636,2.4636,2.4636,2.4636,2.4636,2.4636,2.4636,2.4636,2.4636,2.4636,2.4636,2.4636,2.4918,2.5212,2.5212,2.5212,2.5139,2.4918,2.3796,2.2806,2.2806,2.1688,2.1153,2.2372,2.1314,2.0934,2.2203,2.1028,1.987,1.9305,1.9124,1.8365,1.6632,1.624,1.5523,1.4252,1.4039,1.3103,1.137,1.1299,1.0359,0.8333,0.9352,0.928,0.7833,0.7255,0.6141,0.4374,0.3748,0.2565,2.3414,2.396,2.4196,2.4861,2.6276,2.7808,2.9089,3.0903,3.2359,3.2685,3.2871,3.3348,3.4465,3.5252,3.6101,3.7218,3.7839,3.8026,3.755,3.726,3.6391,3.455,3.3392,3.2483,3.1709,3.0915,3.075,3.1431,3.1307,3.0982,3.0549,3.0316,2.984,2.9282,2.9107,2.9171,2.952,2.9536,2.9913,3.0673,3.1827,3.1735,3.036,2.9039,2.8185,2.7691,2.5641,2.4279,2.3527,2.3701,2.3255,2.2409,2.2759,2.2374,2.1769,2.1876,2.1924,2.1924,2.1924,2.1924,2.1924,2.1924,2.1924,2.1924,2.1924,2.1924,2.1924,2.1924,2.1924,2.1924,2.1924,2.1924,2.1924,2.1924,2.1924,2.1924,2.1924,2.2595,2.298,2.2073,2.1314,2.0864,2.0864,2.0263,2.0037,2.0714,2.0142,1.9872,2.0501,1.9719,1.8683,1.7694,1.7419,1.66,1.5035,1.4093,1.323,1.2309,1.1442,1.0431,0.9059,0.9059,0.8049,0.5956,0.6825,0.6825,0.5956,0.4906,0.3775,0.2476,0.2263,0.1059,2.3584,2.4053,2.4276,2.5099,2.633,2.7712,2.9067,3.0797,3.2215,3.2442,3.2747,3.3099,3.3762,3.4631,3.5625,3.6784,3.755,3.7819,3.7218,3.6949,3.6024,3.398,3.3642,3.3107,3.2091,3.2027,3.22,3.2581,3.269,3.2298,3.1117,3.1165,3.0751,2.9579,2.9498,2.9595,2.9855,2.9952,3.0392,3.1246,3.1736,3.0693,2.8388,2.7702,2.7586,2.7726,2.4861,2.324,2.2556,2.2988,2.2128,2.0635,2.088,2.0354,1.949,1.9457,1.9499,1.9499,1.9585,1.9661,1.9661,1.9736,1.9811,1.9811,1.9811,1.9811,1.9811,1.9811,1.9811,1.9811,1.9811,1.9811,1.9811,1.9811,1.9811,1.9811,1.9811,2.0714,2.1239,2.0037,1.9434,1.9208,1.9208,1.883,1.8734,1.9059,1.8669,1.8367,1.8696,1.8094,1.7223,1.6037,1.5685,1.5097,1.3967,1.2523,1.1442,1.1012,0.9568,0.8194,0.6966,0.6894,0.6029,0.4151,0.4233,0.4241,0.3951,0.2809,0.1645,0.0454,0.0454,-0.0755,2.4195,2.4796,2.4902,2.4034,2.5832,2.7766,2.7418,3.0128,3.2525,3.2112,3.2747,3.3348,3.341,3.4235,3.5376,3.7177,3.7508,3.7218,3.6308,3.6535,3.5779,3.3074,3.3457,3.3882,3.3757,3.407,3.4757,3.6034,3.5677,3.4758,3.3306,3.2783,3.1817,3.0276,3.1026,3.1401,3.1401,3.1776,3.196,3.2014,3.0664,3.0184,3.0225,2.6825,2.5244,2.5204,2.3833,2.2149,2.0521,2.104,2.0261,1.8789,1.8725,1.8602,1.8592,1.8645,1.8648,1.8723,1.9111,1.9262,1.9273,1.9661,1.9811,1.9811,1.9811,1.9811,1.9811,1.9811,1.9811,1.9811,1.9811,1.9811,1.9811,1.9811,1.9811,1.9811,1.9811,1.9887,1.9887,1.9811,1.8537,1.755,1.755,1.6262,1.5667,1.7049,1.5905,1.54,1.6619,1.5406,1.4324,1.408,1.4047,1.3975,1.3904,1.2523,1.1442,1.1012,0.9568,0.7693,0.5377,0.5304,0.4436,0.2478,0.2139,0.2004,0.193,0.1857,0.0673,-0.1513,-0.1513,-0.2627,2.4216,2.4836,2.5311,2.5657,2.6846,2.8232,2.9373,3.0819,3.1981,3.2339,3.2954,3.3472,3.3762,3.4569,3.55,3.6453,3.7115,3.7281,3.6639,3.6453,3.587,3.4573,3.4861,3.5273,3.5623,3.5957,3.6457,3.7295,3.7171,3.6547,3.5349,3.4183,3.3231,3.2577,3.1704,3.1302,3.1559,3.2121,3.2281,3.2098,3.0583,2.9355,2.8313,2.5849,2.3417,2.118,2.111,2.0592,1.9725,1.9167,1.7949,1.6543,1.6679,1.6103,1.5189,1.5286,1.5295,1.5396,1.5591,1.5633,1.571,1.6177,1.6339,1.6415,1.6635,1.6712,1.6712,1.6712,1.6712,1.6712,1.6712,1.6712,1.6712,1.6712,1.6712,1.6712,1.6712,1.6712,1.6712,1.6712,1.6254,1.588,1.588,1.5252,1.5,1.5462,1.4885,1.4539,1.498,1.4427,1.3977,1.3904,1.3904,1.3468,1.2523,1.079,0.9136,0.7765,0.596,0.4511,0.3348,0.3348,0.2926,0.1992,0.1853,0.1783,0.1783,0.1573,0.0377,-0.1663,-0.1725,-0.3276,2.3909,2.4738,2.5351,2.594,2.7077,2.834,2.9465,3.05,3.1449,3.2126,3.2747,3.3348,3.3948,3.4693,3.5397,3.6018,3.6494,3.6701,3.639,3.608,3.5707,3.5375,3.5766,3.6243,3.6683,3.6993,3.7434,3.7928,3.8121,3.7742,3.6701,3.5395,3.4375,3.3778,3.2487,3.207,3.2719,3.2771,3.2639,3.2244,3.0038,2.828,2.6931,2.3983,2.1331,1.8971,1.8199,1.7855,1.7874,1.7164,1.6011,1.4527,1.4571,1.3966,1.297,1.3049,1.2724,1.2285,1.2519,1.2259,1.1952,1.3021,1.3351,1.3505,1.4507,1.4814,1.4814,1.4968,1.4968,1.4968,1.4968,1.4968,1.4968,1.4968,1.4968,1.4968,1.4968,1.4968,1.4968,1.4968,1.4968,1.4944,1.4887,1.4781,1.4667,1.4546,1.3885,1.3421,1.3359,1.2741,1.2388,1.2388,1.2388,1.1951,1.094,0.9064,0.7331,0.5891,0.4005,0.2697,0.2333,0.2196,0.2063,0.1783,0.1567,0.1122,0.0598,0.0377,-0.0755,-0.2702,-0.3274,-0.5173,0.0,0.0,0.0,2.4641,2.6505,2.8206,2.7442,2.9207,3.1103,3.1366,3.2106,3.3016,3.3865,3.4484,3.5024,3.5935,3.5728,3.5438,3.5438,3.5418,3.5354,3.5221,3.5943,3.6524,3.685,3.7214,3.7593,3.8073,3.8554,3.8397,3.7445,3.6439,3.525,3.3918,3.345,3.3798,3.4972,3.378,3.2991,3.2503,2.889,2.6983,2.6439,2.134,1.896,1.8751,1.5363,1.4192,1.4639,1.5064,1.4357,1.2846,1.2481,1.2262,1.2209,1.1999,1.0996,0.973,1.016,0.9356,0.8454,1.0423,1.1089,1.1476,1.3583,1.4207,1.4361,1.4737,1.4806,1.4883,1.4883,1.4883,1.4883,1.4883,1.4806,1.4806,1.4883,1.4806,1.4883,1.4883,1.4883,1.4827,1.4581,1.4549,1.442,1.4083,1.2773,1.1755,1.1534,1.0221,0.9291,0.9291,0.9291,0.9291,0.9219,0.748,0.6177,0.5746,0.3932,0.2698,0.2334,0.1993,0.1783,0.1784,0.0978,-0.0227,-0.1738,-0.1738,-0.2777,-0.4815,-0.6371,-0.8309,2.3623,0.0,0.0,0.0,0.0,0.0,2.8501,2.9977,3.1317,3.1144,3.2385,3.3413,3.312,3.3741,3.4565,3.5329,3.5687,3.5977,3.6248,3.5664,3.5305,3.554,3.5947,3.6273,3.6393,3.7323,3.7964,3.8095,3.8554,3.9017,3.9433,3.8311,3.6867,3.5108,3.4121,3.367,3.3725,3.2808,3.2276,3.21,2.851,2.6733,2.6439,2.134,1.839,1.7178,1.4867,1.334,1.246,1.2604,1.1732,1.0281,1.0209,0.9479,0.8474,0.8514,0.8257,0.7909,0.8232,0.7991,0.7774,0.8716,0.8983,0.9133,0.9987,1.0535,1.0773,1.0529,1.0916,1.1392,1.1392,1.1392,1.1392,1.1392,1.1154,1.1005,1.1315,1.1154,1.1392,1.2874,1.3166,1.2692,1.1428,1.1108,1.0946,1.0871,1.0414,0.9974,0.9939,0.9579,0.9291,0.9291,0.9291,0.8709,0.7336,0.6467,0.531,0.3789,0.2915,0.2342,0.1921,0.1854,0.1492,0.0979,-0.0378,-0.143,-0.2163,-0.2163,-0.3572,-0.6444,-0.8217,-0.9618,2.3406,2.4137,2.4902,2.4967,0.0,0.0,2.8164,2.9323,3.0418,3.081,3.1746,3.2482,3.2416,3.3152,3.3951,3.4508,3.52,3.5828,3.6413,3.5762,3.5483,3.6118,3.6381,3.6648,3.6963,3.7667,3.827,3.8685,3.8969,3.8979,3.8673,3.8118,3.6838,3.4607,3.3904,3.345,3.323,3.2423,3.1738,3.1109,2.808,2.6306,2.5584,2.0374,1.7609,1.6826,1.4093,1.2538,1.1763,1.0966,1.0089,0.9291,0.9291,0.8348,0.6974,0.71,0.6686,0.6194,0.628,0.5879,0.5514,0.6456,0.6803,0.7037,0.8123,0.8667,0.8828,0.8745,0.9211,0.9759,0.9992,0.9992,0.9992,0.9992,0.9837,0.9682,0.9915,0.9837,0.9992,1.1238,1.144,1.1024,0.9986,0.9664,0.959,0.9473,0.8827,0.8353,0.8353,0.7774,0.7412,0.7412,0.7268,0.6684,0.5528,0.4947,0.4078,0.299,0.2418,0.1695,0.0742,0.0448,-0.0225,-0.1361,-0.2405,-0.3352,-0.4265,-0.429,-0.5615,-0.8226,-1.0191,-1.1305,2.3053,2.3722,2.429,2.3793,2.5057,0.0,2.696,2.7849,2.8985,3.0162,3.0588,3.0909,3.1705,3.2469,3.3197,3.3723,3.4355,3.5125,3.6185,3.5649,3.5604,3.6656,3.6864,3.718,3.7772,3.7964,3.8357,3.9229,3.9447,3.8702,3.6815,3.6997,3.6051,3.3638,3.3379,3.3237,3.3028,3.2294,3.1253,2.9828,2.7664,2.5838,2.4114,1.9113,1.6896,1.6906,1.3246,1.1763,1.1835,1.0017,0.9219,0.8997,0.8858,0.7842,0.6463,0.6463,0.5597,0.4457,0.4422,0.3555,0.2661,0.4199,0.4701,0.5092,0.6881,0.7501,0.7656,0.8123,0.8517,0.891,0.9371,0.9449,0.9449,0.9449,0.9449,0.9371,0.9449,0.9439,0.9351,0.9434,0.95,0.9461,0.912,0.9076,0.8967,0.8796,0.763,0.6761,0.6761,0.5535,0.4665,0.4665,0.4371,0.408,0.4007,0.3352,0.2846,0.2776,0.2141,0.0966,-0.0818,-0.1428,-0.2491,-0.4219,-0.4686,-0.5733,-0.734,-0.7353,-0.8304,-1.0167,-1.1951,-1.3088,2.3686,2.3684,2.3814,2.3727,2.4596,0.0,2.6063,2.7171,2.8272,2.8742,2.9742,3.0653,3.0968,3.1476,3.2305,3.3797,3.362,3.3841,3.5457,3.5564,3.5601,3.6121,3.6529,3.6659,3.6413,3.7068,3.744,3.7265,3.8313,3.8953,3.9002,3.8606,3.7591,3.5997,3.4649,3.3294,3.1744,3.1579,3.084,2.9384,2.775,2.5621,2.3038,1.9253,1.6967,1.5787,1.3182,1.1613,1.0671,0.9723,0.8564,0.7331,0.6105,0.4657,0.3205,0.3205,0.3059,0.2779,0.2852,0.265,0.2433,0.2883,0.2983,0.3062,0.3452,0.3842,0.4234,0.5019,0.5332,0.5489,0.5877,0.5955,0.5955,0.5955,0.5721,0.5567,0.5877,0.5677,0.5486,0.5797,0.6953,0.7394,0.5968,0.5673,0.562,0.5607,0.5317,0.5171,0.5171,0.4883,0.4665,0.4665,0.4371,0.3935,0.3646,0.3209,0.2636,0.2071,0.1855,0.0821,-0.143,-0.1661,-0.2632,-0.4538,-0.5873,-0.7502,-0.9296,-0.9323,-1.0113,-1.1729,-1.2731,-1.4006,2.3727,2.3781,2.3924,2.3454,2.3919,0.0,0.0,2.626,2.7146,2.7415,2.8395,2.9223,2.9331,3.0069,3.0927,3.1792,3.2556,3.3128,3.3475,3.4501,3.5345,3.5932,3.6391,3.6697,3.6675,3.733,3.7745,3.7767,3.8423,3.8673,3.8444,3.7791,3.6745,3.51,3.3964,3.2777,3.1377,3.0714,2.9657,2.8196,2.6722,2.4911,2.2737,1.9333,1.7529,1.6846,1.3817,1.1821,1.0593,0.9069,0.7476,0.6032,0.5093,0.3714,0.2333,0.2333,0.2333,0.2341,0.2402,0.2424,0.2433,0.2495,0.2514,0.2514,0.2514,0.2671,0.2983,0.3848,0.3925,0.3925,0.4787,0.4865,0.4787,0.4944,0.4709,0.4476,0.4944,0.4665,0.4388,0.4744,0.5519,0.5755,0.4909,0.4779,0.4665,0.4665,0.4665,0.4665,0.4665,0.4665,0.4592,0.4444,0.4007,0.3646,0.3209,0.2844,0.2346,0.1855,0.1644,0.015,-0.2795,-0.3096,-0.4414,-0.697,-0.816,-0.9507,-1.1018,-1.1586,-1.2158,-1.2731,-1.4645,-1.6272,2.43,2.4307,2.4339,2.3599,2.3607,2.4037,0.0,0.0,0.0,2.6297,2.6937,2.7469,2.7725,2.8619,2.937,2.9456,3.1106,3.211,3.1323,3.2857,3.4428,3.5452,3.6063,3.6544,3.6915,3.7745,3.8292,3.8423,3.8772,3.846,3.7318,3.6864,3.5791,3.3869,3.335,3.2506,3.1377,3.026,2.8854,2.7121,2.5935,2.4249,2.1953,1.9136,1.7809,1.7328,1.4236,1.2029,1.0521,0.841,0.6463,0.4805,0.4369,0.3423,0.2333,0.2333,0.2333,0.2341,0.2402,0.2424,0.2433,0.2495,0.2514,0.2514,0.2514,0.2592,0.2749,0.3454,0.3454,0.3454,0.4471,0.4552,0.4397,0.4709,0.4552,0.4473,0.4693,0.4572,0.4441,0.4613,0.4705,0.4812,0.4812,0.4771,0.4665,0.4665,0.4665,0.4665,0.4665,0.4665,0.4444,0.4153,0.3646,0.3285,0.2927,0.2488,0.2063,0.172,0.1055,-0.0831,-0.415,-0.5184,-0.6899,-0.9452,-1.0167,-1.1096,-1.2302,-1.3579,-1.4219,-1.4361,-1.6906,-1.867,2.671,2.5939,2.4982,2.4876,2.4608,2.453,2.5054,0.0,2.4948,2.5801,0.0,2.5888,2.7151,0.0,0.0,2.813,2.9136,2.986,2.9751,3.064,3.1992,3.3835,3.484,3.5386,3.5452,3.7461,3.8248,3.7025,3.851,3.8903,3.741,3.7678,3.7001,3.4983,3.4852,3.3739,3.1442,3.1249,2.977,2.7105,2.6922,2.4057,1.8868,1.8519,1.6916,1.4395,1.3611,1.1814,0.9363,0.8049,0.6032,0.3646,0.2842,0.2478,0.2333,0.2333,0.2333,0.2341,0.2402,0.2424,0.2433,0.2495,0.2514,0.2514,0.2514,0.2749,0.3062,0.3139,0.3454,0.3768,0.3925,0.3925,0.3846,0.3925,0.416,0.4307,0.3949,0.4285,0.4686,0.4329,0.4493,0.4676,0.4676,0.467,0.4665,0.4665,0.4665,0.4665,0.4665,0.4371,0.4153,0.408,0.3425,0.3004,0.2965,0.2299,0.1723,0.1304,-0.038,-0.2343,-0.453,-0.7677,-0.9613,-1.0383,-1.0455,-1.1384,-1.3159,-1.4645,-1.6263,-1.7819,-1.8868,-2.0271,2.7966,2.7205,2.6368,2.6039,2.545,2.5082,2.5518,2.5448,2.5273,2.512,0.0,0.0,0.0,0.0,0.0,0.0,2.8069,2.8924,2.8309,2.9292,3.069,3.2328,3.3639,3.4709,3.5561,3.733,3.7811,3.6369,3.8051,3.813,3.5896,3.5886,3.5046,3.3198,3.3019,3.2313,3.1029,2.96,2.8312,2.7105,2.545,2.2942,1.9646,1.8798,1.7198,1.5097,1.411,1.2022,0.9219,0.8487,0.6322,0.3427,0.2844,0.2478,0.2333,0.2333,0.2333,0.2341,0.2402,0.2424,0.2433,0.2495,0.2514,0.2514,0.2514,0.2592,0.2826,0.3062,0.3219,0.3454,0.3768,0.3768,0.3846,0.4084,0.3905,0.3802,0.4323,0.4178,0.4113,0.4463,0.4632,0.4665,0.4665,0.4665,0.4665,0.4665,0.4665,0.4592,0.4371,0.4226,0.3935,0.3425,0.3156,0.2882,0.2675,0.2095,0.1283,-0.0076,-0.3084,-0.5227,-0.6344,-0.8873,-1.0737,-1.1736,-1.2445,-1.3935,-1.6263,-1.7599,-1.9077,-2.0698,-2.056,-2.1126,2.8888,2.8141,2.7414,2.7534,2.6715,2.6018,2.6563,2.6168,2.5513,2.4814,2.4618,0.0,0.0,0.0,2.5251,2.512,0.0,2.748,2.6474,2.7588,2.9139,3.0843,3.2328,3.3835,3.5408,3.7112,3.7505,3.6144,3.774,3.7522,3.456,3.4268,3.349,3.1722,3.1552,3.1273,3.0791,2.8632,2.7356,2.7039,2.4655,2.2284,1.9924,1.8879,1.7338,1.5452,1.4395,1.2173,0.9291,0.8848,0.6684,0.3646,0.3136,0.2697,0.2478,0.2333,0.2333,0.2341,0.2393,0.2423,0.2444,0.2497,0.2514,0.2514,0.2514,0.2514,0.2592,0.2826,0.2905,0.2983,0.3376,0.3447,0.3515,0.3829,0.3485,0.3299,0.4049,0.3915,0.386,0.4364,0.4475,0.4517,0.4517,0.4592,0.4665,0.4665,0.4592,0.4444,0.4153,0.3946,0.359,0.3006,0.2892,0.2693,0.2252,0.1509,-0.0076,-0.2556,-0.5438,-0.7395,-0.8323,-1.0137,-1.1736,-1.3159,-1.4361,-1.6263,-1.8729,-1.9495,-2.0756,-2.231,-2.1829,-2.1966,2.9693,2.8797,2.7796,2.9557,2.8612,2.7478,2.8486,2.6911,2.5226,2.5204,2.4028,2.3198,2.364,2.3749,0.0,0.0,0.0,0.0,0.0,2.5098,2.6889,2.927,3.0821,3.2459,3.4382,3.6719,3.7505,3.6144,3.7719,3.7361,3.4101,3.3878,3.3192,3.1722,3.1661,3.138,3.0791,2.9375,2.8127,2.7105,2.5599,2.2656,1.8449,1.8449,1.6775,1.3975,1.3896,1.2173,0.9291,0.8848,0.6898,0.4007,0.3207,0.2917,0.2844,0.2478,0.2333,0.2337,0.2369,0.2418,0.2473,0.2504,0.2514,0.2514,0.2514,0.2514,0.2514,0.2514,0.2514,0.2514,0.2514,0.257,0.2547,0.2547,0.2829,0.3021,0.2536,0.3345,0.4071,0.3656,0.3864,0.4153,0.4153,0.4444,0.4665,0.4665,0.4371,0.408,0.408,0.3463,0.3046,0.2972,0.263,0.2281,0.1847,0.0076,-0.263,-0.6529,-0.6895,-0.803,-1.0323,-1.1807,-1.3159,-1.429,-1.5839,-1.7529,-1.9437,-1.9507,-2.0491,-2.231,-2.2654,-2.2859,3.0202,2.9032,2.7947,2.9055,2.8891,2.8731,2.9531,2.8615,2.7479,2.7151,2.5426,2.394,2.3727,2.3684,0.0,0.0,0.0,0.0,0.0,2.4923,2.5732,2.6583,0.0,0.0,0.0,3.4971,3.5736,3.4622,3.6271,3.5748,3.2146,3.2256,3.1648,2.9938,3.0181,2.9758,2.8711,2.7571,2.6454,2.5417,2.2997,2.0642,1.8379,1.7338,1.5797,1.3904,1.3904,1.2022,0.892,0.8776,0.6536,0.3279,0.299,0.2771,0.2478,0.2333,0.2333,0.2339,0.2391,0.2435,0.2474,0.2504,0.2514,0.2514,0.2826,0.2748,0.2588,0.2802,0.2873,0.279,0.2536,0.2676,0.2896,0.2896,0.2793,0.2765,0.3125,0.3248,0.3372,0.3504,0.3646,0.3718,0.3718,0.3791,0.3937,0.3937,0.3791,0.3656,0.3391,0.3187,0.2909,0.2632,0.2512,0.2304,0.1851,-0.1141,-0.4129,-0.6821,-0.8231,-0.9841,-1.1879,-1.2659,-1.4503,-1.7398,-1.817,-1.9495,-2.1321,-2.1596,-2.2091,-2.2722,-2.3004,-2.306,3.0092,2.9039,2.8028,2.914,2.9116,2.9103,3.0261,2.951,2.8567,2.8522,2.6649,2.4989,2.497,2.4403,0.0,0.0,0.0,0.0,0.0,2.4355,2.4661,0.0,0.0,0.0,0.0,0.0,3.3809,3.3999,3.4592,3.3821,3.1425,3.0916,3.0231,2.9053,2.9232,2.881,2.7631,2.6496,2.5445,2.454,2.1675,1.9623,1.832,1.6854,1.5373,1.3904,1.3761,1.1807,0.8703,0.8559,0.6395,0.3063,0.299,0.2771,0.2478,0.2333,0.2333,0.2339,0.239,0.242,0.2442,0.2472,0.2482,0.2482,0.279,0.2636,0.2557,0.278,0.2847,0.2757,0.2518,0.2651,0.2859,0.2859,0.2608,0.251,0.3027,0.3007,0.299,0.3209,0.3281,0.3281,0.3281,0.3136,0.3136,0.3427,0.3354,0.3224,0.3042,0.2911,0.2707,0.2436,0.2312,0.1624,-0.0153,-0.3247,-0.589,-0.7879,-0.9195,-1.0809,-1.2802,-1.3792,-1.5877,-1.9223,-2.011,-2.1232,-2.2674,-2.2844,-2.2928,-2.2941,-2.3319,-2.3679]},{"header":{"parameterUnit":"m.s-1","parameterCategory":1,"la1":30.6,"la2":29.2853,"lo1":-89.7004,"lo2":-87.6739,"dx":0.0162,"dy":0.0183,"nx":112,"ny":82,"refTime":"2023-01-03T06:00:00:Z","depth":0,"parameterNumber":3,"parameterNumberName":"V-component_of_WINDS"},"data":[0.0,0.0,0.0,0.0,0.0,0.0,0.0,0.0,0.0,0.0,0.0,0.0,0.0,0.0,0.0,0.0,0.0,0.0,0.0,0.0,0.0,0.0,0.0,0.0,0.0,0.0,0.0,0.0,0.0,0.0,0.0,0.0,0.0,0.0,0.0,0.0,0.0,0.0,0.0,0.0,0.0,0.0,0.0,0.0,0.0,0.0,0.0,0.0,0.0,0.0,0.0,0.0,0.0,0.0,0.0,0.0,0.0,0.0,0.0,0.0,0.0,0.0,0.0,0.0,0.0,0.0,0.0,0.0,0.0,0.0,0.0,0.0,0.0,0.0,0.0,0.0,0.0,0.0,0.0,0.0,0.0,0.0,0.0,0.0,0.0,0.0,0.0,0.0,0.0,0.0,3.1,3.1011,3.0533,3.0165,2.9986,3.0782,3.1128,3.0813,0.0,0.0,0.0,0.0,0.0,0.0,0.0,0.0,0.0,0.0,0.0,0.0,0.0,0.0,0.0,0.0,0.0,0.0,0.0,0.0,0.0,0.0,0.0,0.0,0.0,0.0,0.0,0.0,0.0,0.0,0.0,0.0,0.0,0.0,0.0,0.0,0.0,0.0,0.0,0.0,0.0,0.0,0.0,0.0,0.0,0.0,0.0,0.0,0.0,0.0,0.0,0.0,0.0,0.0,0.0,0.0,0.0,0.0,0.0,0.0,0.0,0.0,0.0,0.0,0.0,0.0,0.0,0.0,0.0,0.0,0.0,0.0,0.0,0.0,0.0,0.0,0.0,0.0,0.0,0.0,0.0,0.0,0.0,0.0,0.0,0.0,0.0,0.0,0.0,0.0,0.0,0.0,0.0,0.0,0.0,0.0,0.0,0.0,0.0,0.0,0.0,0.0,0.0,0.0,2.9864,3.0585,3.0304,3.0037,2.9999,3.0165,3.014,2.9888,0.0,0.0,0.0,0.0,0.0,0.0,0.0,0.0,0.0,0.0,0.0,0.0,0.0,0.0,0.0,0.0,0.0,0.0,0.0,0.0,0.0,0.0,0.0,0.0,0.0,0.0,0.0,0.0,0.0,0.0,0.0,0.0,0.0,0.0,0.0,0.0,0.0,0.0,0.0,0.0,0.0,0.0,0.0,0.0,0.0,0.0,0.0,0.0,0.0,0.0,0.0,0.0,0.0,0.0,0.0,0.0,0.0,0.0,0.0,0.0,0.0,0.0,0.0,0.0,0.0,0.0,0.0,0.0,0.0,0.0,0.0,0.0,0.0,0.0,0.0,0.0,0.0,0.0,0.0,0.0,0.0,0.0,0.0,0.0,0.0,0.0,0.0,0.0,0.0,0.0,0.0,0.0,0.0,0.0,0.0,0.0,0.0,0.0,0.0,0.0,0.0,0.0,0.0,2.9671,3.0377,3.0983,3.0228,2.9699,2.9801,2.9632,2.9378,2.9071,2.8471,0.0,0.0,0.0,0.0,0.0,0.0,0.0,0.0,0.0,0.0,0.0,0.0,0.0,0.0,0.0,0.0,0.0,0.0,0.0,0.0,0.0,0.0,0.0,0.0,0.0,0.0,0.0,0.0,0.0,0.0,0.0,0.0,0.0,0.0,0.0,0.0,0.0,0.0,0.0,0.0,0.0,0.0,0.0,0.0,0.0,0.0,0.0,0.0,0.0,0.0,0.0,0.0,0.0,0.0,0.0,0.0,0.0,0.0,0.0,0.0,0.0,0.0,0.0,0.0,0.0,0.0,0.0,0.0,0.0,0.0,0.0,0.0,0.0,0.0,0.0,0.0,0.0,0.0,0.0,0.0,0.0,0.0,0.0,0.0,0.0,0.0,0.0,0.0,0.0,0.0,0.0,0.0,0.0,0.0,0.0,0.0,0.0,0.0,0.0,0.0,0.0,0.0,3.0347,3.0944,3.1189,3.036,2.9821,2.9772,2.9469,2.9145,2.8809,2.7773,0.0,0.0,0.0,0.0,0.0,0.0,0.0,0.0,0.0,0.0,0.0,0.0,0.0,0.0,0.0,0.0,0.0,0.0,0.0,0.0,0.0,0.0,0.0,0.0,0.0,0.0,0.0,0.0,0.0,0.0,0.0,0.0,0.0,0.0,0.0,0.0,0.0,0.0,0.0,0.0,0.0,0.0,0.0,0.0,0.0,0.0,0.0,0.0,0.0,0.0,0.0,0.0,0.0,0.0,0.0,0.0,0.0,0.0,0.0,0.0,0.0,0.0,0.0,0.0,0.0,0.0,0.0,0.0,0.0,0.0,0.0,0.0,0.0,0.0,0.0,0.0,0.0,0.0,0.0,0.0,0.0,0.0,0.0,0.0,0.0,0.0,0.0,0.0,0.0,0.0,0.0,0.0,0.0,0.0,0.0,0.0,0.0,0.0,0.0,0.0,0.0,0.0,2.963,3.0637,3.0647,3.0848,3.0785,3.0313,3.0038,2.9859,2.9619,2.8497,0.0,0.0,0.0,0.0,0.0,0.0,0.0,0.0,0.0,0.0,0.0,0.0,0.0,0.0,0.0,0.0,0.0,0.0,0.0,0.0,0.0,0.0,0.0,0.0,0.0,0.0,0.0,0.0,0.0,0.0,0.0,0.0,0.0,0.0,0.0,0.0,0.0,0.0,0.0,0.0,0.0,0.0,0.0,0.0,0.0,0.0,0.0,0.0,0.0,0.0,0.0,0.0,0.0,0.0,0.0,0.0,0.0,0.0,0.0,0.0,0.0,0.0,0.0,0.0,0.0,0.0,0.0,0.0,0.0,0.0,0.0,0.0,0.0,0.0,0.0,0.0,0.0,0.0,0.0,0.0,0.0,0.0,0.0,0.0,0.0,0.0,0.0,0.0,0.0,0.0,0.0,0.0,0.0,0.0,0.0,0.0,0.0,0.0,0.0,0.0,0.0,0.0,3.0083,3.0859,3.1537,3.1405,3.1297,3.1323,3.0523,2.9861,2.9529,0.0,0.0,0.0,0.0,0.0,0.0,0.0,0.0,0.0,0.0,0.0,0.0,0.0,0.0,0.0,0.0,0.0,0.0,0.0,0.0,0.0,0.0,0.0,0.0,0.0,0.0,0.0,0.0,0.0,0.0,0.0,0.0,0.0,0.0,0.0,0.0,0.0,0.0,0.0,0.0,0.0,0.0,0.0,0.0,0.0,0.0,0.0,0.0,0.0,0.0,0.0,0.0,0.0,0.0,0.0,0.0,0.0,0.0,0.0,0.0,0.0,0.0,0.0,0.0,0.0,0.0,0.0,0.0,0.0,0.0,0.0,0.0,0.0,0.0,0.0,0.0,0.0,0.0,0.0,0.0,0.0,0.0,0.0,0.0,0.0,0.0,0.0,0.0,0.0,0.0,0.0,0.0,0.0,0.0,0.0,0.0,0.0,0.0,0.0,0.0,0.0,0.0,3.0025,3.0676,3.1411,3.2139,3.2039,3.1972,3.2005,3.1232,3.0447,2.982,0.0,0.0,0.0,0.0,0.0,0.0,0.0,0.0,0.0,0.0,0.0,0.0,0.0,0.0,0.0,0.0,0.0,0.0,0.0,0.0,0.0,0.0,0.0,0.0,0.0,0.0,0.0,0.0,0.0,0.0,0.0,0.0,0.0,0.0,0.0,0.0,0.0,0.0,0.0,0.0,0.0,0.0,0.0,0.0,0.0,0.0,0.0,0.0,0.0,0.0,0.0,0.0,0.0,0.0,0.0,0.0,0.0,0.0,0.0,0.0,0.0,0.0,0.0,0.0,0.0,0.0,0.0,0.0,0.0,0.0,0.0,0.0,0.0,0.0,0.0,0.0,0.0,0.0,0.0,0.0,0.0,0.0,0.0,0.0,0.0,0.0,0.0,0.0,0.0,0.0,0.0,0.0,0.0,0.0,0.0,0.0,0.0,0.0,0.0,0.0,0.0,0.0,3.0241,3.1332,3.2215,3.224,3.2742,3.2842,3.229,3.2215,3.1763,0.0,0.0,0.0,0.0,0.0,0.0,0.0,0.0,0.0,0.0,0.0,0.0,0.0,0.0,0.0,0.0,0.0,0.0,0.0,0.0,0.0,0.0,0.0,0.0,0.0,0.0,0.0,0.0,0.0,0.0,0.0,0.0,0.0,0.0,0.0,0.0,0.0,0.0,0.0,0.0,0.0,0.0,0.0,0.0,0.0,0.0,0.0,0.0,0.0,0.0,0.0,0.0,0.0,0.0,0.0,0.0,0.0,0.0,0.0,0.0,0.0,0.0,0.0,0.0,0.0,0.0,0.0,0.0,0.0,0.0,0.0,0.0,0.0,0.0,0.0,0.0,0.0,0.0,0.0,0.0,0.0,0.0,0.0,0.0,0.0,0.0,0.0,0.0,0.0,0.0,0.0,0.0,0.0,0.0,0.0,0.0,0.0,0.0,0.0,0.0,0.0,0.0,0.0,3.138,3.1868,3.2516,3.3319,3.3545,3.3596,3.342,3.2939,3.2347,3.1788,0.0,0.0,0.0,0.0,0.0,0.0,0.0,0.0,0.0,0.0,0.0,0.0,0.0,0.0,0.0,0.0,0.0,0.0,0.0,0.0,0.0,0.0,0.0,0.0,0.0,0.0,0.0,0.0,0.0,0.0,0.0,0.0,0.0,0.0,0.0,0.0,0.0,0.0,0.0,0.0,0.0,0.0,0.0,0.0,0.0,0.0,0.0,0.0,0.0,0.0,0.0,0.0,0.0,0.0,0.0,0.0,0.0,0.0,0.0,0.0,0.0,0.0,0.0,0.0,0.0,0.0,0.0,0.0,0.0,0.0,0.0,0.0,0.0,0.0,0.0,0.0,0.0,0.0,0.0,0.0,0.0,0.0,0.0,0.0,0.0,0.0,0.0,0.0,0.0,0.0,0.0,0.0,0.0,0.0,0.0,0.0,0.0,0.0,0.0,0.0,0.0,0.0,3.2735,3.292,3.3273,3.3953,3.4142,3.4223,3.4223,3.379,3.3539,3.3445,0.0,0.0,0.0,0.0,0.0,0.0,0.0,0.0,0.0,0.0,0.0,0.0,0.0,0.0,0.0,0.0,0.0,0.0,0.0,0.0,0.0,0.0,0.0,0.0,0.0,0.0,0.0,0.0,0.0,0.0,0.0,0.0,0.0,0.0,0.0,0.0,0.0,0.0,0.0,0.0,0.0,0.0,0.0,0.0,0.0,0.0,0.0,0.0,0.0,0.0,0.0,0.0,0.0,0.0,0.0,0.0,0.0,0.0,0.0,0.0,0.0,0.0,0.0,0.0,0.0,0.0,0.0,0.0,0.0,0.0,0.0,0.0,0.0,0.0,0.0,0.0,0.0,0.0,0.0,0.0,0.0,0.0,0.0,0.0,0.0,0.0,0.0,0.0,0.0,0.0,0.0,0.0,0.0,0.0,0.0,0.0,0.0,0.0,0.0,0.0,0.0,0.0,3.4017,3.4229,3.4356,3.4407,3.4715,3.4926,3.4876,3.4876,3.4958,3.5253,0.0,0.0,0.0,0.0,0.0,0.0,0.0,0.0,0.0,0.0,0.0,0.0,0.0,0.0,0.0,0.0,0.0,0.0,0.0,0.0,0.0,0.0,0.0,0.0,0.0,0.0,0.0,0.0,0.0,0.0,0.0,0.0,0.0,0.0,0.0,0.0,0.0,0.0,0.0,0.0,0.0,0.0,0.0,0.0,0.0,0.0,0.0,0.0,0.0,0.0,0.0,0.0,0.0,0.0,0.0,0.0,0.0,0.0,0.0,0.0,3.2267,2.9986,0.0,0.0,0.0,0.0,0.0,0.0,0.0,0.0,0.0,0.0,0.0,0.0,0.0,0.0,0.0,0.0,0.0,0.0,0.0,0.0,0.0,0.0,0.0,0.0,0.0,0.0,0.0,0.0,0.0,0.0,0.0,0.0,0.0,0.0,0.0,0.0,0.0,0.0,0.0,0.0,3.3827,3.4805,3.5649,3.5919,3.638,3.6483,3.6056,3.6053,3.5672,3.4888,3.5407,0.0,0.0,0.0,0.0,0.0,0.0,0.0,0.0,0.0,0.0,0.0,0.0,0.0,0.0,0.0,0.0,0.0,0.0,0.0,0.0,0.0,0.0,0.0,0.0,0.0,0.0,0.0,0.0,0.0,0.0,0.0,0.0,0.0,0.0,0.0,0.0,0.0,0.0,0.0,0.0,0.0,0.0,0.0,0.0,0.0,0.0,0.0,0.0,0.0,0.0,0.0,0.0,0.0,0.0,0.0,0.0,0.0,0.0,0.0,3.4656,3.3267,0.0,0.0,0.0,0.0,0.0,0.0,0.0,0.0,0.0,0.0,0.0,0.0,0.0,0.0,0.0,0.0,0.0,0.0,0.0,0.0,0.0,0.0,0.0,0.0,0.0,0.0,0.0,0.0,0.0,0.0,0.0,0.0,0.0,0.0,0.0,0.0,0.0,0.0,0.0,0.0,3.5491,3.6089,3.6599,3.6874,3.7333,3.7462,3.7186,3.7161,3.6975,3.658,3.623,0.0,0.0,0.0,0.0,0.0,0.0,0.0,0.0,0.0,0.0,0.0,0.0,0.0,0.0,0.0,0.0,0.0,0.0,0.0,0.0,0.0,0.0,0.0,0.0,0.0,0.0,0.0,0.0,0.0,0.0,0.0,0.0,0.0,0.0,0.0,0.0,0.0,0.0,0.0,0.0,0.0,0.0,0.0,0.0,0.0,0.0,0.0,0.0,0.0,0.0,0.0,0.0,0.0,4.0474,4.0104,3.9416,3.9191,3.9145,3.9086,3.7597,3.7164,3.7501,3.6559,0.0,0.0,0.0,0.0,0.0,0.0,0.0,0.0,0.0,0.0,0.0,0.0,0.0,0.0,0.0,0.0,0.0,0.0,0.0,0.0,0.0,0.0,3.8069,3.8137,3.862,3.8372,3.578,0.0,0.0,0.0,0.0,0.0,0.0,0.0,0.0,0.0,0.0,0.0,3.7629,3.7659,3.7782,3.7927,3.8339,3.8517,3.8316,3.8291,3.836,3.8489,3.7108,3.7232,0.0,0.0,0.0,0.0,0.0,0.0,0.0,0.0,0.0,0.0,0.0,0.0,0.0,0.0,0.0,0.0,0.0,0.0,0.0,0.0,0.0,0.0,0.0,0.0,0.0,0.0,0.0,0.0,0.0,0.0,0.0,0.0,2.7253,2.8577,0.0,0.0,0.0,0.0,0.0,0.0,0.0,0.0,0.0,0.0,0.0,0.0,0.0,3.9466,3.9555,4.0891,4.1819,4.2357,4.3053,4.3171,4.2673,4.2476,4.2476,4.2594,4.2031,0.0,3.8245,3.871,0.0,0.0,0.0,0.0,0.0,0.0,0.0,0.0,0.0,0.0,0.0,0.0,0.0,0.0,0.0,0.0,0.0,0.0,0.0,0.0,0.0,0.0,3.9531,3.9847,4.036,4.0257,3.871,3.6987,3.543,3.4539,3.4528,3.4888,0.0,0.0,0.0,0.0,0.0,0.0,3.8324,3.9355,3.998,3.9779,4.0431,4.0501,3.9546,3.9471,3.907,3.8162,3.8903,3.9087,3.8326,3.8984,0.0,0.0,0.0,0.0,0.0,0.0,0.0,0.0,0.0,0.0,0.0,0.0,0.0,0.0,0.0,0.0,0.0,0.0,0.0,0.0,0.0,0.0,0.0,0.0,0.0,0.0,0.0,0.0,0.0,2.9077,2.914,3.0423,3.1758,3.2881,0.0,0.0,0.0,0.0,0.0,0.0,0.0,0.0,0.0,3.9965,4.1247,4.2221,4.2811,4.3388,4.4026,4.4734,4.5483,4.5738,4.5536,4.5612,4.5751,4.5917,4.5627,4.4553,4.2952,4.1645,4.0517,3.9602,0.0,0.0,0.0,0.0,3.7623,3.7755,3.7846,3.7914,3.8077,3.8469,0.0,0.0,0.0,0.0,0.0,0.0,0.0,4.0141,4.0822,4.137,4.1669,4.1484,4.1876,4.2084,4.1204,4.0822,3.976,3.6921,3.6796,3.7342,3.8066,3.832,0.0,0.0,0.0,3.9685,3.978,4.033,4.0798,4.1023,4.1372,4.1314,4.0651,4.0325,3.9823,3.8994,3.8925,3.9017,3.939,3.8463,3.7487,0.0,0.0,0.0,0.0,0.0,0.0,0.0,0.0,0.0,0.0,0.0,0.0,0.0,0.0,0.0,0.0,0.0,0.0,0.0,0.0,0.0,0.0,0.0,0.0,0.0,0.0,0.0,0.0,3.1237,3.1305,3.2162,3.4104,3.5396,0.0,0.0,0.0,0.0,0.0,0.0,3.9289,4.071,4.1782,4.2264,4.3789,4.491,4.5555,4.6001,4.6478,4.7079,4.7751,4.8057,4.8004,4.8225,4.8352,4.8523,4.8352,4.7951,4.7244,4.4609,4.2959,4.2073,4.1594,4.0995,4.0367,3.9858,3.9751,3.9956,4.054,4.0801,4.1037,4.1596,4.1869,4.1991,4.1882,0.0,0.0,0.0,0.0,4.243,4.3172,4.3485,4.3448,4.2965,4.34,4.3747,4.323,4.4154,4.3747,3.9469,3.9146,3.9594,3.9751,3.9939,0.0,4.0592,4.0775,4.0908,4.0995,4.0946,4.1131,4.1717,4.1841,4.1783,4.1544,4.1291,4.086,4.0253,3.9624,3.9577,4.0167,3.8796,3.8062,3.823,0.0,0.0,0.0,0.0,0.0,0.0,0.0,0.0,0.0,0.0,0.0,0.0,0.0,0.0,0.0,0.0,0.0,0.0,0.0,0.0,0.0,0.0,0.0,0.0,0.0,0.0,0.0,0.0,0.0,3.3511,3.4913,0.0,0.0,0.0,0.0,4.1414,4.2085,4.2795,4.3631,4.3783,4.4421,4.5728,4.662,4.717,4.717,4.8695,4.9339,4.9157,4.983,5.0049,4.986,4.9891,4.9891,4.9891,4.9891,4.9714,4.9312,4.7292,4.5541,4.4167,4.4137,4.3748,4.318,4.308,4.305,4.309,4.3386,4.3494,4.3572,4.3775,4.4269,4.4734,4.4289,4.4029,0.0,0.0,4.3084,4.3046,4.3482,4.3898,4.4312,4.4441,4.5003,4.534,4.4719,4.5693,4.5596,4.1928,4.1625,4.1571,4.0544,0.0,4.1246,4.1272,4.1742,4.1899,4.1326,4.1073,4.1104,4.1673,4.1902,4.2129,4.2182,4.259,4.2534,4.1732,4.2448,4.1908,3.9833,4.1623,4.0764,3.6664,3.7759,0.0,0.0,0.0,0.0,0.0,0.0,0.0,0.0,0.0,0.0,0.0,0.0,0.0,0.0,0.0,0.0,0.0,0.0,0.0,0.0,0.0,0.0,0.0,0.0,0.0,0.0,0.0,0.0,3.6018,3.8398,0.0,4.0302,4.2051,4.3485,4.4227,4.5011,4.5617,4.59,4.6761,4.7502,4.8115,4.87,4.9121,4.9219,4.9794,5.0039,4.9952,5.0831,5.1138,5.108,5.1344,5.1558,5.1723,5.1558,5.109,5.0441,4.9758,4.8407,4.683,4.6411,4.6112,4.5903,4.5903,4.5957,4.6124,4.6373,4.6568,4.6691,4.6905,4.714,4.7201,4.6607,4.6383,4.6281,4.6116,4.6015,4.5984,4.6133,4.6318,4.6432,4.6511,4.7034,4.7446,4.7178,4.7886,4.7762,4.5185,4.4296,4.3773,4.3183,4.2431,4.1873,4.1873,4.1716,4.1664,4.1847,4.1822,4.1748,4.1724,4.2111,4.2341,4.2129,4.2362,4.2488,4.256,4.3073,4.3022,4.2338,4.2454,4.2037,4.09,4.0236,3.9673,0.0,0.0,0.0,0.0,0.0,0.0,0.0,0.0,0.0,0.0,0.0,0.0,0.0,0.0,0.0,0.0,0.0,0.0,0.0,0.0,0.0,0.0,0.0,0.0,0.0,3.7745,3.9169,3.8195,4.076,4.2552,4.2473,4.4359,4.5853,4.6599,4.7431,4.7952,4.8079,4.8943,4.9609,4.9939,5.0567,5.1025,5.1328,5.1631,5.1798,5.1798,5.2393,5.2729,5.2729,5.2978,5.3193,5.333,5.3193,5.2612,5.1774,5.1714,5.0774,4.9329,4.8341,4.7967,4.7967,4.7967,4.8055,4.817,4.8304,4.8456,4.8638,4.8613,4.8604,4.8481,4.7804,4.7619,4.7558,4.7342,4.7434,4.7619,4.7619,4.7958,4.8296,4.8296,4.9004,4.9646,4.96,4.9924,4.9839,4.8407,4.6517,4.5001,4.4434,4.3285,4.2598,4.2992,4.2235,4.1873,4.2682,4.2056,4.1587,4.1593,4.1723,4.2035,4.2395,4.2808,4.3329,4.3934,4.473,4.4874,4.4157,4.4331,4.4212,4.3856,4.2573,4.1842,4.1607,0.0,0.0,0.0,0.0,0.0,0.0,0.0,0.0,0.0,0.0,0.0,0.0,0.0,0.0,0.0,0.0,0.0,0.0,0.0,0.0,0.0,0.0,0.0,3.7726,3.8937,4.0112,4.005,4.1875,4.36,4.4894,4.6444,4.7725,4.8605,4.9281,4.9896,5.038,5.0411,5.0717,5.1389,5.2287,5.2962,5.3422,5.4282,5.4683,5.4683,5.4714,5.4714,5.4714,5.4745,5.4745,5.4745,5.4714,5.4252,5.3407,5.3128,5.25,5.1542,4.9989,4.9359,4.9359,4.9359,4.9359,4.9344,4.9156,4.9217,4.931,4.889,4.8727,4.8573,4.7896,4.7681,4.7527,4.685,4.7157,4.7681,4.7681,4.8696,4.9712,4.9743,5.0759,5.1713,5.1669,5.1669,5.155,5.1267,4.8181,4.5287,4.4086,4.3345,4.3344,4.4463,4.328,0.0,4.3703,4.1821,4.0697,4.1298,4.0853,4.1193,4.2892,4.4121,4.51,4.5846,4.7469,4.7341,4.4961,4.7207,4.7372,4.4909,4.4561,4.3208,4.0788,0.0,0.0,0.0,0.0,0.0,0.0,0.0,0.0,0.0,0.0,0.0,0.0,0.0,0.0,0.0,0.0,0.0,0.0,0.0,0.0,0.0,4.1407,4.2046,3.8567,4.1008,4.3097,4.3112,4.4874,4.6278,4.6634,4.8027,4.9342,5.0259,5.112,5.1834,5.2459,5.2979,5.3392,5.3529,5.3806,5.4082,5.436,5.4591,5.4683,5.4683,5.5191,5.5438,5.5438,5.5961,5.6207,5.6176,5.5653,5.548,5.5486,5.4949,5.4453,5.388,5.1753,5.0968,5.0968,5.0968,5.0968,5.0984,5.1152,5.1287,5.1495,5.1563,5.1251,5.0728,5.0051,4.9497,4.8974,4.8266,4.8573,4.9097,4.9097,4.9774,5.0543,5.1036,5.1436,5.155,5.0984,5.0819,5.0517,4.9417,4.8008,4.6691,4.5855,4.447,4.3467,4.3386,4.2694,4.2239,4.2558,4.1705,4.1455,4.2448,4.2396,4.2683,4.3572,4.4304,4.4969,4.5594,4.7019,4.7544,4.6852,4.6986,4.603,4.3783,4.5424,4.5203,0.0,0.0,0.0,0.0,0.0,0.0,0.0,0.0,0.0,0.0,0.0,0.0,0.0,0.0,0.0,0.0,0.0,0.0,0.0,0.0,0.0,0.0,4.3114,4.3585,4.1703,4.3429,4.5068,4.5608,4.6873,4.8027,4.8865,5.011,5.1166,5.2029,5.2671,5.3253,5.3712,5.4187,5.4571,5.4941,5.4941,5.5142,5.5592,5.5592,5.5592,5.5592,5.6238,5.6577,5.6577,5.7285,5.7672,5.7641,5.7161,5.702,5.6966,5.647,5.5987,5.5396,0.0,0.0,0.0,0.0,5.2118,5.212,5.1713,5.1683,5.1893,5.1751,5.1502,5.1221,5.082,5.0605,5.0451,5.002,5.042,5.0987,5.1203,5.1785,5.2355,5.2654,5.2816,5.2675,5.189,5.1495,5.1011,4.9975,4.8925,0.0,4.7419,4.5785,4.4634,4.474,4.3649,4.2993,4.3429,4.2595,4.221,4.29,4.2539,4.2748,4.4004,4.465,0.0,0.0,0.0,4.9173,4.9275,4.8597,0.0,0.0,0.0,4.6882,4.4965,4.5453,0.0,0.0,4.0802,4.0217,0.0,0.0,0.0,0.0,0.0,0.0,0.0,0.0,0.0,0.0,0.0,0.0,0.0,0.0,0.0,0.0,4.4255,4.5313,4.5897,4.6169,4.6641,4.7581,4.8249,4.9314,5.1096,5.2171,5.3036,5.3778,5.4001,5.4318,5.4646,5.4694,0.0,0.0,0.0,5.6115,5.681,5.681,5.681,5.681,5.758,5.7919,5.7949,5.867,5.9008,5.9008,5.8947,5.8608,5.8116,5.7775,5.7308,5.6617,5.5274,5.4413,5.3839,5.3175,5.2997,5.2943,5.1805,0.0,0.0,5.0975,5.0892,5.1036,5.1036,5.1405,5.1805,5.1805,5.2298,5.2911,5.3414,5.3983,5.4429,5.4281,5.4348,5.4259,5.3496,5.2915,5.2305,5.1765,5.0445,4.9286,4.8897,4.7126,4.6039,4.6951,4.5332,4.4331,4.5243,4.4021,4.3197,4.3291,4.2291,0.0,4.4325,4.508,4.6311,4.8277,5.0162,5.1307,5.1526,5.0834,5.0003,4.907,4.8979,4.8133,4.6446,4.5914,4.5694,4.5758,4.4044,4.3084,0.0,0.0,0.0,0.0,0.0,0.0,0.0,0.0,0.0,0.0,0.0,0.0,0.0,0.0,0.0,4.4267,4.6463,4.8086,4.784,4.904,4.9505,4.8309,4.9613,5.0903,5.1449,5.2687,5.3875,5.4975,5.5084,5.549,5.6282,5.6313,5.6423,5.6594,5.6594,5.6686,5.681,5.681,5.681,5.681,5.8042,0.0,5.8639,5.9839,6.0393,6.0363,5.9839,5.9839,6.0178,5.9573,5.9113,5.8634,5.6762,5.5999,5.5768,5.5145,5.4392,5.381,5.3772,5.336,5.3025,5.3668,5.3545,5.3129,5.3129,5.2852,0.0,5.2513,5.3006,5.362,5.413,5.4358,5.451,5.4837,5.4534,5.3974,5.3323,5.307,5.2692,5.163,5.0691,5.0087,5.0235,4.7674,4.5619,4.5809,4.5078,4.464,4.479,4.4696,4.4893,4.5724,4.4792,4.4397,4.4991,4.5275,4.5901,4.7062,4.9419,5.0876,5.1122,5.0131,4.9426,4.9267,4.8845,4.8234,4.7323,4.7601,4.7457,4.6928,4.5665,4.5049,0.0,0.0,0.0,0.0,0.0,0.0,0.0,0.0,0.0,0.0,0.0,4.2507,4.4248,0.0,4.5696,4.7413,4.8194,4.8907,4.9708,5.0784,5.1213,5.0411,5.1665,5.2765,5.3239,5.4352,5.5274,5.5852,5.5998,5.6296,5.6779,5.681,5.681,5.681,5.681,5.681,5.681,5.681,5.6994,5.7333,5.83,5.8947,5.9316,6.0332,6.0794,6.0794,6.0455,6.0486,6.0763,6.0424,6.025,5.9942,5.8592,5.7622,5.6849,5.6176,5.5472,5.4782,5.4524,5.4234,5.4082,5.442,5.4421,5.4283,5.4528,5.4574,5.4665,5.4892,5.5187,5.5559,5.6068,5.5904,5.5613,5.5783,5.5378,5.4762,5.4104,5.3945,5.3724,5.2912,5.2334,5.1871,5.1592,4.9529,4.7718,4.7115,4.6397,4.6024,4.6042,4.6107,4.6383,4.6966,4.631,4.5978,4.6182,4.7014,4.7825,4.8634,5.0198,5.1122,5.1149,5.0611,5.0179,5.0002,4.9455,4.9284,4.9502,4.9365,4.9412,4.9653,4.9077,4.8051,0.0,0.0,0.0,0.0,0.0,0.0,0.0,4.0238,4.1061,4.2772,4.3594,4.4791,4.7109,4.6875,4.715,4.9923,4.9518,4.9451,5.1267,5.2048,5.2581,5.2902,5.3678,5.4448,5.5013,5.5877,5.6421,5.647,5.6664,5.681,5.681,5.681,5.681,5.681,5.681,5.681,5.681,5.681,5.7087,5.7641,5.8516,5.9193,5.9624,6.0578,6.0917,6.0794,6.0794,6.0794,6.0794,6.0794,6.0794,6.0763,6.0209,5.9123,5.7756,5.696,5.637,5.5838,5.5125,5.4896,5.4898,5.4863,5.4989,5.5224,5.575,5.6262,5.6761,5.7095,5.72,5.729,5.7624,5.7137,5.6595,5.6515,5.6089,5.5579,5.5044,5.4948,5.4749,5.4316,5.3935,5.348,5.2836,5.1518,5.018,4.8907,4.8143,4.7771,4.7788,4.7928,4.8031,4.7925,4.746,4.7195,4.7255,4.8848,5.0125,5.0683,5.1636,5.2093,5.1954,5.1846,5.1628,5.1282,5.0691,5.0855,5.1766,5.1372,5.1621,5.253,5.2613,5.1239,3.7315,3.8622,4.0311,4.0455,4.1013,4.1943,0.0,4.3853,4.4358,4.6515,4.7507,4.8019,4.816,4.9035,4.9634,4.9248,5.0056,5.1074,5.2123,5.3346,5.4449,5.5237,5.5053,5.4983,5.5315,5.5975,5.6519,5.6761,5.6761,5.681,5.681,5.681,5.681,5.681,5.681,5.681,5.681,5.681,5.684,5.6933,5.8793,5.9408,5.8947,6.0824,6.1379,6.0794,6.0794,6.0794,6.0794,6.0794,6.0794,6.0794,6.0701,6.0209,5.9358,5.8116,5.7223,5.6686,5.6577,5.6115,5.5684,5.633,5.6546,5.6659,5.7135,5.7308,5.734,5.7253,5.72,5.7164,5.6973,5.6401,5.5986,5.6427,5.5951,5.5425,5.536,5.5328,5.5205,5.479,5.4115,5.3667,5.3891,5.2613,5.1137,4.9689,4.9419,4.9329,4.9374,4.9938,5.0083,4.9462,4.891,4.8251,4.754,4.9539,5.0968,5.1208,5.3024,5.4157,5.4298,5.376,5.3422,5.3375,5.3144,5.3022,5.3203,5.3925,5.4377,5.4483,5.4856,5.3783,3.9998,4.1089,4.2166,4.2303,4.284,4.3647,4.4749,4.5537,4.6333,4.7394,4.8789,4.9793,4.9708,5.0475,5.126,5.1662,5.2199,5.2856,5.3622,5.4559,5.5312,5.5653,5.594,5.6089,5.6186,5.6462,5.6664,5.681,5.681,5.681,5.681,5.681,5.681,5.681,5.681,5.681,5.681,5.721,5.7795,5.8596,5.9378,6.0055,6.0547,6.1009,6.1071,6.0794,6.0794,6.0794,6.0794,6.0794,6.0794,6.0763,6.0363,6.0055,5.9686,5.8701,5.798,5.7333,5.6964,5.6625,5.6457,5.7022,5.7211,5.7291,5.7631,5.7734,5.7711,5.7501,5.7108,5.6766,5.6616,5.6121,5.5615,5.5822,5.5636,5.5409,5.5409,5.5409,5.5328,5.5164,5.4883,5.4633,5.4497,5.3965,5.3227,5.2349,5.1478,5.091,5.1075,5.1375,5.1386,5.0886,5.0239,4.9698,4.9161,5.0029,5.0964,5.1848,5.2704,5.3622,5.4652,5.4406,5.4252,5.4252,5.412,5.4366,5.504,5.5325,5.5782,5.6421,5.6589,5.6182,4.2505,4.3318,4.3789,4.3829,4.4557,4.5393,4.6067,4.714,4.8131,4.8624,4.9774,5.082,5.119,5.1498,5.2144,5.3498,5.3714,5.4022,5.4884,5.5407,5.5776,5.5961,5.6502,5.681,5.681,5.681,5.681,5.681,5.681,5.681,5.681,5.681,5.681,5.681,5.6994,5.7087,5.7087,5.7765,5.8547,5.9501,5.9901,6.0486,6.1255,6.0948,6.0794,6.0794,6.0794,6.0794,6.0794,6.0794,6.0794,6.0763,6.027,6.0086,5.9993,5.9316,5.8639,5.8011,5.7333,5.7012,5.6988,5.7183,5.7152,5.7166,5.7522,5.7584,5.7544,5.7355,5.6899,5.6446,5.6251,5.5798,5.5409,5.5409,5.5409,5.5409,5.5409,5.5409,5.5409,5.5409,5.5409,5.5287,5.5031,5.4957,5.4832,5.4497,5.3502,5.2767,5.274,5.2606,5.2452,5.2198,5.1616,5.1072,5.0726,5.1019,5.157,5.2442,5.2994,5.3776,5.4898,5.5191,5.5331,5.5472,5.5499,5.5997,5.6982,5.6957,5.7345,5.8162,5.8162,5.8162,4.4526,4.5087,4.5222,4.5253,4.6383,4.7681,4.8317,4.9097,4.9989,5.1313,5.1097,5.1097,5.2421,5.2144,5.2144,5.3498,5.3714,5.4176,5.5468,5.5684,5.5961,5.6686,5.681,5.681,5.681,5.681,5.681,5.681,5.681,5.681,5.681,5.681,5.681,5.681,5.7457,5.7795,5.7795,5.8423,5.8762,5.8824,6.0147,6.0455,5.987,6.0517,6.0794,6.0794,6.0794,6.0794,6.0794,6.0794,6.0794,6.0794,6.0763,6.0763,6.0701,6.0024,5.9347,5.8639,5.8011,5.7576,5.7276,5.6638,5.6304,5.622,5.6674,5.6849,5.6776,5.6612,5.651,5.6349,5.5636,5.5442,5.5409,5.5409,5.5409,5.5409,5.5409,5.5409,5.5409,5.5409,5.5409,5.5409,5.5369,5.5369,5.5369,5.5369,5.5328,5.4998,5.4114,5.364,5.3377,5.3346,5.2905,5.239,5.1713,5.2838,5.333,5.276,5.4545,5.5622,5.5653,5.6378,5.694,5.7433,5.787,5.8378,5.894,5.9355,5.9575,5.9652,5.9652,5.9652,4.7098,4.7442,4.7432,4.7496,4.8255,4.9158,4.9835,5.0543,5.0882,5.0451,5.1251,5.1898,5.1436,5.2637,5.3868,5.4283,5.5161,5.5899,5.6378,5.644,5.6532,5.6779,5.681,5.681,5.681,5.681,5.681,5.681,5.681,5.681,5.681,5.7241,5.7487,5.7487,5.8085,5.8622,5.8967,5.9302,5.9858,6.0676,6.1196,6.1101,6.0455,6.0701,6.0794,6.0794,6.1206,6.1155,6.0845,6.1206,6.1103,6.0794,6.0794,6.1,6.1328,6.108,6.1064,6.0989,5.9487,5.8287,5.748,5.7958,5.742,5.6547,5.6616,5.6582,5.6495,5.5951,5.5766,5.5733,5.5474,5.5409,5.5409,5.5409,5.5409,5.5409,5.5409,5.5409,5.5409,5.5409,5.5409,5.5409,5.5409,5.5409,5.5409,5.5409,5.5164,5.4874,5.4581,5.4157,5.3856,5.3856,5.3421,5.3064,5.2847,5.2537,5.2667,5.3345,5.3878,5.4586,5.5441,5.6044,5.6398,5.6581,5.7032,5.7344,5.752,5.8076,5.8292,5.8292,5.8292,5.8292,4.9068,4.9158,4.9004,4.9273,4.9712,5.0236,5.0882,5.1374,5.1528,5.0882,5.1805,5.2606,5.2206,5.3345,5.4468,5.5007,5.5807,5.644,5.644,5.6656,5.681,5.681,5.681,5.681,5.681,5.681,5.681,5.681,5.681,5.6902,5.7148,5.758,5.7919,5.8165,5.8993,5.9632,5.9947,6.0315,6.0823,6.1582,6.1897,6.1763,6.1379,6.1379,6.1379,6.1379,6.2003,6.2022,6.1721,6.2072,6.2022,6.1702,6.1481,6.1582,6.1885,6.1885,6.2085,6.2144,6.0463,5.919,5.8325,5.8236,5.7524,5.6606,5.6233,5.6122,5.6025,5.5539,5.5409,5.5409,5.5409,5.5409,5.5409,5.5409,5.5409,5.5409,5.5409,5.5409,5.5409,5.5409,5.5409,5.5409,5.5409,5.5409,5.5409,5.5409,5.5164,5.4998,5.4998,5.4655,5.4359,5.4359,5.3899,5.364,5.364,5.3003,5.2909,5.3779,5.3965,5.4423,5.5256,5.5808,5.6157,5.6335,5.6643,5.6904,5.7077,5.7452,5.7621,5.7621,5.7621,5.7621,5.0317,5.0185,4.9866,5.0574,5.0759,5.0913,5.159,5.1744,5.1929,5.2544,5.2698,5.3098,5.4345,5.4099,5.4206,5.5468,5.5715,5.5745,5.5745,5.6378,5.681,5.681,5.681,5.681,5.681,5.681,5.681,5.681,5.684,5.7148,5.7795,5.7888,5.8227,5.8874,6.0023,6.0665,6.0715,6.1371,6.1683,6.1633,6.2135,6.2351,6.2319,6.2351,6.24,6.2418,6.3132,6.3466,6.3466,6.3514,6.3466,6.3371,6.2793,6.2499,6.258,6.258,6.2548,6.2326,6.0915,6.0232,5.9663,5.7552,5.6713,5.6349,5.5636,5.5409,5.5409,5.5409,5.5409,5.5409,5.5409,5.5409,5.5409,5.5409,5.5409,5.5409,5.5409,5.5409,5.5409,5.5409,5.5409,5.5409,5.5409,5.5409,5.5409,5.5409,5.5409,5.5409,5.5409,5.504,5.4832,5.4832,5.4444,5.4146,5.4146,5.4103,5.4103,5.4103,5.4703,5.5083,5.5083,5.5715,5.6284,5.6721,5.6721,5.698,5.7524,5.7524,5.7524,5.7524,5.7524,5.7524,5.125,5.0695,4.9959,5.1159,5.1436,5.1621,5.2298,5.2452,5.2359,5.2021,5.2359,5.2821,5.316,5.3899,5.473,5.5561,5.6146,5.6532,5.6532,5.6686,5.681,5.681,5.681,5.681,5.681,5.681,5.681,5.681,5.7272,5.7641,5.7795,5.8731,5.9549,6.0104,6.0908,6.1734,6.2521,6.268,6.258,6.2184,6.2333,6.2098,6.1624,6.213,6.2409,6.2475,6.3556,6.4077,6.423,6.4629,6.4584,6.4184,6.4031,6.4216,6.4571,6.4571,6.4425,6.4056,6.2713,6.1245,5.9772,5.8526,5.7387,5.6349,5.5636,5.5409,5.5409,5.5409,5.5409,5.5409,5.5409,5.5409,5.5409,5.5409,5.5409,5.5409,5.5409,5.5409,5.5409,5.5409,5.5409,5.5409,5.5409,5.5409,5.5409,5.5409,5.5409,5.5409,5.5409,5.5287,5.5246,5.5246,5.4874,5.4623,5.4623,5.4316,5.4103,5.4103,5.4603,5.4868,5.4868,5.5323,5.5628,5.5753,5.5753,5.5836,5.596,5.596,5.596,5.596,5.596,5.596,5.1017,5.0816,5.0451,5.1805,5.2144,5.2236,5.2637,5.2698,5.2513,5.1836,5.2483,5.316,5.316,5.3976,5.4806,5.5222,5.5838,5.6272,5.6231,5.6584,5.6906,5.7067,5.6954,5.681,5.681,5.681,5.6933,5.7241,5.7611,5.7949,5.8208,5.9224,6.0085,6.0668,6.1496,6.2333,6.3164,6.3437,6.3293,6.2776,6.2652,6.2397,6.2013,6.2409,6.2751,6.3115,6.4442,6.5215,6.5657,6.5985,6.5908,6.5613,6.5337,6.5382,6.5636,6.5636,6.5126,6.4308,6.3264,6.1783,6.0168,5.897,5.7871,5.6834,5.6122,5.5668,5.5409,5.5409,5.5409,5.5409,5.5409,5.5409,5.5409,5.5409,5.5409,5.5409,5.5409,5.5409,5.5409,5.5409,5.5409,5.5409,5.5409,5.5409,5.5409,5.5409,5.5409,5.5409,5.5409,5.5409,5.5409,5.5409,5.5205,5.504,5.504,5.4832,5.4665,5.4665,5.4915,5.504,5.504,5.5287,5.5409,5.5409,5.5409,5.5409,5.5409,5.5409,5.5409,5.5409,5.5409,5.5409,5.0232,5.0636,5.1005,5.2267,5.2575,5.2575,5.2575,5.2513,5.2267,5.1682,5.2513,5.3345,5.3437,5.3883,5.4345,5.4529,5.5177,5.5658,5.5655,5.6403,5.7115,5.7543,5.7163,5.6906,5.6906,5.6971,5.7298,5.7978,5.8248,5.8523,5.8935,5.9664,6.0383,6.1072,6.2085,6.2825,6.3293,6.3755,6.3723,6.318,6.3088,6.2964,6.2912,6.3001,6.3496,6.4233,6.5597,6.6575,6.7236,6.7236,6.7236,6.7154,6.661,6.633,6.6186,6.6186,6.522,6.3781,6.3229,6.2049,6.0562,5.9069,5.8227,5.7579,5.6737,5.6057,5.5539,5.5442,5.5409,5.5409,5.5409,5.5409,5.5409,5.5409,5.5409,5.5409,5.5409,5.5409,5.5409,5.5409,5.5409,5.5409,5.5409,5.5409,5.5409,5.5409,5.5409,5.5409,5.5409,5.5409,5.5409,5.5409,5.5409,5.5409,5.5409,5.5409,5.5409,5.5409,5.5409,5.5409,5.5409,5.5409,5.5409,5.5409,5.5409,5.5409,5.5409,5.5409,5.5409,5.5409,5.5409,5.5409,4.9631,5.0266,5.0882,5.1682,5.1867,5.1867,5.1867,5.1436,5.1005,5.0882,5.1067,5.1374,5.1959,5.2144,5.2606,5.3714,5.4822,5.5734,5.6262,5.7245,5.798,5.8072,5.7653,5.7401,5.7401,5.7902,5.8525,5.9236,6.0504,6.0803,5.9664,6.0699,6.1759,6.2776,6.3389,6.3755,6.385,6.3976,6.3653,6.2959,6.3473,6.3472,6.2925,6.4042,6.495,6.567,6.6554,6.7298,6.7925,6.7925,6.7925,6.7925,6.7805,6.7387,6.6838,6.6838,6.5551,6.3802,6.3666,6.2356,6.0453,5.908,5.8508,5.8194,5.6899,5.6413,5.6187,5.5571,5.5409,5.5409,5.5409,5.5409,5.5409,5.5409,5.5409,5.5409,5.5409,5.5409,5.5409,5.5409,5.5409,5.5409,5.5409,5.5409,5.5409,5.5409,5.5409,5.5409,5.5409,5.5409,5.5409,5.5409,5.5409,5.5409,5.5409,5.5409,5.5409,5.5409,5.5409,5.5409,5.5409,5.5409,5.5409,5.5409,5.5409,5.5409,5.5409,5.5409,5.5409,5.5409,5.5409,5.5409,4.9497,4.9928,5.0328,5.1005,5.119,5.119,5.119,5.0913,5.0482,4.9774,4.9897,5.0266,5.0605,5.0667,5.1221,5.2914,5.3844,5.4854,5.619,5.7095,5.7923,5.8546,5.8165,5.784,5.784,5.8469,5.9338,6.044,6.1556,6.2042,6.1758,6.2604,6.3148,6.3212,6.3785,6.3905,6.3441,6.3779,6.3571,6.2852,6.3562,6.371,6.3454,6.443,6.5297,6.6038,6.673,6.7461,6.8083,6.8083,6.8083,6.8049,6.7669,6.729,6.6945,6.6566,6.5323,6.3786,6.3786,6.2643,6.1044,6.0423,5.9685,5.8922,5.7891,5.7312,5.6866,5.6139,5.5701,5.5409,5.5409,5.5409,5.5409,5.5409,5.5409,5.5409,5.5409,5.5409,5.5409,5.5409,5.5409,5.5409,5.5409,5.5409,5.5409,5.5409,5.5409,5.5409,5.5409,5.5733,5.583,5.5442,5.5409,5.5409,5.5409,5.5409,5.5409,5.5409,5.5766,5.596,5.596,5.6349,5.6543,5.6543,5.6543,5.6543,5.6543,5.6543,5.6543,5.6543,5.6154,5.596,4.9251,4.9558,4.9805,5.0328,5.0482,5.0451,5.0297,5.0143,4.9682,4.845,4.8635,4.8974,4.885,4.9035,4.9774,5.1374,5.2479,5.3815,5.5525,5.6702,5.7738,5.8774,5.8605,5.8349,5.8349,5.91,6.0182,6.1685,6.2859,6.3605,6.3878,6.4392,6.4433,6.3847,6.4165,6.4021,6.3316,6.3693,6.3595,6.3043,6.376,6.4195,6.4371,6.5066,6.5756,6.6479,6.6991,6.7566,6.8083,6.7911,6.7842,6.7773,6.7049,6.6635,6.6428,6.5842,6.4736,6.3548,6.3704,6.2826,6.1649,6.1843,6.1039,5.9886,5.9245,5.8519,5.7811,5.711,5.644,5.5904,5.6027,5.6067,5.6067,5.6067,5.5986,5.5863,5.5863,5.5863,5.5863,5.5863,5.5863,5.5863,5.5863,5.5863,5.5863,5.5863,5.5863,5.5863,5.5863,5.6381,5.651,5.5928,5.5863,5.5863,5.5863,5.5863,5.5863,5.5863,5.6413,5.6737,5.6737,5.7255,5.7621,5.7621,5.7621,5.7621,5.7621,5.7621,5.7621,5.7621,5.6996,5.6779,4.8543,4.9189,4.9682,4.9774,4.9774,4.962,4.8943,4.8327,4.7681,4.6942,4.685,4.6696,4.608,4.6973,4.7865,4.805,5.0568,5.2907,5.4134,5.6408,5.8081,5.8583,5.8811,5.8959,5.8959,6.0022,6.139,6.2921,6.5854,6.6874,6.5238,6.5215,6.5415,6.5801,6.5177,6.481,6.4743,6.4118,6.3826,6.3802,6.4424,6.5087,6.5854,6.649,6.7212,6.7901,6.794,6.8049,6.8049,6.7359,6.7083,6.7014,6.629,6.5531,6.491,6.4841,6.3913,6.2804,6.3408,6.277,6.1763,6.2318,6.2048,6.1361,6.0652,5.9916,5.9276,5.8535,5.7887,5.7521,5.8076,5.8239,5.8239,5.8239,5.778,5.7427,5.7427,5.7427,5.7427,5.7427,5.7427,5.7427,5.7427,5.7427,5.7427,5.7427,5.7427,5.7427,5.7427,5.7492,5.745,5.7385,5.7427,5.7427,5.7427,5.7427,5.7427,5.7427,5.7492,5.7482,5.7482,5.7547,5.7621,5.7621,5.7621,5.7621,5.7621,5.7621,5.7621,5.7621,5.7514,5.7609,4.7926,4.8204,4.8512,4.8943,4.8419,4.7742,4.7465,4.6573,4.5588,4.491,4.4787,4.4856,4.4941,4.5095,4.5834,4.7865,4.9502,5.1445,5.3965,5.5854,5.7408,5.8683,5.8947,5.9241,5.9946,6.0861,6.2326,6.4652,6.6867,6.7599,6.6357,6.6765,6.6508,6.5426,6.5505,6.4933,6.3609,6.4117,6.4228,6.3863,6.5386,6.6318,6.6627,6.731,6.7807,6.8083,6.8083,6.7842,6.7428,6.7118,6.6738,6.6255,6.5462,6.4979,6.4634,6.4186,6.3692,6.3268,6.3526,6.3268,6.2855,6.3121,6.3042,6.2668,6.1587,6.1025,6.0549,5.9448,5.8962,5.8632,5.81,5.8224,5.8518,5.8518,5.8314,5.8017,5.7706,5.7621,5.7621,5.7621,5.7621,5.7621,5.7621,5.7621,5.7621,5.7621,5.7621,5.7621,5.7621,5.7935,5.8227,5.8227,5.7838,5.7621,5.7621,5.7925,5.8141,5.8141,5.8946,5.9414,5.9414,5.9845,6.0076,6.0076,6.0076,5.9869,5.9484,5.9484,5.9272,5.8842,5.8421,5.8323,4.7263,4.7287,4.7434,4.7896,4.7157,4.6203,4.5803,4.4818,4.3741,4.2848,4.2848,4.3198,4.3772,4.3883,4.4771,4.7441,4.8562,5.0134,5.314,5.4794,5.636,5.8192,5.8908,5.9689,6.0591,6.1873,6.3555,6.5769,6.7049,6.7532,6.7014,6.729,6.6759,6.5241,6.5487,6.4977,6.3687,6.4359,6.4771,6.4742,6.6269,6.7195,6.7519,6.792,6.8241,6.8435,6.796,6.7541,6.7138,6.6574,6.6014,6.5462,6.4669,6.4358,6.4324,6.3772,6.36,6.36,6.36,6.36,6.36,6.36,6.36,6.3417,6.2547,6.2096,6.1689,6.0719,6.0431,6.0186,5.93,5.9389,5.9711,5.9711,5.9591,5.93,5.8629,5.8535,5.845,5.8237,5.8194,5.8194,5.8194,5.8194,5.8194,5.8194,5.8194,5.8194,5.8194,5.882,5.9241,5.9241,5.8997,5.8712,5.8535,5.9095,5.9463,5.9463,6.0371,6.0912,6.0912,6.1415,6.1716,6.1716,6.1716,6.1391,6.0717,6.0928,6.0548,5.9684,5.9372,5.9284,4.6439,4.6593,4.6603,4.6603,4.6111,4.5249,4.3932,4.3094,4.2232,4.0812,4.1124,4.1723,4.2046,4.3474,4.4939,4.6033,4.7592,4.9264,5.1162,5.3215,5.5134,5.6742,5.8716,6.0161,6.0656,6.3228,6.5147,6.5838,6.6566,6.7014,6.698,6.629,6.5911,6.5876,6.5117,6.5083,6.5876,6.5083,6.5462,6.698,6.698,6.7592,6.867,6.828,6.8551,6.9233,6.7638,6.7211,6.7414,6.5547,6.4703,6.4634,6.391,6.36,6.36,6.36,6.36,6.36,6.36,6.36,6.36,6.36,6.36,6.36,6.36,6.3121,6.2591,6.2591,6.2591,6.2557,6.2557,6.2557,6.2557,6.2557,6.2122,6.148,6.0811,6.0642,6.0473,5.9816,5.9684,5.9684,5.9684,5.9684,5.9684,5.9684,5.9684,5.9684,5.9684,6.0292,6.0675,6.0675,6.1268,6.1399,6.0727,6.1276,6.1683,6.1683,6.1683,6.1683,6.1683,6.1716,6.1716,6.1716,6.1716,6.1391,6.0717,6.135,6.102,5.9716,6.0378,6.0591,4.5706,4.5583,4.5352,4.5784,4.439,4.2756,4.2325,4.097,3.9745,3.9515,4.0078,4.0956,4.2236,4.2516,4.3455,4.6139,4.6771,4.8057,5.1287,5.3228,5.5155,5.7226,5.9581,6.1267,6.1929,6.4181,6.5443,6.5117,6.6255,6.6773,6.6255,6.6014,6.5876,6.5876,6.5635,6.5786,6.6329,6.6535,6.7066,6.7815,6.8339,6.8763,6.9085,6.8183,6.8052,6.839,6.6875,6.6289,6.6282,6.5137,6.4542,6.4242,6.3779,6.36,6.36,6.36,6.36,6.36,6.36,6.36,6.36,6.36,6.36,6.36,6.36,6.3454,6.3305,6.3305,6.2663,6.2195,6.3045,6.2931,6.2591,6.2591,6.2436,6.2122,6.1513,6.102,6.0633,6.042,5.999,5.9716,5.9716,5.9716,5.9716,5.9716,6.0076,6.0378,6.0378,6.0978,6.1391,6.1391,6.1923,6.2043,6.1432,6.1963,6.2318,6.2318,6.274,6.3004,6.3004,6.3004,6.3004,6.3004,6.3004,6.2935,6.2818,6.3018,6.2721,6.1896,6.1764,6.1797,4.4525,4.4683,4.4646,4.4808,4.3416,4.1845,4.1318,4.0016,3.8976,3.9336,3.9996,4.0941,4.2544,4.3018,4.4028,4.6575,4.7322,4.8655,5.1828,5.3592,5.5525,5.8203,6.0284,6.1796,6.2544,6.4346,6.5359,6.5152,6.6014,6.6497,6.629,6.6167,6.628,6.6557,6.628,6.6468,6.7153,6.7607,6.8103,6.8603,6.906,6.9203,6.9031,6.8174,6.7899,6.8011,6.6521,6.5929,0.0,6.491,6.4346,6.4075,6.3712,6.36,6.36,6.36,6.36,6.36,6.36,6.36,6.36,6.36,6.36,6.36,6.36,6.36,6.36,6.36,6.3042,6.2586,6.338,6.3305,6.2969,6.2969,6.2969,6.2817,6.2161,6.1554,6.0978,6.076,6.0378,6.0109,6.0109,6.0292,6.043,6.043,6.0811,6.1061,6.1061,6.1635,6.2043,6.2043,6.2625,6.2817,6.243,6.2779,6.2969,6.2969,6.338,6.36,6.36,6.36,6.3738,6.4014,6.4014,6.4057,6.4194,6.3956,6.3788,6.3642,6.3023,6.2979,0.0,4.3771,4.4235,4.3661,4.295,4.205,4.0839,3.9989,0.0,4.0025,4.0622,4.1514,4.2973,4.4591,4.6104,4.7257,4.8847,5.0659,5.2706,5.4285,5.6358,5.95,6.0772,6.1719,6.246,6.384,6.4979,6.5707,6.5952,6.6332,6.7061,6.678,6.6969,6.7738,6.7111,6.726,6.8324,6.8324,6.8676,6.9379,6.9309,6.9103,6.8716,6.8186,6.8011,6.7947,6.6388,6.5968,6.6238,6.4708,6.4111,6.4111,6.3749,6.36,6.36,6.36,6.36,6.36,6.36,6.36,6.36,6.36,6.36,6.36,6.36,6.36,6.36,6.36,6.36,6.36,6.36,6.36,6.36,6.36,6.36,6.3417,6.2745,6.2161,6.1595,6.0928,6.076,6.076,6.076,6.1268,6.1716,6.1716,6.179,6.1864,6.1756,6.2347,6.2736,6.2668,6.323,6.36,6.36,6.36,6.36,6.36,6.36,6.36,6.36,6.3634,6.3979,6.4703,6.4807,6.492,6.5056,6.4443,6.4435,6.5045,6.4153,6.4128,4.16,0.0,4.218,4.2589,4.1401,4.0354,0.0,3.9922,3.9042,4.0193,4.0575,4.1308,4.3235,4.4363,4.5812,4.8203,4.9165,5.0621,5.352,5.5913,5.7883,5.9271,6.0052,6.0617,6.0909,6.3224,6.468,6.4593,6.6227,6.7382,6.7891,6.7861,6.8288,6.9316,6.921,6.9246,6.9494,6.9494,6.9708,7.0202,6.9598,6.9241,6.9096,6.7512,6.6975,6.7163,6.5612,6.5329,6.586,6.4603,6.4252,6.4498,6.3821,6.36,6.36,6.36,6.36,6.36,6.36,6.36,6.36,6.36,6.36,6.36,6.36,6.36,6.36,6.36,6.36,6.36,6.36,6.36,6.36,6.36,6.36,6.3417,6.2745,6.2474,6.2201,6.1595,6.1473,6.1473,6.1473,6.1595,6.1716,6.1716,6.2628,6.3074,6.2464,6.3448,6.3961,6.3449,6.3526,6.36,6.36,6.36,6.36,6.36,6.36,6.36,6.36,6.4152,6.4531,6.4703,6.5842,6.6454,6.6509,6.6378,6.6403,6.6568,6.5546,6.4937,4.0696,4.1204,4.1694,4.1522,4.1132,4.0738,4.0596,4.0225,4.022,4.1299,4.178,4.2453,4.3912,4.5963,4.7634,4.8421,5.0746,5.3268,5.5529,5.7208,5.8555,5.9519,6.0134,6.0868,6.1789,6.3576,6.4912,6.5477,6.698,6.8103,6.8673,6.889,6.9246,6.9885,7.0097,7.0167,7.0167,7.0167,7.0094,6.9943,6.9515,6.8944,6.823,6.714,6.6604,6.6378,6.5592,6.5412,6.574,6.4944,6.4636,6.4637,6.4074,6.3712,6.36,6.36,6.36,6.36,6.36,6.36,6.36,6.36,6.36,6.36,6.36,6.36,6.36,6.36,6.36,6.36,6.36,6.36,6.36,6.36,6.36,6.3491,6.3121,6.2817,6.2513,6.2161,6.2082,6.2082,6.2082,6.2391,6.2688,6.3028,6.3708,6.4038,6.3593,6.424,6.4427,6.3669,6.36,6.36,6.36,6.36,6.36,6.36,6.36,6.36,6.36,6.3979,6.4358,6.4703,6.6221,6.6807,6.6497,6.6524,6.6365,6.5949,6.5346,6.4757,4.0113,4.1196,4.2038,4.0725,4.1255,4.1724,4.0211,4.0835,4.1903,4.2755,4.3461,4.4243,4.5146,4.7967,4.9886,4.8961,5.3037,5.6712,5.7829,5.8423,5.9059,5.9967,6.0686,6.1772,6.3371,6.4358,6.5478,6.6954,6.7939,6.8784,6.9453,6.9778,6.9991,6.9991,7.0306,7.0514,7.0514,7.0371,6.9979,6.9267,6.9087,6.8266,6.6981,6.6874,6.6446,6.5804,6.5804,6.5804,6.5772,6.5344,6.5011,6.4637,6.4252,6.3894,6.36,6.36,6.36,6.36,6.36,6.36,6.36,6.36,6.36,6.36,6.36,6.36,6.36,6.36,6.36,6.36,6.36,6.36,6.36,6.36,6.36,6.36,6.3454,6.3083,6.2706,6.2629,6.2668,6.2745,6.2745,6.3299,6.3945,6.4462,6.4738,6.4807,6.4565,6.4634,6.4427,6.3669,6.36,6.36,6.36,6.36,6.36,6.36,6.36,6.3634,6.3772,6.3772,6.4117,6.4876,6.6152,6.6497,6.5876,6.5773,6.5359,6.4703,6.4502,6.4074,4.0113,4.1299,4.2178,4.0691,4.0475,4.0818,4.1566,4.1862,4.2379,4.3697,4.4569,4.5586,4.734,4.8524,4.9948,5.2269,5.5394,5.7868,5.884,6.0007,6.063,6.029,6.1395,6.2367,6.2786,6.4603,6.6215,6.7408,6.8823,6.9849,7.0306,7.0375,7.0375,7.0375,7.048,7.0514,7.0514,6.9836,6.9444,6.9301,6.798,6.7231,6.6981,6.6303,6.5911,6.5804,6.5804,6.5804,6.5772,6.5344,6.5011,6.4637,6.4252,6.3894,6.36,6.36,6.36,6.36,6.36,6.36,6.36,6.36,6.36,6.36,6.36,6.36,6.36,6.36,6.36,6.36,6.36,6.36,6.36,6.36,6.36,6.3417,6.2893,6.3121,6.3305,6.2706,6.3045,6.3417,6.3417,6.408,6.4358,6.3841,6.4876,6.5221,6.3945,6.4324,6.4427,6.3669,6.36,6.36,6.36,6.36,6.36,6.36,6.36,6.3876,6.4496,6.4531,6.491,6.5669,6.5945,6.5979,6.5876,6.5221,6.4807,6.4669,6.4007,6.3473,4.0214,4.1118,4.1903,4.0721,4.1943,4.346,4.329,4.3816,4.4519,4.5107,4.5788,4.6939,4.906,5.0627,5.2809,5.6385,5.7226,5.8082,5.9867,6.053,6.1051,6.1777,6.2401,6.3373,6.4875,6.5923,6.7082,6.8423,6.9597,7.0306,7.0514,7.0514,7.0514,7.0514,7.0514,7.03,6.9872,6.9051,6.8658,6.8658,6.7517,6.6767,6.6339,6.5982,6.5804,6.5804,6.5804,6.5804,6.5804,6.5607,6.5214,6.4672,6.4498,6.4074,6.36,6.36,6.36,6.36,6.36,6.36,6.36,6.36,6.36,6.36,6.36,6.36,6.36,6.36,6.36,6.36,6.36,6.36,6.36,6.36,6.36,6.3526,6.323,6.338,6.3526,6.323,6.338,6.3738,6.4117,6.4152,6.4255,6.4772,6.5007,6.4866,6.4289,6.4384,6.4315,6.3669,6.36,6.36,6.36,6.36,6.36,6.36,6.36,6.3738,6.4083,6.4496,6.4855,6.5191,6.5574,6.54,6.46,6.4568,6.3971,6.2857,6.3017,6.2831,4.0485,4.117,4.1938,4.1704,4.3527,4.5114,4.4271,4.5399,4.6651,4.6749,4.767,4.9024,5.0927,5.3141,5.5533,5.8312,5.8233,5.8459,6.0443,6.0841,6.1571,6.3335,6.3474,6.4448,6.6987,6.7267,6.7909,6.9479,7.0157,7.0514,7.0514,7.0514,7.0514,7.0514,7.0336,6.9943,6.9337,6.8337,6.7838,6.7838,6.7053,6.641,6.5804,6.5804,6.5804,6.5804,6.5804,6.5772,6.564,6.564,6.5214,6.4568,6.4568,6.4181,6.36,6.36,6.36,6.36,6.36,6.36,6.36,6.36,6.36,6.36,6.36,6.36,6.36,6.36,6.36,6.36,6.36,6.36,6.36,6.36,6.36,6.36,6.36,6.3738,6.3841,6.3841,6.4014,6.4324,6.4876,6.4496,6.4462,6.5462,6.4931,6.4446,6.4424,6.4312,6.4033,6.3669,6.36,6.36,6.36,6.3749,6.3858,6.3858,6.3858,6.3858,6.3858,6.4523,6.4917,6.4839,6.5192,6.4839,6.371,6.3839,6.3084,6.1534,6.2234,6.2357,4.0933,4.1856,4.3046,4.4649,4.3905,4.2932,4.3535,4.5684,4.7833,4.8627,5.0723,5.2605,5.3409,5.5348,5.6541,5.5506,5.7705,5.9671,6.0104,6.1317,6.2759,6.4318,6.4496,6.5419,6.7802,6.8016,6.8694,7.03,7.0478,7.0514,7.0514,7.0514,7.0514,7.0514,6.98,6.9372,6.9267,6.7802,6.7053,6.7053,6.6268,6.5875,6.5804,6.5804,6.5804,6.5804,6.5804,6.5575,6.5245,6.5245,6.4808,6.4146,6.4146,6.393,6.36,6.36,6.36,6.36,6.36,6.36,6.36,6.36,6.36,6.36,6.36,6.36,6.36,6.36,6.36,6.36,6.36,6.36,6.36,6.36,6.36,6.36,6.36,6.4117,6.4634,6.4634,6.5221,6.5738,6.5773,6.5738,6.5497,6.4876,6.4738,6.4462,6.3772,6.3669,6.3634,6.36,6.36,6.36,6.36,6.4147,6.4532,6.4532,6.4532,6.4532,6.4532,6.5174,6.5533,6.5526,6.4852,6.4429,6.4322,6.3076,6.235,6.2242,6.2009,6.2076,4.1239,4.2146,4.3407,4.5029,4.4909,4.4973,4.7264,4.8717,4.9965,5.1093,5.2371,5.372,5.5176,5.6916,5.8005,5.75,5.8764,6.0046,6.0701,6.2056,6.3371,6.4456,6.5054,6.6053,6.7909,6.8088,6.8766,7.0371,7.0514,7.0514,7.0514,7.0514,7.0264,6.98,6.9479,6.8837,6.7873,6.7267,6.6731,6.6232,6.5946,6.5804,6.5804,6.5804,6.5804,6.5804,6.5804,6.5575,6.5247,6.5743,6.5512,6.4875,6.5142,6.5164,6.5014,6.5014,6.5014,6.4945,6.4462,6.4289,6.422,6.3738,6.36,6.36,6.36,6.36,6.36,6.36,6.36,6.36,6.36,6.36,6.36,6.36,6.3945,6.4289,6.4289,6.4876,6.5428,6.5428,6.5669,6.5876,6.5876,6.5462,6.5048,6.4738,6.4212,6.3761,6.3634,6.3489,6.3452,6.36,6.3967,6.4218,6.4218,6.4838,6.5237,6.5237,6.5237,6.5237,6.5237,6.5462,6.5565,6.5497,6.5172,6.456,6.3581,6.3511,6.3075,6.2322,6.264,6.306,4.2039,4.2821,4.3923,4.5901,4.6435,4.7258,5.0271,5.1226,5.1819,5.3176,5.3991,5.4836,5.6143,5.7501,5.8319,5.8083,5.9349,6.0536,6.1142,6.249,6.3798,6.4848,6.5233,6.6125,6.7909,6.8088,6.8766,7.0371,7.0514,7.0514,7.0514,7.0264,6.9872,6.9303,6.8837,6.8088,6.6981,6.6731,6.6339,6.5804,6.5804,6.5804,6.5804,6.5804,6.5804,6.5804,6.5925,6.5767,6.5435,6.6143,6.6039,6.5565,6.6309,6.6445,6.6294,6.6518,6.6445,6.6187,6.5632,6.5273,6.4979,6.4496,6.4324,6.4324,6.4324,6.4324,6.4324,6.4324,6.4324,6.4324,6.4324,6.4117,6.4014,6.4255,6.4703,6.5083,6.5083,6.5669,6.6152,6.5983,6.6083,6.6152,6.5911,6.5221,6.4703,6.4703,6.3971,6.3452,6.36,6.3675,6.3823,6.4182,6.4635,6.4905,6.4905,6.5561,6.5832,6.5546,6.5766,6.5796,6.5546,6.5766,6.5734,6.5375,6.514,6.4512,6.3447,6.3911,6.3698,6.2831,6.3498,6.4012,4.3431,4.3938,4.4702,4.7578,4.8429,4.9187,5.183,5.2636,5.3204,5.4599,5.5655,5.6303,5.6303,5.6945,5.7214,5.6438,5.9047,6.121,6.1293,6.2516,6.3984,6.559,6.509,6.5518,6.7838,6.8088,6.8766,7.0371,7.0514,7.0514,7.0478,6.9729,6.9267,6.9301,6.7802,6.6981,6.6981,6.6196,6.5804,6.5804,6.5804,6.5804,6.5804,6.5804,6.5804,6.5807,6.623,6.6177,6.5829,6.6204,6.6182,6.6031,6.7512,6.7648,6.7095,6.7817,6.7614,6.6989,6.6989,6.6518,6.5914,6.5914,6.5914,6.5914,6.5914,6.5914,6.5876,6.5876,6.5876,6.5876,6.5876,6.529,6.491,6.5704,6.5876,6.5876,6.5876,6.6462,6.6773,6.6014,6.6462,6.6738,6.6014,6.5221,6.4703,6.4703,6.4048,6.3637,6.3637,6.4182,6.4872,6.5526,6.559,6.559,6.559,6.6283,6.6315,6.5482,6.608,6.6135,6.541,6.608,6.6109,6.5301,6.4584,6.4217,6.4217,6.4078,6.4009,6.4009,6.4482,6.4751,4.28,4.3803,4.5005,4.77,4.8992,5.0292,5.2869,5.3487,5.3948,5.5553,5.5722,5.5795,5.6445,5.6727,5.6979,5.7292,5.8589,5.9934,6.1082,6.1562,6.2613,6.4685,6.4746,6.5353,6.7163,6.7802,6.8516,6.9586,7.0193,7.0264,6.9693,6.9444,6.8801,6.7731,6.7231,6.6731,6.6161,6.5911,6.6089,6.6624,6.6624,6.6339,6.5839,6.6375,6.6494,6.6266,6.6945,6.6848,6.6204,6.6113,6.6294,6.6629,6.7095,6.7408,6.7646,6.7881,6.7814,6.7612,6.7682,6.7546,6.7374,6.7408,6.7095,6.6664,6.6664,6.6331,6.5773,6.5221,6.5048,6.5048,6.5048,6.4876,6.491,6.5704,6.629,6.6531,6.5979,6.6462,6.6773,6.6014,6.6048,6.5979,6.5186,6.4841,6.4531,6.3979,6.4142,6.4463,6.4939,6.5204,6.5365,6.5558,6.6064,6.6374,6.6374,6.6494,6.6427,6.6171,6.5856,6.5553,6.533,6.5527,6.5407,6.4866,6.4712,6.4495,6.4208,6.4291,6.4332,6.437,6.461,6.5209,4.4568,4.5882,4.7065,4.9055,5.076,5.2409,5.4001,5.4635,5.521,5.6254,5.6129,5.5946,5.6196,5.6683,5.7222,5.7673,5.8858,6.0092,6.1092,6.1702,6.2664,6.4369,6.4626,6.5224,6.6845,6.7374,6.7838,6.8337,6.9122,6.9229,6.8444,6.8409,6.7945,6.7017,6.6696,6.6268,6.5804,6.6125,6.6517,6.6981,6.7302,6.7017,6.6303,6.6601,6.6616,6.6415,6.6877,6.6884,6.6628,6.6953,6.72,6.7339,6.7947,6.8242,6.8371,6.8656,6.8593,6.8339,6.8371,6.8213,6.7947,6.8016,6.7749,6.7339,6.7339,6.7024,6.6597,6.6107,6.5967,6.5967,6.5967,6.5967,6.5963,6.589,6.6221,6.6428,6.5979,6.6221,6.6439,6.591,6.5845,6.5602,6.4802,6.488,6.4812,6.4109,6.4566,6.527,6.594,6.6033,6.6125,6.6434,6.6533,6.6616,6.6616,6.6402,6.6123,6.5791,6.5471,6.516,6.4827,6.4967,6.489,6.4442,6.4577,6.4544,6.4275,6.4626,6.4837,6.4799,6.5131,6.5893,4.7331,4.8933,4.9916,5.0928,5.2927,5.4739,5.5083,5.5817,5.6439,5.6462,5.6475,5.6345,5.5737,5.6805,5.7809,5.7891,5.9692,6.1153,6.1264,6.2313,6.3434,6.4358,6.4427,6.5017,6.6497,6.6735,6.6803,6.6874,6.7588,6.7695,6.7017,6.6981,6.6946,6.6874,6.6161,6.5804,6.5804,6.6589,6.7017,6.7088,6.7733,6.7733,6.7163,6.6725,6.652,6.652,6.6383,6.6565,6.6989,6.8263,6.8386,6.793,6.9267,6.942,6.8971,6.9657,6.9449,6.8911,6.8984,6.8548,6.8005,6.8076,6.8043,6.8013,6.8013,6.7945,6.7879,6.7807,6.7807,6.7772,6.77,6.7665,6.7399,6.6162,6.5965,6.6069,6.6,6.5965,6.5947,6.5759,6.5688,6.5478,6.4809,6.5204,6.5433,6.4872,6.5335,6.5971,6.6707,6.6765,6.6996,6.7523,6.6953,6.6502,6.6444,6.6026,6.5496,6.4799,6.501,6.4885,6.4194,6.4448,6.4501,6.4174,6.4351,6.4464,6.4501,6.5073,6.5359,6.5403,6.5931,6.6737,4.4998,4.7307,4.9361,5.0165,5.189,5.3748,5.5075,5.5175,5.4904,5.4745,5.4858,5.526,5.6279,5.7194,5.8144,5.9299,5.9944,6.0685,6.1897,6.1312,6.1447,6.3397,6.3163,6.317,6.4069,6.477,6.5375,6.6018,6.6767,6.716,6.6981,6.6981,6.6696,6.6089,6.5875,6.5804,6.5804,6.6589,6.7267,6.7838,6.7785,6.7969,6.8394,6.7688,6.73,6.7231,6.6884,6.681,6.6823,6.7153,6.7146,6.7005,6.7302,6.7656,6.8,6.8174,6.8119,6.8083,6.8705,6.8812,6.8799,6.942,6.9249,6.8786,6.8786,6.8371,6.7772,6.7198,6.702,6.6877,6.6268,6.6089,6.6028,6.5734,6.6591,6.7299,6.6732,6.6624,6.641,6.5759,6.5614,6.5578,6.54,6.5494,6.5752,6.6192,6.6374,6.6707,6.7405,6.7488,6.7295,6.6806,6.6586,6.6364,6.6062,6.5366,6.5001,6.5149,6.4674,6.4461,6.4649,6.4364,6.4344,6.4649,6.4807,6.5025,6.5329,6.5635,6.5846,6.597,6.6747,6.767,4.5758,4.8141,5.0161,5.2536,5.2818,5.2929,5.4592,5.4194,5.3467,5.3361,5.3956,5.4821,5.5984,5.7044,5.8171,5.9297,6.0059,6.0687,6.1173,6.051,6.0705,6.2658,6.222,6.2196,6.3312,6.3764,6.4055,6.4126,6.5197,6.5697,6.5304,6.6018,6.6232,6.5804,6.5804,6.5625,6.5233,6.6767,6.7338,6.7017,6.7959,6.8247,6.7891,6.7261,6.6632,6.6142,6.6612,6.6539,6.6166,6.6536,6.6642,6.6599,6.6599,6.7076,6.7687,6.7687,6.7687,6.7787,6.8164,6.8311,6.8385,6.8788,6.8677,6.8385,6.8385,6.8087,6.771,6.7342,6.7234,6.7125,6.672,6.6612,6.6612,6.6612,6.6674,6.6699,6.6339,6.6232,6.6221,6.6136,6.6125,6.6125,6.6125,6.6125,6.6374,6.7089,6.7174,6.7322,6.766,6.7357,6.7059,6.6812,6.6099,6.5618,6.562,6.5095,6.4833,6.5048,6.4839,6.4862,6.5134,6.4892,6.4875,6.5134,6.535,6.5561,6.5781,6.5992,6.6322,6.6838,6.7401,6.817,4.6678,4.9074,5.1031,5.4982,5.4004,5.2368,5.3873,5.3247,5.2409,5.2409,5.3434,5.4589,5.562,5.6879,5.8104,5.9131,6.0291,6.0854,6.0092,5.9993,6.0458,6.175,6.139,6.1466,6.2691,6.2804,6.2555,6.1965,6.3373,6.4005,6.3436,6.492,6.5804,6.5804,6.5804,6.5554,6.5019,6.6946,6.7338,6.6232,6.7919,6.789,6.6335,6.6055,6.553,6.4794,6.6006,6.6076,6.5436,6.6043,6.6292,6.6329,6.6439,6.6916,6.7504,6.7677,6.7687,6.7687,6.7687,6.7687,6.7687,6.7687,6.7687,6.7687,6.7687,6.7687,6.7687,6.7687,6.7687,6.7687,6.7687,6.7687,6.7687,6.7687,6.6787,6.5971,6.5971,6.5971,6.6156,6.6765,6.6939,6.6988,6.6988,6.7073,6.7268,6.7757,6.7889,6.7841,6.7626,6.7115,6.6728,6.6783,6.5589,6.4896,6.5209,6.4973,6.481,6.4917,6.5236,6.5435,6.5527,6.5542,6.5569,6.5613,6.5804,6.5964,6.6039,6.6217,6.6779,6.7665,6.7989,6.8522,4.3931,4.7056,5.0286,5.3513,5.3169,5.223,5.3122,5.2842,5.2409,5.2409,5.3003,5.4162,5.6183,5.7243,5.8469,6.049,6.0986,6.0854,6.0092,5.9993,6.0091,6.0287,6.0241,6.022,6.0428,6.0441,6.0431,6.0391,6.1802,6.2939,6.3467,6.498,6.5804,6.5804,6.5804,6.6089,6.666,6.6981,6.7338,6.7766,6.6807,6.5548,6.4069,6.4475,6.4885,6.5291,6.5685,6.5651,6.5317,6.5396,6.5485,6.5521,6.6219,6.6549,6.6733,6.743,6.7687,6.7687,6.7687,6.7687,6.7687,6.7687,6.7687,6.7687,6.7687,6.7687,6.7687,6.7687,6.7687,6.7687,6.7687,6.7687,6.7687,6.7687,6.7542,6.7433,6.7433,6.7433,6.746,6.7542,6.7904,6.8161,6.8161,6.8525,6.8651,6.8346,6.8642,6.8473,6.7332,6.7463,6.708,6.5699,6.5345,6.5116,6.4895,6.4833,6.4968,6.5298,6.5345,6.5499,6.5743,6.5755,6.587,6.6078,6.602,6.6031,6.6179,6.6244,6.6828,6.7867,6.8648,6.9132,4.4267,4.7152,4.9609,5.2713,5.2415,5.1619,5.2477,5.2203,5.1912,5.2307,5.2605,5.3367,5.5156,5.6415,5.7773,5.9562,6.0556,6.0854,6.0092,5.9628,5.9385,5.9393,5.9021,5.8903,5.9323,5.9388,5.9386,5.9426,6.0461,6.1635,6.2808,6.3917,6.4915,6.5768,6.5375,6.5518,6.6303,6.6339,6.6598,6.7112,6.5618,6.4707,6.4372,6.4464,6.4629,6.4842,6.5302,6.5154,6.464,6.5118,6.5444,6.578,6.6568,6.7358,6.8007,6.8342,6.849,6.849,6.849,6.849,6.849,6.849,6.849,6.849,6.849,6.849,6.849,6.849,6.849,6.849,6.849,6.849,6.849,6.849,6.849,6.849,6.849,6.8272,6.8185,6.8442,6.8642,6.878,6.878,6.8959,6.9025,6.8825,6.8547,6.8178,6.7584,6.6839,6.6244,6.5747,6.5294,6.5064,6.5123,6.5253,6.5394,6.5613,6.573,6.5859,6.6022,6.6022,6.6153,6.6413,6.6329,6.6329,6.6413,6.7008,6.7785,6.8744,6.9142,6.9328,4.3778,4.5961,4.7517,5.1037,5.0985,5.0381,5.1639,5.1766,5.168,5.2045,5.2407,5.297,5.403,5.5421,5.7011,5.8866,6.0092,6.0523,5.9562,5.9131,5.8785,5.8413,5.7977,5.7925,5.8494,5.8529,5.839,5.8178,5.9279,6.0425,6.1568,6.2679,6.3752,6.4906,6.4728,6.4941,6.551,6.5723,6.5736,6.5508,6.4532,6.417,6.4327,6.4285,6.4208,6.4147,6.4976,6.4952,6.4365,6.4917,6.5421,6.5948,6.6731,6.7628,6.8532,6.8988,6.9139,6.9139,6.9155,6.9134,6.9134,6.9112,6.9091,6.9091,6.9091,6.9091,6.9091,6.9091,6.9091,6.9091,6.9091,6.9091,6.9091,6.9091,6.9091,6.9091,6.9091,6.8825,6.8665,6.9025,6.9198,6.9261,6.9261,6.9365,6.931,6.9018,6.8477,6.7952,6.7416,6.6367,6.571,6.5849,6.5331,6.5068,6.536,6.5572,6.573,6.5804,6.5989,6.6135,6.6275,6.6283,6.6406,6.6668,6.6819,6.6936,6.6993,6.7715,6.8535,6.9373,6.9373,6.9214,4.0467,4.1473,4.3132,4.7553,4.8202,4.8335,5.0498,5.1661,5.2177,5.1514,5.2407,5.3367,5.3467,5.4655,5.6614,5.9496,6.0026,5.9562,5.8104,5.8469,5.8386,5.6998,5.7226,5.752,5.7594,5.7409,5.6996,5.629,5.8219,5.9452,5.9473,6.1495,6.2614,6.2594,6.3966,6.474,6.474,6.5513,6.4988,6.3171,6.3751,6.3461,6.2488,6.3004,6.3275,6.3375,6.482,6.5249,6.4838,6.4753,6.5001,6.5523,6.6394,6.6794,6.704,6.8686,6.9292,6.9272,6.9206,6.9165,6.9202,6.9134,6.9091,6.9091,6.9091,6.9091,6.9091,6.9091,6.9091,6.9091,6.9091,6.9091,6.9091,6.9091,6.9091,6.9091,6.9091,6.9069,6.9069,6.9091,6.9484,6.974,6.974,7.0091,6.9946,6.8697,6.8891,6.8405,6.6348,6.64,6.6322,6.5536,6.5383,6.5398,6.5413,6.5572,6.573,6.5804,6.5989,6.6234,6.6462,6.6468,6.6571,6.679,6.7583,6.8017,6.8019,6.806,6.8512,6.9319,6.9319,6.8778,3.9907,4.113,4.2439,4.558,4.6971,4.7928,4.9249,5.0292,5.1181,5.1879,5.2738,5.3566,5.403,5.5322,5.6812,5.8336,5.9396,5.9661,5.8634,5.8336,5.7825,5.6834,5.6749,5.7,5.7426,5.7264,5.7225,5.7429,5.8206,5.9059,6.0011,6.0727,6.2008,6.3937,6.3938,6.4179,6.4706,6.4778,6.4218,6.2997,6.3053,6.2772,6.2306,6.2988,6.3474,6.3762,6.473,6.4815,6.4267,6.4966,6.5556,6.6045,6.6897,6.74,6.7812,6.8951,6.9349,6.9447,6.9963,7.0154,7.0137,7.0071,7.0073,7.0055,6.9963,6.9945,6.9945,6.9945,6.9945,6.9945,6.9945,6.9945,6.9945,6.9945,6.9945,6.9945,6.9945,6.9945,6.9945,6.9945,7.0053,7.0179,7.0179,6.9878,6.9453,6.9032,6.8199,6.7315,6.6538,6.61,6.5757,6.5413,6.5413,6.5465,6.5572,6.5801,6.6051,6.6226,6.6452,6.6605,6.6674,6.6674,6.7006,6.7627,6.7943,6.8101,6.8101,6.8654,6.9061,6.9277,6.8728,6.8202,3.8169,3.9493,4.0768,4.3064,4.4842,4.636,4.7732,4.8928,5.0085,5.1413,5.2407,5.3367,5.4328,5.5521,5.6647,5.7641,5.8403,5.8734,5.8237,5.774,5.7144,5.6338,5.6276,5.6481,5.6894,5.6693,5.6825,5.7575,5.7869,5.8536,5.9745,5.9939,6.1381,6.4371,6.3588,6.3799,6.509,6.4144,6.3203,6.2439,6.2448,6.2235,6.1937,6.3095,6.3752,6.4046,6.4797,6.4933,6.4726,6.5483,6.6056,6.6558,6.7108,6.7516,6.7913,6.8733,6.9072,6.9231,7.0102,7.0425,7.0478,7.0686,7.0743,7.0714,7.0515,7.0451,7.0451,7.0419,7.0419,7.0419,7.0419,7.0419,7.0419,7.0419,7.0419,7.0419,7.0419,7.0419,7.0419,7.0419,7.0419,7.0304,7.0037,6.954,6.9005,6.8432,6.7493,6.671,6.6404,6.5929,6.5638,6.5638,6.5638,6.5679,6.5816,6.6061,6.6275,6.6497,6.6677,6.6781,6.6795,6.7073,6.7507,6.8101,6.838,6.8545,6.8513,6.9061,6.9175,6.8775,6.8163,6.7615,0.0,0.0,0.0,4.0014,4.1704,4.3537,4.5898,4.7661,4.9057,4.9953,5.138,5.2837,5.4195,5.5052,5.6051,5.7508,5.7177,5.6713,5.6713,5.668,5.6305,5.5419,5.5745,5.5974,5.5806,5.5564,5.5733,5.6446,5.7158,5.7874,5.8494,5.9172,6.0748,6.3457,6.291,6.3565,6.5773,6.3531,6.2048,6.129,6.1954,6.1872,6.1171,6.309,6.4009,6.407,6.4926,6.5711,6.6373,6.6238,6.6475,6.6863,6.6932,6.6973,6.7101,6.8052,6.8458,6.8689,6.9535,6.9884,7.0117,7.0799,7.1014,7.0953,7.0699,7.0616,7.0585,7.0467,7.0413,7.0397,7.0397,7.0397,7.0397,7.0397,7.0413,7.0413,7.0397,7.0413,7.0397,7.0397,7.0397,7.0129,6.9343,6.919,6.8578,6.6973,6.6877,6.6667,6.5833,6.5931,6.6108,6.6108,6.6108,6.6108,6.6118,6.6298,6.6432,6.651,6.6681,6.682,6.6834,6.7666,6.8101,6.8141,6.8977,6.9335,6.9275,6.9275,6.8772,6.7798,6.7709,6.7065,3.5188,0.0,0.0,0.0,0.0,0.0,4.4416,4.6717,4.8688,4.9123,5.1204,5.2957,5.3003,5.3997,5.5048,5.5859,5.6834,5.7436,5.7311,5.6387,5.5551,5.5121,5.509,5.5063,5.4984,5.5726,5.6284,5.6478,5.7158,5.8118,5.9296,6.1459,6.2744,6.2851,6.3171,6.3324,6.3427,6.1703,6.0703,6.0531,6.114,6.1299,6.1171,6.309,6.4134,6.4389,6.5041,6.5571,6.6022,6.5995,6.6115,6.6317,6.6328,6.6397,6.6611,6.7512,6.7859,6.8097,6.9553,7.0132,7.0274,7.099,7.1233,7.1174,7.1059,7.102,7.1023,7.0981,7.0922,7.0927,7.0927,7.0927,7.0927,7.0927,7.0925,7.0988,7.0939,7.0925,7.0927,7.0752,7.0182,6.9753,6.9694,6.8678,6.7675,6.7212,6.6692,6.6245,6.6014,6.6067,6.6108,6.6108,6.6108,6.6148,6.6314,6.6404,6.6546,6.6728,6.6772,6.7068,6.7707,6.7982,6.8382,6.9016,6.9218,6.9008,6.8364,6.8364,6.8149,6.7702,6.6919,6.6337,3.4864,3.5785,3.6918,3.7015,0.0,0.0,4.2958,4.5046,4.7177,4.8595,5.0314,5.1605,5.1877,5.2798,5.368,5.4298,5.5386,5.6375,5.6882,5.6,5.5297,5.5352,5.5227,5.5237,5.545,5.6107,5.6737,5.7352,5.7773,5.8613,5.998,6.19,6.2851,6.2593,6.2933,6.291,6.2496,6.0978,6.0324,6.0563,6.0909,6.1229,6.1576,6.3409,6.4312,6.4481,6.5253,6.5649,6.5872,6.597,6.603,6.6108,6.6108,6.6194,6.6353,6.685,6.7129,6.7411,6.9168,6.9831,7.0057,7.1114,7.1474,7.1451,7.1296,7.1232,7.1252,7.1223,7.1164,7.113,7.1098,7.1098,7.1098,7.1098,7.112,7.1141,7.1109,7.112,7.1098,7.0951,7.0246,6.9601,6.9402,6.8225,6.717,6.6871,6.6487,6.6233,6.6233,6.6303,6.6345,6.6345,6.6361,6.6383,6.6528,6.6574,6.6672,6.6808,6.7144,6.7557,6.8043,6.8397,6.8828,6.9283,6.8864,6.8238,6.7326,6.7716,6.7579,6.6997,6.6212,6.5793,3.4583,3.5169,3.6011,3.5357,3.7237,0.0,4.1318,4.2883,4.4847,4.7803,4.8597,4.9225,5.0616,5.1336,5.1984,5.2807,5.3283,5.4088,5.5588,5.5423,5.522,5.5513,5.5563,5.5775,5.6131,5.6284,5.6867,5.8022,5.8346,5.903,6.0224,6.112,6.1818,6.2277,6.2284,6.2182,6.2117,6.0737,6.0357,6.0987,6.1056,6.1428,6.2209,6.3759,6.4463,6.4501,6.547,6.5872,6.5859,6.6041,6.6118,6.6109,6.6167,6.6256,6.6366,6.6366,6.6483,6.6883,6.8608,6.9284,6.9676,7.1204,7.1721,7.1694,7.1466,7.1365,7.1348,7.1296,7.129,7.1281,7.1182,7.1172,7.1172,7.1172,7.1172,7.1182,7.1172,7.1095,7.1028,7.1056,7.0377,6.9515,6.8694,6.7793,6.698,6.6254,6.632,6.6414,6.6414,6.6606,6.6712,6.6712,6.6693,6.6711,6.6716,6.6752,6.6853,6.6934,6.7661,6.8118,6.8159,6.8891,6.9174,6.8973,6.8081,6.7217,6.6353,6.7137,6.7026,6.6058,6.5679,6.5422,3.5616,3.5195,3.539,3.526,3.6465,0.0,3.8914,4.0664,4.2512,4.384,4.5473,4.6977,4.803,4.8818,4.9864,5.1549,5.1525,5.1987,5.3824,5.3987,5.3916,5.3804,5.4283,5.4478,5.3984,5.4956,5.5507,5.5247,5.6802,5.816,5.8926,6.0163,6.0894,6.0808,6.0778,6.0374,5.9702,5.9392,5.9559,6.0247,6.0717,6.1476,6.2448,6.3717,6.4444,6.4824,6.5523,6.5859,6.5978,6.6046,6.6167,6.6275,6.6439,6.6595,6.672,6.672,6.6727,6.7013,6.8769,6.9363,6.9684,7.1387,7.193,7.1927,7.187,7.1811,7.1789,7.1778,7.1755,7.1743,7.1673,7.1667,7.1667,7.1667,7.1686,7.1737,7.1673,7.1141,7.0686,7.07,6.9811,6.8901,6.8216,6.7379,6.6756,6.66,6.6624,6.6635,6.6635,6.6696,6.6712,6.6712,6.6693,6.672,6.6775,6.6798,6.7097,6.7781,6.8021,6.8393,6.9008,6.9199,6.8895,6.8091,6.7126,6.6492,6.6147,6.634,6.6185,6.568,6.5493,6.5192,3.6711,3.5506,3.489,3.469,3.5461,0.0,0.0,3.9393,4.0915,4.1814,4.3413,4.4785,4.5274,4.6192,4.7172,4.8146,4.9186,4.9932,5.0217,5.188,5.3148,5.3272,5.3952,5.4405,5.4373,5.5345,5.596,5.5992,5.6964,5.7878,5.8498,5.9895,6.0405,5.9886,6.0492,6.0211,5.9012,5.9317,5.9809,6.0468,6.1091,6.1851,6.2683,6.3734,6.4294,6.4557,6.5352,6.5782,6.5951,6.6099,6.6259,6.6445,6.6563,6.6693,6.6795,6.6795,6.6795,6.7029,6.8786,6.9411,6.9684,7.1441,7.1987,7.1987,7.1987,7.1982,7.193,7.1928,7.1885,7.1885,7.1833,7.1827,7.1833,7.1822,7.1838,7.1892,7.1822,7.1175,7.0488,7.0035,6.9155,6.8352,6.8065,6.7291,6.6712,6.6712,6.6712,6.6712,6.6712,6.6712,6.6717,6.6688,6.6716,6.6775,6.6798,6.6814,6.7185,6.8021,6.8496,6.8867,6.9201,6.9188,6.8491,6.7021,6.6454,6.6077,6.5842,6.5705,6.5601,6.5493,6.5051,6.4664,3.7689,3.5952,3.484,3.4497,3.4917,3.5805,0.0,0.0,0.0,4.0398,4.138,4.2198,4.2591,4.3547,4.4268,4.4398,4.6444,4.7605,4.6439,4.9174,5.1647,5.256,5.3466,5.4179,5.4729,5.596,5.677,5.6964,5.7482,5.7832,5.7879,5.9138,5.9566,5.9109,6.0164,6.0181,5.9012,5.9549,6.0156,6.0915,6.1472,6.2156,6.3086,6.3834,6.4217,6.4389,6.5222,6.5705,6.5963,6.6108,6.6366,6.6624,6.6654,6.6709,6.6795,6.6795,6.6795,6.7029,6.8786,6.9411,6.9684,7.1441,7.1987,7.1987,7.1987,7.1984,7.1979,7.1909,7.1909,7.1909,7.1814,7.1848,7.1897,7.1838,7.1848,7.1853,7.1604,7.0946,7.0094,6.9221,6.8354,6.7759,6.7759,6.7174,6.6712,6.6712,6.6712,6.6712,6.6712,6.6712,6.6688,6.6707,6.6775,6.6872,6.7045,6.7063,6.7507,6.8533,6.9093,6.9292,6.9094,6.875,6.7775,6.6204,6.6058,6.5869,6.5575,6.5282,6.5146,6.5115,6.4501,6.4053,3.8235,3.6533,3.5678,3.5609,3.5889,3.6367,3.7145,0.0,3.7075,3.8432,0.0,3.8561,4.0442,0.0,0.0,4.1902,4.3297,4.4269,4.4107,4.5533,4.7543,5.0163,5.1653,5.2462,5.256,5.5539,5.6705,5.4891,5.7093,5.7676,5.5856,5.6522,5.7387,5.8366,5.858,5.8733,5.8978,5.9081,5.9709,6.0879,6.1003,6.2063,6.3954,6.4056,6.4538,6.5267,6.5435,6.5744,6.6098,6.6153,6.6445,6.6775,6.6775,6.679,6.6795,6.6795,6.6795,6.7029,6.8786,6.9411,6.9684,7.1441,7.1987,7.1987,7.1987,7.1979,7.1927,7.1884,7.1909,7.1893,7.1885,7.1885,7.1889,7.1885,7.1872,7.1707,7.0906,7.0064,6.9177,6.8339,6.7428,6.6868,6.6868,6.679,6.6712,6.6712,6.6712,6.6712,6.6712,6.6693,6.6707,6.6711,6.6748,6.712,6.7904,6.7969,6.865,7.03,6.9725,6.9257,6.9109,6.7376,6.6299,6.6024,6.6013,6.582,6.5408,6.5051,6.4626,6.4254,6.3954,6.3565,4.0407,3.9033,3.8187,3.7274,3.782,3.8439,3.801,3.7728,3.7469,3.7242,0.0,0.0,0.0,0.0,0.0,0.0,4.1614,4.278,4.197,4.3427,4.55,4.7929,4.9872,5.1459,5.2721,5.5345,5.6057,5.392,5.6413,5.7066,5.475,5.606,5.6911,5.6925,5.8065,5.8595,5.8357,5.9531,6.0371,6.0879,6.1632,6.2608,6.3761,6.3975,6.4464,6.5068,6.5329,6.5666,6.6118,6.6137,6.6418,6.6787,6.6814,6.679,6.6795,6.6795,6.6795,6.7029,6.8786,6.9411,6.9684,7.1441,7.1987,7.1987,7.1987,7.1984,7.1937,7.1927,7.192,7.1909,7.1893,7.1893,7.1889,7.1915,7.1534,7.107,7.0688,6.9562,6.847,6.8096,6.7302,6.6712,6.6712,6.6712,6.6712,6.6712,6.6712,6.6717,6.6693,6.6702,6.672,6.6748,6.7231,6.7712,6.8072,6.8562,6.9168,6.9844,6.8915,6.8316,6.8221,6.6835,6.5928,6.5718,6.5548,6.5207,6.4626,6.4275,6.3892,6.3468,6.3513,6.3368,4.2427,4.1234,4.0453,3.9232,3.9606,4.016,3.9661,3.8796,3.7825,3.6788,3.6497,0.0,0.0,0.0,3.7436,3.7242,0.0,4.0645,3.925,4.0901,4.3201,4.5726,4.7929,5.0163,5.2495,5.5021,5.5604,5.3459,5.6481,5.7094,5.3987,5.5784,5.6572,5.5926,5.7364,5.805,5.7909,5.9526,6.0552,6.0909,6.1996,6.2929,6.3674,6.3992,6.4426,6.4985,6.5267,6.5678,6.6108,6.609,6.6383,6.6775,6.6801,6.6781,6.679,6.6795,6.6795,6.7029,6.8513,6.9372,6.9996,7.1519,7.1987,7.1987,7.1987,7.1987,7.1984,7.1937,7.1933,7.193,7.1913,7.1753,7.1554,7.1577,7.093,7.0274,6.9961,6.8951,6.7976,6.7711,6.7156,6.6683,6.6683,6.6717,6.6712,6.6712,6.6717,6.6688,6.6707,6.6915,6.7091,6.7159,6.7946,6.8541,6.8791,6.9163,6.9219,6.8898,6.8143,6.7526,6.7182,6.6339,6.5718,6.5408,6.5115,6.4626,6.3995,6.3766,6.3408,6.3002,6.3171,6.3123,4.3816,4.2394,4.1797,4.1533,4.0957,4.0834,4.2133,3.9803,3.7311,3.7279,3.5623,3.4392,3.513,3.5292,0.0,0.0,0.0,0.0,0.0,3.7209,3.9865,4.3395,4.5694,4.8123,5.0973,5.4438,5.5604,5.3459,5.7806,5.8363,5.3399,5.5015,5.6068,5.5926,5.5961,5.6611,5.7909,5.8596,5.9637,6.0879,6.1612,6.2671,6.4076,6.4076,6.4575,6.5398,6.5375,6.5678,6.6108,6.609,6.6322,6.6716,6.6759,6.6811,6.6814,6.679,6.6795,6.6912,6.7849,6.9255,7.0816,7.1714,7.1987,7.1987,7.1987,7.1987,7.1987,7.1987,7.1987,7.1987,7.1987,7.136,7.0735,7.0735,7.006,6.9192,6.8351,6.8082,6.7768,6.697,6.6763,6.6707,6.6707,6.6688,6.6712,6.6712,6.6693,6.6711,6.6711,6.7489,6.8057,6.806,6.8856,6.9689,7.0523,6.9804,6.8856,6.7811,6.7736,6.7217,6.6113,6.5705,6.5408,6.513,6.4731,6.4294,6.3825,6.3803,6.3535,6.3002,6.288,6.2805,4.6618,4.5791,4.5272,4.3586,4.4489,4.5426,4.4301,4.2423,4.0739,4.0254,3.7695,3.5493,3.526,3.5195,0.0,0.0,0.0,0.0,0.0,3.695,3.8149,3.9318,0.0,0.0,0.0,5.1847,5.2981,5.1329,5.5719,5.6657,5.2457,5.4624,5.5654,5.4996,5.5442,5.6113,5.6962,5.8129,5.9416,6.0799,6.1714,6.2829,6.4096,6.4426,6.4862,6.5413,6.5413,6.5666,6.608,6.61,6.6358,6.6755,6.6808,6.6817,6.679,6.6795,6.6795,6.699,6.8474,6.9723,7.0855,7.1714,7.1987,7.1987,7.1937,7.194,7.1867,7.1312,7.1153,7.1,7.0423,7.0066,6.9823,6.9823,6.9162,6.846,6.817,6.7617,6.7142,6.6861,6.6775,6.6771,6.6771,6.6767,6.6759,6.6759,6.6767,6.697,6.7532,6.7894,6.8336,6.8895,6.9759,7.0392,7.0679,6.9756,6.8743,6.7743,6.7035,6.6344,6.5692,6.5507,6.5083,6.437,6.4156,6.3766,6.3262,6.3168,6.3038,6.2855,6.3418,6.3356,4.9226,4.8448,4.7821,4.6185,4.6937,4.7725,4.6487,4.4691,4.316,4.2486,3.9509,3.7048,3.7107,3.6265,0.0,0.0,0.0,0.0,0.0,3.6108,3.6562,0.0,0.0,0.0,0.0,0.0,5.0839,5.0524,5.443,5.5462,5.23,5.4228,5.5104,5.4497,5.4977,5.564,5.6495,5.7639,5.9048,6.0738,6.2066,6.3195,6.4154,6.4878,6.5285,6.5413,6.5444,6.5705,6.6109,6.6128,6.6411,6.6805,6.6808,6.6817,6.679,6.6795,6.6795,6.699,6.8435,6.9294,6.9918,7.0777,7.1089,7.1089,7.1,7.1045,7.1008,7.0766,7.0489,7.018,6.9915,6.9402,6.8925,6.8925,6.827,6.7649,6.7627,6.7198,6.6808,6.6798,6.6794,6.6794,6.6794,6.6801,6.6801,6.6787,6.6791,6.711,6.7979,6.8375,6.8892,6.9762,7.0626,7.088,7.0195,6.9181,6.8183,6.7196,6.6476,6.5916,6.5479,6.5238,6.4882,6.4379,6.378,6.3456,6.337,6.2977,6.278,6.2817,6.3635,6.3544]}]]